[[{"header":{"parameterUnit":"m.s-1","parameterCategory":1,"la1":30.6,"la2":28.766,"lo1":-90.7593,"lo2":-88.6598,"dy":0.0162,"dx":0.0183,"nx":116,"ny":114,"refTime":"2023-07-19T06:00:00:Z","depth":0,"parameterNumber":2,"parameterNumberName":"U-component_of_WINDS"},"data":[0.0,0.0,0.0,0.0,0.0,0.0,0.0,0.0,0.0,0.0,0.0,0.0,0.0,0.0,0.0,0.0,0.0,0.0,0.0,0.0,0.0,0.0,0.0,0.0,0.0,0.0,0.0,0.0,0.0,0.0,0.0,0.0,0.0,0.0,0.0,0.0,0.0,0.0,0.0,0.0,0.0,0.0,0.0,0.0,0.0,0.0,0.0,0.0,0.0,0.0,0.0,0.0,0.0,0.0,0.0,0.0,0.0,0.0,0.0,0.0,0.0,0.0,0.0,0.0,0.0,0.0,0.0,0.0,0.0,0.0,0.0,0.0,0.0,0.0,0.0,0.0,0.0,0.0,0.0,0.0,0.0,0.0,0.0,0.0,0.0,0.0,0.0,0.0,0.0,0.0,0.0,0.0,0.0,0.0,0.0,0.0,0.0,0.0,0.0,0.0,0.0,0.0,0.0,0.0,0.0,0.0,0.0,0.0,0.0,0.0,0.0,0.0,0.0,0.0,0.0,0.0,0.0,0.0,0.0,0.0,0.0,0.0,0.0,0.0,0.0,0.0,0.0,0.0,0.0,0.0,0.0,0.0,0.0,0.0,0.0,0.0,0.0,0.0,0.0,0.0,0.0,0.0,0.0,0.0,0.0,0.0,0.0,0.0,0.0,0.0,0.0,0.0,0.0,0.0,0.0,0.0,0.0,0.0,0.0,0.0,0.0,0.0,0.0,0.0,0.0,0.0,0.0,0.0,0.0,0.0,0.0,0.0,0.0,0.0,0.0,0.0,0.0,0.0,0.0,0.0,0.0,0.0,0.0,0.0,0.0,0.0,0.0,0.0,0.0,0.0,0.0,0.0,0.0,0.0,0.0,0.0,0.0,0.0,0.0,0.0,0.0,0.0,0.0,0.0,0.0,0.0,0.0,0.0,0.0,0.0,0.0,0.0,0.0,0.0,0.0,0.0,0.0,0.0,0.0,0.0,0.0,0.0,0.0,0.0,0.0,0.0,0.0,0.0,0.0,0.0,0.0,0.0,0.0,0.0,0.0,0.0,0.0,0.0,0.0,0.0,0.0,0.0,0.0,0.0,0.0,0.0,0.0,0.0,0.0,0.0,0.0,0.0,0.0,0.0,0.0,0.0,0.0,0.0,0.0,0.0,0.0,0.0,0.0,0.0,0.0,0.0,0.0,0.0,0.0,0.0,0.0,0.0,0.0,0.0,0.0,0.0,0.0,0.0,0.0,0.0,0.0,0.0,0.0,0.0,0.0,0.0,0.0,0.0,0.0,0.0,0.0,0.0,0.0,0.0,0.0,0.0,0.0,0.0,0.0,0.0,0.0,0.0,0.0,0.0,0.0,0.0,0.0,0.0,0.0,0.0,0.0,0.0,0.0,0.0,0.0,0.0,0.0,0.0,0.0,0.0,0.0,0.0,0.0,0.0,0.0,0.0,0.0,0.0,0.0,0.0,0.0,0.0,0.0,0.0,0.0,0.0,0.0,0.0,0.0,0.0,0.0,0.0,0.0,0.0,0.0,0.0,0.0,0.0,0.0,0.0,0.0,0.0,0.0,0.0,0.0,0.0,0.0,0.0,0.0,0.0,0.0,0.0,0.0,0.0,0.0,0.0,0.0,0.0,0.0,0.0,0.0,0.0,0.0,0.0,0.0,0.0,0.0,0.0,0.0,0.0,0.0,0.0,0.0,0.0,0.0,0.0,0.0,0.0,0.0,0.0,0.0,0.0,0.0,0.0,0.0,0.0,0.0,0.0,0.0,0.0,0.0,0.0,0.0,0.0,0.0,0.0,0.0,0.0,0.0,0.0,0.0,0.0,0.0,0.0,0.0,0.0,0.0,0.0,0.0,0.0,0.0,0.0,0.0,0.0,0.0,0.0,0.0,0.0,0.0,0.0,0.0,0.0,0.0,0.0,0.0,0.0,0.0,0.0,0.0,0.0,0.0,0.0,0.0,0.0,0.0,0.0,0.0,0.0,0.0,0.0,0.0,0.0,0.0,0.0,0.0,0.0,0.0,0.0,0.0,0.0,0.0,0.0,0.0,0.0,0.0,0.0,0.0,0.0,0.0,0.0,0.0,0.0,0.0,0.0,0.0,0.0,0.0,0.0,0.0,0.0,0.0,0.0,0.0,0.0,0.0,0.0,0.0,0.0,0.0,0.0,0.0,0.0,0.0,0.0,0.0,0.0,0.0,0.0,0.0,0.0,0.0,0.0,0.0,0.0,0.0,0.0,0.0,0.0,0.0,0.0,0.0,0.0,0.0,0.0,0.0,0.0,0.0,0.0,0.0,0.0,0.0,0.0,0.0,0.0,0.0,0.0,0.0,0.0,0.0,0.0,0.0,0.0,0.0,0.0,0.0,0.0,0.0,0.0,0.0,0.0,0.0,0.0,0.0,0.0,0.0,0.0,0.0,0.0,0.0,0.0,0.0,0.0,0.0,0.0,0.0,0.0,0.0,0.0,0.0,0.0,0.0,0.0,0.0,0.0,0.0,0.0,0.0,0.0,0.0,0.0,0.0,0.0,0.0,0.0,0.0,0.0,0.0,0.0,0.0,0.0,0.0,0.0,0.0,0.0,0.0,0.0,0.0,0.0,0.0,0.0,0.0,0.0,0.0,0.0,0.0,0.0,0.0,0.0,0.0,0.0,0.0,0.0,0.0,0.0,0.0,0.0,0.0,0.0,0.0,0.0,0.0,0.0,0.0,0.0,0.0,0.0,0.0,0.0,0.0,0.0,0.0,0.0,0.0,0.0,0.0,0.0,0.0,0.0,0.0,0.0,0.0,0.0,0.0,0.0,0.0,0.0,0.0,0.0,0.0,0.0,0.0,0.0,0.0,0.0,0.0,0.0,0.0,0.0,0.0,0.0,0.0,0.0,0.0,0.0,0.0,0.0,0.0,0.0,0.0,0.0,0.0,0.0,0.0,0.0,0.0,0.0,0.0,0.0,0.0,0.0,0.0,0.0,0.0,0.0,0.0,0.0,0.0,0.0,0.0,0.0,0.0,0.0,0.0,0.0,0.0,0.0,0.0,0.0,0.0,0.0,0.0,0.0,0.0,0.0,0.0,0.0,0.0,0.0,0.0,0.0,0.0,0.0,0.0,0.0,0.0,0.0,0.0,0.0,0.0,0.0,0.0,0.0,0.0,0.0,0.0,0.0,0.0,0.0,0.0,0.0,0.0,0.0,0.0,0.0,0.0,0.0,0.0,0.0,0.0,0.0,0.0,0.0,0.0,0.0,0.0,0.0,0.0,0.0,0.0,0.0,0.0,0.0,0.0,0.0,0.0,0.0,0.0,0.0,0.0,0.0,0.0,0.0,0.0,0.0,0.0,0.0,0.0,0.0,0.0,0.0,0.0,0.0,0.0,0.0,0.0,0.0,0.0,0.0,0.0,0.0,0.0,0.0,0.0,0.0,0.0,0.0,0.0,0.0,0.0,0.0,0.0,0.0,0.0,0.0,0.0,0.0,0.0,0.0,0.0,0.0,0.0,0.0,0.0,0.0,0.0,0.0,0.0,0.0,0.0,0.0,0.0,0.0,0.0,0.0,0.0,0.0,0.0,0.0,0.0,0.0,0.0,0.0,0.0,0.0,0.0,0.0,0.0,0.0,0.0,0.0,0.0,0.0,0.0,0.0,0.0,0.0,0.0,0.0,0.0,0.0,0.0,0.0,0.0,0.0,0.0,0.0,0.0,0.0,0.0,0.0,0.0,0.0,0.0,0.0,0.0,0.0,0.0,0.0,0.0,0.0,0.0,0.0,0.0,0.0,0.0,0.0,0.0,0.0,0.0,0.0,0.0,0.0,0.0,0.0,0.0,0.0,0.0,0.0,0.0,0.0,0.0,0.0,0.0,0.0,0.0,0.0,0.0,0.0,0.0,0.0,0.0,0.0,0.0,0.0,0.0,0.0,0.0,0.0,0.0,0.0,0.0,0.0,0.0,0.0,0.0,0.0,0.0,0.0,0.0,0.0,0.0,0.0,0.0,0.0,0.0,0.0,0.0,0.0,0.0,0.0,0.0,0.0,0.0,0.0,0.0,0.0,0.0,0.0,0.0,0.0,0.0,0.0,0.0,0.0,0.0,0.0,0.0,0.0,0.0,0.0,0.0,0.0,0.0,0.0,0.0,0.0,0.0,0.0,0.0,0.0,0.0,0.0,0.0,0.0,0.0,0.0,0.0,0.0,0.0,0.0,0.0,0.0,0.0,0.0,0.0,0.0,0.0,0.0,0.0,0.0,0.0,0.0,0.0,0.0,0.0,0.0,0.0,0.0,0.0,0.0,0.0,0.0,0.0,0.0,0.0,0.0,0.0,0.0,0.0,0.0,0.0,0.0,0.0,0.0,0.0,0.0,0.0,0.0,0.0,0.0,0.0,0.0,0.0,0.0,0.0,0.0,0.0,0.0,0.0,0.0,0.0,0.0,0.0,0.0,0.0,0.0,0.0,0.0,0.0,0.0,0.0,0.0,0.0,0.0,0.0,0.0,0.0,0.0,0.0,0.0,0.0,0.0,0.0,0.0,0.0,0.0,0.0,0.0,0.0,0.0,0.0,0.0,0.0,0.0,0.0,0.0,0.0,0.0,0.0,0.0,0.0,0.0,0.0,0.0,0.0,0.0,0.0,0.0,0.0,0.0,0.0,0.0,0.0,0.0,0.0,0.0,0.0,0.0,0.0,0.0,0.0,0.0,0.0,0.0,0.0,0.0,0.0,0.0,0.0,0.0,0.0,0.0,0.0,0.0,0.0,0.0,0.0,0.0,0.0,0.0,0.0,0.0,0.0,0.0,0.0,0.0,0.0,0.0,0.0,0.0,0.0,0.0,0.0,0.0,0.0,0.0,0.0,0.0,0.0,0.0,0.0,0.0,0.0,0.0,0.0,0.0,0.0,0.0,0.0,0.0,0.0,0.0,0.0,0.0,0.0,0.0,0.0,0.0,0.0,0.0,0.0,0.0,0.0,0.0,0.0,0.0,0.0,0.0,0.0,0.0,0.0,0.0,0.0,0.0,0.0,0.0,0.0,0.0,0.0,0.0,0.0,0.0,0.0,0.0,0.0,0.0,0.0,0.0,0.0,0.0,0.0,0.0,0.0,0.0,0.0,0.0,0.0,0.0,0.0,0.0,0.0,0.0,0.0,0.0,0.0,0.0,0.0,0.0,0.0,0.0,0.0,0.0,0.0,0.0,0.0,0.0,0.0,0.0,0.0,0.0,0.0,0.0,0.0,0.0,0.0,0.0,0.0,0.0,0.0,0.0,0.0,0.0,0.0,0.0,0.0,0.0,0.0,0.0,0.0,0.0,0.0,0.0,0.0,0.0,0.0,0.0,0.0,0.0,0.0,0.0,0.0,0.0,0.0,0.0,0.0,0.0,0.0,0.0,0.0,0.0,0.0,0.0,0.0,0.0,0.0,0.0,0.0,0.0,0.0,0.0,0.0,0.0,0.0,0.0,0.0,0.0,0.0,0.0,0.0,0.0,0.0,0.0,0.0,0.0,0.0,0.0,0.0,0.0,0.0,0.0,0.0,0.0,0.0,0.0,0.0,0.0,0.0,0.0,0.0,0.0,0.0,0.0,0.0,0.0,0.0,0.0,0.0,0.0,0.0,0.0,0.0,0.0,0.0,0.0,0.0,0.0,0.0,0.0,0.0,0.0,0.0,0.0,0.0,0.0,0.0,0.0,0.0,0.0,0.0,0.0,0.0,0.0,0.0,0.0,0.0,0.0,0.0,0.0,0.0,0.0,0.0,0.0,0.0,0.0,0.0,0.0,0.0,0.0,0.0,0.0,0.0,0.0,0.0,0.0,0.0,0.0,0.0,0.0,0.0,0.0,0.0,0.0,0.0,0.0,0.0,0.0,0.0,0.0,0.0,0.0,0.0,0.0,0.0,0.0,0.0,0.0,0.0,0.0,0.0,0.0,0.0,0.0,0.0,0.0,0.0,0.0,0.0,0.0,0.0,0.0,0.0,0.0,0.0,0.0,0.0,0.0,0.0,0.0,0.0,0.0,0.0,0.0,0.0,0.0,0.0,0.0,0.0,0.0,0.0,0.0,0.0,0.0,0.0,0.0,0.0,0.0,0.0,0.0,0.0,0.0,-2.3443,-2.301,0.0,0.0,0.0,0.0,0.0,0.0,0.0,0.0,0.0,0.0,0.0,0.0,0.0,0.0,0.0,0.0,0.0,0.0,0.0,0.0,0.0,0.0,0.0,0.0,0.0,0.0,0.0,0.0,0.0,0.0,0.0,0.0,0.0,0.0,0.0,0.0,0.0,0.0,0.0,0.0,0.0,0.0,0.0,0.0,0.0,0.0,0.0,0.0,0.0,0.0,0.0,0.0,0.0,0.0,0.0,0.0,0.0,0.0,0.0,0.0,0.0,0.0,0.0,0.0,0.0,0.0,0.0,0.0,0.0,0.0,0.0,0.0,0.0,0.0,0.0,0.0,0.0,0.0,0.0,0.0,0.0,0.0,0.0,0.0,0.0,0.0,0.0,0.0,0.0,0.0,0.0,0.0,0.0,0.0,0.0,0.0,0.0,0.0,0.0,0.0,0.0,0.0,0.0,0.0,0.0,0.0,0.0,0.0,0.0,0.0,0.0,0.0,0.0,0.0,-2.398,-2.3729,0.0,0.0,0.0,0.0,0.0,0.0,0.0,0.0,0.0,0.0,0.0,0.0,0.0,0.0,0.0,0.0,0.0,0.0,0.0,0.0,0.0,0.0,0.0,0.0,0.0,0.0,0.0,0.0,0.0,0.0,0.0,0.0,0.0,0.0,0.0,0.0,0.0,0.0,0.0,0.0,0.0,0.0,0.0,0.0,0.0,0.0,0.0,0.0,0.0,0.0,0.0,0.0,0.0,0.0,0.0,0.0,0.0,0.0,0.0,0.0,0.0,0.0,0.0,0.0,0.0,0.0,0.0,0.0,0.0,0.0,0.0,0.0,0.0,0.0,0.0,0.0,0.0,0.0,0.0,0.0,0.0,0.0,0.0,0.0,0.0,0.0,0.0,0.0,0.0,0.0,0.0,0.0,0.0,0.0,0.0,0.0,0.0,0.0,0.0,0.0,0.0,0.0,0.0,0.0,0.0,0.0,0.0,0.0,-2.4698,-2.4604,-2.448,-2.448,-2.4413,-2.4293,-2.4226,-2.4165,-2.408,-2.396,0.0,0.0,0.0,0.0,0.0,0.0,0.0,0.0,0.0,0.0,0.0,0.0,0.0,0.0,0.0,0.0,0.0,0.0,0.0,0.0,0.0,0.0,0.0,0.0,0.0,0.0,0.0,0.0,0.0,0.0,0.0,0.0,0.0,0.0,0.0,0.0,0.0,0.0,-1.4078,-1.4465,-1.4716,-1.4976,-1.5772,0.0,0.0,0.0,0.0,0.0,0.0,0.0,0.0,0.0,0.0,0.0,0.0,0.0,0.0,0.0,0.0,0.0,0.0,0.0,0.0,0.0,0.0,0.0,0.0,0.0,0.0,0.0,0.0,0.0,0.0,0.0,0.0,0.0,0.0,0.0,0.0,0.0,0.0,0.0,0.0,0.0,0.0,0.0,-2.0578,-2.1302,0.0,0.0,0.0,0.0,0.0,0.0,0.0,0.0,0.0,0.0,0.0,0.0,0.0,-2.5533,-2.5314,-2.4912,-2.4906,-2.5244,-2.5056,-2.5234,-2.5689,-2.5469,-2.5399,-2.5399,-2.5177,0.0,-2.441,-2.4422,0.0,0.0,0.0,0.0,0.0,0.0,0.0,0.0,0.0,0.0,0.0,0.0,0.0,0.0,0.0,0.0,0.0,0.0,0.0,0.0,0.0,0.0,0.0,0.0,0.0,0.0,0.0,0.0,0.0,0.0,0.0,0.0,0.0,0.0,0.0,0.0,-1.4233,-1.3905,-1.3678,-1.3988,-1.4155,-1.4244,-1.5009,-1.5424,-1.5536,-1.5371,0.0,0.0,0.0,0.0,0.0,0.0,0.0,0.0,0.0,0.0,0.0,0.0,0.0,0.0,0.0,0.0,0.0,0.0,0.0,0.0,0.0,0.0,0.0,0.0,0.0,0.0,0.0,0.0,0.0,0.0,0.0,0.0,0.0,0.0,0.0,0.0,0.0,0.0,0.0,-2.018,-2.0865,-2.1627,-2.1977,-2.2194,0.0,0.0,0.0,0.0,0.0,0.0,0.0,0.0,0.0,-2.5641,-2.6074,-2.6128,-2.5703,-2.5507,-2.5456,-2.5473,-2.5322,-2.5305,-2.5535,-2.5465,-2.5453,-2.5465,-2.5312,-2.5109,-2.4835,-2.4893,-2.4905,-2.4753,0.0,0.0,0.0,0.0,-2.244,-2.1786,0.0,0.0,0.0,0.0,0.0,0.0,0.0,0.0,0.0,0.0,0.0,0.0,0.0,0.0,0.0,-1.2881,0.0,0.0,0.0,0.0,0.0,0.0,0.0,0.0,0.0,0.0,0.0,0.0,-1.381,-1.3573,-1.3344,-1.358,-1.3641,-1.3647,-1.4179,-1.4685,-1.509,-1.504,-1.4911,0.0,0.0,0.0,0.0,0.0,0.0,0.0,0.0,0.0,0.0,0.0,0.0,0.0,0.0,0.0,0.0,0.0,0.0,0.0,0.0,0.0,0.0,0.0,0.0,0.0,0.0,0.0,0.0,0.0,0.0,0.0,0.0,0.0,0.0,0.0,0.0,0.0,0.0,-2.0648,-2.1239,-2.2102,-2.2496,-2.2908,0.0,0.0,0.0,0.0,0.0,0.0,-2.5439,-2.6036,-2.6385,-2.6521,-2.6698,-2.6543,-2.6025,-2.5965,-2.5758,-2.5535,-2.5382,-2.5312,-2.5312,-2.5312,-2.5312,-2.5312,-2.5241,-2.5182,-2.5052,-2.5182,-2.504,-2.4754,-2.4562,-2.4116,-2.3446,-2.3075,-2.2478,-2.1807,0.0,0.0,0.0,0.0,0.0,0.0,0.0,0.0,0.0,0.0,0.0,0.0,0.0,0.0,-1.2881,-1.2881,-1.319,-1.3515,0.0,0.0,0.0,0.0,0.0,0.0,0.0,0.0,0.0,-1.381,-1.3563,-1.3334,-1.3133,-1.3153,-1.3224,-1.3311,-1.3443,-1.3811,-1.4336,-1.4489,-1.4419,-1.4249,0.0,0.0,0.0,0.0,0.0,0.0,0.0,0.0,0.0,0.0,0.0,0.0,0.0,0.0,0.0,0.0,0.0,0.0,0.0,0.0,0.0,0.0,0.0,0.0,0.0,0.0,0.0,0.0,0.0,0.0,0.0,0.0,0.0,0.0,0.0,0.0,0.0,0.0,0.0,-2.3352,-2.3282,0.0,0.0,0.0,0.0,-2.567,-2.5778,-2.6077,-2.6701,-2.7298,-2.7449,-2.7173,-2.7328,-2.7136,-2.6377,-2.6082,-2.5688,-2.5312,-2.5312,-2.5312,-2.5312,-2.5312,-2.5312,-2.5312,-2.5182,-2.4981,-2.4861,-2.5052,-2.4683,-2.397,-2.3751,-2.315,-2.2402,-2.2025,-2.1578,-2.1205,0.0,0.0,0.0,0.0,0.0,0.0,0.0,0.0,0.0,0.0,0.0,0.0,0.0,-1.2881,-1.2881,-1.2881,-1.319,-1.3515,-1.3773,0.0,0.0,0.0,0.0,0.0,0.0,0.0,-1.3752,-1.3409,-1.3296,-1.3113,-1.2988,-1.2881,-1.2812,-1.2767,-1.2813,-1.2887,-1.307,-1.36,-1.3683,-1.3381,-1.3155,-1.285,0.0,0.0,0.0,0.0,0.0,0.0,0.0,0.0,0.0,0.0,0.0,0.0,0.0,0.0,0.0,0.0,0.0,0.0,0.0,0.0,0.0,0.0,0.0,0.0,0.0,0.0,0.0,0.0,0.0,0.0,0.0,0.0,0.0,0.0,0.0,0.0,0.0,-2.4217,-2.4661,0.0,-2.5448,-2.5587,-2.5891,-2.6457,-2.6837,-2.7162,-2.7379,-2.8315,-2.8648,-2.8119,-2.832,-2.787,-2.6826,-2.6402,-2.5875,-2.5312,-2.5312,-2.5241,-2.5182,-2.5182,-2.5123,-2.4992,-2.4778,-2.4562,-2.42,-2.4032,-2.374,-2.3446,-2.315,-2.2735,-2.2387,-2.1931,-2.1539,-2.1135,0.0,0.0,0.0,0.0,0.0,0.0,0.0,0.0,0.0,0.0,0.0,-1.2529,-1.2881,-1.2881,-1.2881,-1.2881,-1.319,-1.3467,-1.3716,0.0,0.0,0.0,0.0,0.0,0.0,-1.3847,-1.3478,-1.319,-1.3065,-1.2978,-1.2832,-1.2676,-1.2529,-1.2292,-1.2171,-1.2083,-1.2033,-1.2344,-1.2546,-1.2589,-1.2228,-1.1926,-1.167,0.0,0.0,0.0,0.0,0.0,0.0,0.0,0.0,0.0,0.0,0.0,0.0,0.0,0.0,0.0,0.0,0.0,0.0,0.0,0.0,0.0,0.0,0.0,0.0,0.0,0.0,0.0,0.0,0.0,0.0,0.0,0.0,0.0,0.0,-2.2874,-2.3567,-2.4578,-2.5192,-2.5638,-2.5983,-2.6387,-2.6805,-2.722,-2.7647,-2.7926,-2.8003,-2.8671,-2.8919,-2.8633,-2.8516,-2.8125,-2.7244,-2.6822,-2.619,-2.5445,-2.5362,-2.5302,-2.523,-2.5064,-2.5016,-2.4879,-2.4487,-2.397,-2.3446,-2.3001,-2.2617,-2.2392,-2.2241,-2.1973,-2.1617,-2.1303,-2.0986,-2.0748,0.0,0.0,0.0,0.0,0.0,0.0,0.0,0.0,0.0,0.0,-1.2026,-1.2431,-1.2832,-1.2881,-1.2881,-1.2881,-1.3094,-1.3314,-1.3563,-1.4244,0.0,0.0,0.0,0.0,-1.3967,-1.3457,-1.3142,-1.3085,-1.2929,-1.2832,-1.2676,-1.2529,-1.2234,-1.1863,-1.1548,-1.1388,-1.1324,-1.0827,-1.1016,-1.1677,-1.1365,-1.1115,-1.0926,0.0,0.0,0.0,0.0,0.0,0.0,0.0,0.0,0.0,0.0,0.0,0.0,0.0,0.0,0.0,0.0,0.0,0.0,0.0,0.0,0.0,0.0,0.0,0.0,0.0,0.0,0.0,0.0,0.0,0.0,0.0,0.0,0.0,-2.2431,-2.3056,-2.371,-2.4459,-2.4858,-2.5318,-2.6049,-2.6622,-2.726,-2.8039,-2.8183,-2.8365,-2.8522,-2.8392,-2.8398,-2.8578,-2.8066,-2.7842,-2.7816,-2.7172,-2.6533,-2.5787,-2.5616,-2.553,-2.5433,-2.5025,-2.4903,-2.5101,-2.4249,-2.3372,-2.2628,-2.2025,-2.1262,-2.0644,-2.1011,-2.0799,-2.0284,-2.0048,-1.9882,-1.9882,0.0,0.0,0.0,0.0,0.0,0.0,0.0,0.0,0.0,0.0,-1.1778,-1.2175,-1.2578,-1.2676,-1.2774,-1.2881,-1.3094,-1.3314,-1.3563,0.0,0.0,0.0,0.0,0.0,-1.3457,-1.3045,-1.2764,-1.2676,-1.2529,-1.2382,-1.2274,-1.1927,-1.1668,-1.1469,-1.0923,-1.0692,-1.0702,-1.0074,-0.9786,-0.9779,-1.0091,-1.0028,-0.9716,0.0,0.0,0.0,0.0,0.0,0.0,0.0,0.0,0.0,0.0,0.0,0.0,0.0,0.0,0.0,0.0,0.0,0.0,0.0,0.0,0.0,0.0,0.0,0.0,0.0,0.0,0.0,0.0,0.0,0.0,0.0,-2.2507,-2.3356,-2.3881,-2.4202,-2.4627,-2.5245,-2.5648,-2.597,-2.6312,-2.6742,-2.7074,-2.743,-2.7656,-2.7723,-2.7802,-2.8185,-2.8399,-2.8408,-2.8394,-2.8151,-2.7718,-2.7281,-2.6789,-2.6158,-2.5706,-2.5444,-2.5284,-2.4638,-2.4269,-2.4005,-2.3353,-2.2628,-2.2025,-2.1415,-2.0712,-2.0098,-2.0411,-2.0526,-2.0486,-2.0396,-2.0325,-2.008,0.0,0.0,0.0,0.0,0.0,0.0,0.0,0.0,0.0,0.0,-1.1477,-1.1877,-1.2283,-1.2421,-1.2578,-1.2725,-1.291,-1.3084,-1.3314,0.0,0.0,0.0,0.0,-1.317,-1.2745,-1.251,-1.2274,-1.2175,-1.1968,-1.176,-1.1551,-1.1097,-1.0756,-1.0531,-0.9896,-0.9653,-0.9595,-0.8874,-0.8395,-0.8156,-0.821,-0.8409,-0.8619,-0.849,-0.8445,-0.8506,-0.8601,-0.8727,-0.8981,-0.9149,0.0,0.0,0.0,0.0,0.0,0.0,0.0,0.0,0.0,0.0,0.0,0.0,0.0,0.0,0.0,0.0,0.0,0.0,0.0,0.0,0.0,0.0,0.0,0.0,-2.3109,-2.4035,-2.4732,-2.4859,-2.5045,-2.5417,-2.5746,-2.5955,-2.6082,-2.6427,-2.6701,-2.6824,-2.704,-2.7188,-2.7323,-2.7566,-2.7729,-2.772,-2.7891,-2.7834,-2.7562,-2.7384,-2.6889,-2.6053,-2.5622,-2.5217,-2.4837,-2.4124,-2.3716,-2.3511,-2.2714,-2.1949,-2.1262,-2.0712,-2.0167,-1.9706,0.0,0.0,0.0,0.0,-1.9878,-1.9515,0.0,0.0,0.0,0.0,0.0,0.0,0.0,0.0,0.0,0.0,0.0,-1.1578,-1.1977,-1.2175,-1.2332,-1.2431,-1.2578,-1.2715,0.0,0.0,0.0,-1.3016,-1.2716,-1.2384,-1.1918,-1.1719,-1.1619,-1.146,-1.1091,-1.0779,-1.0509,-1.0022,-0.9555,-0.9203,-0.8549,-0.8274,-0.8151,-0.7414,-0.6953,-0.6715,-0.6191,-0.6588,-0.7442,-0.7442,-0.7326,-0.7179,-0.7373,-0.7601,-0.7862,-0.8192,0.0,0.0,0.0,0.0,0.0,0.0,0.0,0.0,0.0,0.0,0.0,0.0,0.0,0.0,0.0,0.0,0.0,0.0,0.0,0.0,0.0,0.0,0.0,0.0,-2.3523,-2.4192,-2.4941,-2.5058,-2.5111,-2.5241,-2.5453,-2.5535,-2.5535,-2.5886,-2.6151,-2.6289,-2.6508,-2.6645,-2.6837,-2.6645,0.0,0.0,0.0,-2.6968,-2.7221,-2.7275,-2.6724,-2.5592,-2.5404,-2.5,-2.431,-2.3594,-2.323,-2.3229,-2.2203,-2.1262,-2.0489,-2.002,-1.9599,-1.9237,-1.946,-1.9478,-1.9292,-1.9246,-1.9008,-1.862,0.0,0.0,0.0,0.0,0.0,0.0,0.0,0.0,0.0,-1.0368,-1.0667,-1.1023,-1.1418,-1.1778,-1.2026,-1.2175,-1.2274,-1.2304,0.0,0.0,-1.2159,-1.1765,-1.1366,-1.0965,-1.0576,-1.032,-1.0167,-0.9997,-0.957,-0.92,-0.8947,-0.8137,-0.7732,-0.7608,-0.7017,-0.6639,-0.6509,-0.5933,-0.5774,-0.5892,-0.5425,-0.5418,-0.5734,-0.5665,-0.561,-0.5603,-0.5828,-0.6183,-0.6522,-0.6996,-0.7379,-0.7715,-0.7842,0.0,0.0,0.0,0.0,0.0,0.0,0.0,0.0,0.0,0.0,0.0,0.0,0.0,0.0,0.0,0.0,0.0,0.0,0.0,0.0,-2.2029,-2.3097,-2.3883,-2.4355,-2.4544,-2.4796,-2.5088,-2.5241,-2.5382,-2.5382,-2.5606,-2.5746,-2.5746,-2.5816,-2.5816,-2.5886,-2.5664,-2.5695,-2.6032,-2.592,-2.5906,-2.6039,-2.5856,-2.5576,-2.5228,-2.4822,0.0,-2.4158,-2.322,-2.2531,-2.2085,-2.1369,-2.0712,-2.002,-1.9794,-1.9362,-1.8861,-1.9261,-1.9301,-1.9256,-1.877,-1.8529,-1.8299,0.0,0.0,0.0,0.0,0.0,0.0,0.0,0.0,0.0,0.0,-1.036,-1.0726,-1.1074,-1.1427,-1.1669,-1.1778,-1.166,0.0,0.0,-1.0948,-1.0687,-1.0273,-0.9857,-0.9445,-0.894,-0.8731,-0.8462,-0.818,-0.7641,-0.7505,-0.7711,-0.6315,-0.5494,-0.5206,-0.469,-0.4402,-0.4185,-0.3661,-0.3403,-0.3347,-0.3013,-0.2878,-0.2941,-0.4215,-0.459,-0.4455,-0.4224,-0.448,-0.4879,-0.5393,-0.5764,-0.6112,-0.6485,-0.6978,-0.7621,0.0,0.0,0.0,0.0,0.0,0.0,0.0,0.0,0.0,0.0,0.0,0.0,0.0,0.0,-1.8972,0.0,0.0,-2.1494,-2.2469,-2.3078,-2.3551,-2.3948,-2.4248,-2.4591,-2.5028,-2.5182,-2.5241,-2.5312,-2.5324,-2.5324,-2.5324,-2.5265,-2.5206,-2.5206,-2.5123,-2.5099,-2.5154,-2.5168,-2.52,-2.5226,-2.5104,-2.487,-2.447,-2.3985,-2.358,-2.3048,-2.2282,-2.1721,-2.1328,-2.0712,-2.0052,-1.9456,-1.9037,-1.8595,-1.8279,-1.847,-1.8543,-1.8525,-1.802,-1.7739,-1.7432,0.0,0.0,0.0,0.0,0.0,0.0,0.0,0.0,0.0,0.0,-1.0102,-1.047,-1.0769,-1.1023,-1.1167,0.0,0.0,0.0,0.0,-0.9577,-0.9141,-0.8606,-0.8357,-0.7829,-0.7015,-0.6737,-0.6411,-0.5972,-0.5375,-0.5337,-0.5806,-0.4053,-0.3008,-0.2491,-0.2075,-0.1817,-0.1666,-0.1202,-0.0869,-0.0603,-0.0402,-0.0,0.0134,-0.2009,-0.2948,-0.3029,-0.2628,-0.2759,-0.3253,-0.386,-0.4261,-0.4578,-0.5041,-0.5425,-0.5937,-0.6931,-0.7681,0.0,0.0,0.0,0.0,0.0,0.0,0.0,0.0,0.0,-1.7192,-1.8057,-1.9018,-1.9882,-2.0723,-2.1264,-2.1925,-2.2798,-2.3073,-2.3225,-2.3461,-2.3796,-2.4194,-2.4669,-2.4897,-2.5052,-2.5182,-2.5111,-2.5088,-2.5183,-2.4837,-2.4681,-2.4786,-2.462,-2.4418,-2.4273,-2.442,-2.4476,-2.4262,-2.4271,-2.404,-2.3416,-2.3043,-2.2492,-2.1824,-2.1217,-2.0795,-2.0456,-1.985,-1.9275,-1.8787,-1.8164,-1.7852,-1.7685,-1.7456,-1.7347,-1.7282,-1.7147,-1.6824,-1.6392,0.0,0.0,0.0,0.0,0.0,0.0,0.0,0.0,0.0,0.0,0.0,0.0,0.0,0.0,0.0,0.0,0.0,0.0,-0.8541,-0.8165,-0.7576,-0.6758,-0.7036,-0.6431,-0.4634,-0.3963,-0.3465,-0.3085,-0.2538,-0.2094,-0.176,-0.0743,-0.0177,0.0122,0.0567,0.078,0.0868,0.0935,0.1003,0.1139,0.1407,0.2012,0.2755,0.2482,0.1208,-0.0472,-0.0832,-0.1331,-0.2042,-0.2892,-0.3489,-0.3867,-0.363,-0.3929,-0.4528,-0.5417,0.0,-0.7271,-0.8374,-0.9595,-1.072,-1.1688,-1.24,-1.3264,0.0,0.0,-1.7,-1.797,-1.9169,-2.0225,-2.068,-2.1512,-2.2116,-2.2085,-2.2572,-2.2762,-2.2349,-2.2668,-2.3001,-2.3205,-2.4189,-2.4861,-2.4861,-2.4861,-2.505,-2.5413,-2.4734,-2.4457,-2.4883,-2.3976,-2.3457,-2.3446,-2.3268,-2.3003,-2.2628,-2.2681,-2.2454,-2.2032,-2.1803,-2.1339,-2.0741,-2.0311,-1.972,-1.8898,-1.8471,-1.8229,-1.8155,-1.7533,-1.7288,-1.718,-1.618,-1.5614,-1.5576,-1.6057,-1.6003,-1.5487,0.0,0.0,0.0,0.0,0.0,0.0,0.0,0.0,0.0,0.0,0.0,0.0,0.0,0.0,0.0,0.0,0.0,0.0,-0.7385,-0.673,-0.5964,-0.4925,-0.4546,-0.377,-0.2439,-0.1713,-0.1104,-0.0553,0.011,0.0724,0.1361,0.2019,0.2807,0.3695,0.3491,0.3374,0.3332,0.3467,0.3403,0.3209,0.3343,0.3549,0.3823,0.3823,0.3185,0.2101,0.1082,0.0483,0.0,0.0,-0.1447,-0.17,-0.2218,-0.2657,-0.3024,-0.3683,-0.4525,0.0,-0.7363,-0.8586,-0.96,-1.0729,-1.1496,-1.2466,-1.3871,-1.5134,-1.6312,-1.7501,-1.8732,-1.9875,-2.0763,-2.1609,-2.213,0.0,-2.2094,-2.1987,-2.16,-2.1774,-2.1927,-2.2101,-2.2916,-2.3604,-2.4055,-2.42,-2.4281,-2.4402,-2.3937,-2.3682,-2.3798,-2.326,-2.2927,-2.2777,-2.2553,-2.2317,-2.208,-2.1797,-2.1568,-2.1252,-2.0705,-2.0345,-2.0072,-1.937,-1.8713,-1.8156,-1.7642,-1.7469,-1.736,-1.6821,-1.6448,-1.6145,-1.5405,-1.4911,-1.4577,-1.4864,-1.4775,-1.4387,0.0,0.0,0.0,0.0,0.0,0.0,0.0,0.0,0.0,0.0,0.0,0.0,0.0,0.0,0.0,0.0,0.0,0.0,0.0,-0.5773,-0.4776,-0.3337,-0.2111,-0.1055,-0.0222,0.0832,0.1605,0.1991,0.2707,0.3423,0.4225,0.468,0.5516,0.6643,0.6109,0.5807,0.5654,0.5661,0.5467,0.5137,0.5071,0.4945,0.4812,0.471,0.4443,0.3929,0.2701,0.2018,0.0,0.0,0.0421,0.0216,-0.0649,-0.1153,-0.1511,-0.2084,-0.3015,-0.4321,-0.6044,-0.7155,-0.8155,-0.9392,-1.0358,-1.1368,-1.2904,-1.4128,-1.5253,-1.6548,-1.7787,-1.8946,-2.0038,-2.0837,-2.141,-2.1542,-2.1377,-2.1106,-2.0835,-2.0909,-2.1061,-2.1326,-2.1819,-2.2408,-2.3069,-2.3425,-2.3627,-2.3685,-2.3338,-2.3037,-2.2886,-2.2466,-2.2176,-2.2014,-2.1797,-2.1558,-2.1385,-2.0988,-2.0708,-2.0458,-1.9734,-1.9259,-1.9134,-1.8257,-1.7697,-1.7313,-1.6883,-1.6615,-1.6445,-1.5953,-1.5559,-1.5196,-1.4656,-1.4119,-1.3697,-1.3528,-1.3408,-1.341,0.0,0.0,0.0,0.0,0.0,0.0,0.0,0.0,0.0,0.0,0.0,0.0,0.0,0.0,0.0,0.0,0.0,0.0,0.0,-0.5525,-0.4298,-0.195,-0.0167,0.1224,0.2055,0.3901,0.4842,0.4805,0.5303,0.6055,0.6982,0.7274,0.7746,0.841,0.8217,0.8011,0.7897,0.7377,0.6985,0.6793,0.6461,0.6203,0.5994,0.5702,0.5258,0.4744,0.366,0.0,0.0,0.0,0.1677,0.1473,0.1052,0.0631,0.0,-0.0842,-0.217,-0.3443,-0.425,-0.5313,-0.6424,-0.7612,-0.8642,-0.9878,-1.1494,-1.2721,-1.3868,-1.4979,-1.6286,-1.743,-1.8143,-1.9084,-1.972,-1.9907,-2.0188,-2.0211,-1.9938,-2.0186,-2.0497,-2.0893,-2.1271,-2.1609,-2.186,-2.2549,-2.3253,-2.378,-2.316,-2.2673,-2.2507,-2.1737,-2.1118,-2.0944,-2.0712,-2.0566,-2.0342,-1.9947,-1.9583,-1.9345,-1.8695,-1.822,-1.7828,-1.704,-1.6438,-1.6167,-1.5929,-1.5718,-1.5513,-1.5125,-1.4824,-1.4569,-1.3676,-1.3072,-1.2628,-1.204,-1.2131,-1.253,0.0,0.0,0.0,0.0,0.0,0.0,0.0,0.0,0.0,0.0,0.0,0.0,0.0,0.0,0.0,0.0,0.0,0.0,0.0,-0.4229,-0.2841,-0.0837,0.078,0.2171,0.3392,0.4886,0.5873,0.6338,0.709,0.7811,0.8564,0.8832,0.9298,0.9933,0.9684,0.9462,0.9308,0.893,0.8415,0.7967,0.7837,0.7517,0.7125,0.6928,0.6358,0.5532,0.0,0.0,0.0,0.0,0.0,0.2189,0.1804,0.1547,0.1293,0.0264,-0.0815,-0.1825,-0.2808,-0.3542,-0.4265,-0.5391,-0.6431,-0.7585,-0.9096,-1.0233,-1.1332,-1.273,-1.3991,-1.5241,-1.6574,-1.7653,-1.8557,-1.9168,-1.9497,-1.9616,-1.9515,-1.9539,-1.9855,-2.0348,-2.0728,0.0,0.0,-2.2297,-2.2533,-2.232,-2.2009,-2.1718,-2.1251,-2.08,-2.0498,-2.0245,-1.9908,-1.9611,-1.9448,-1.9042,-1.8695,-1.8471,-1.7908,-1.7288,-1.6678,-1.6122,-1.563,-1.5267,-1.4982,-1.4705,-1.4545,-1.4018,-1.3714,-1.3479,-1.2727,-1.2268,-1.1978,-1.16,-1.1506,-1.1519,0.0,0.0,0.0,0.0,0.0,0.0,0.0,0.0,0.0,0.0,0.0,0.0,0.0,0.0,0.0,0.0,0.0,0.0,0.0,0.0,-0.223,-0.0223,0.1896,0.3511,0.4443,0.581,0.695,0.7806,0.8541,0.9323,1.006,1.0238,1.0695,1.1274,1.088,1.0636,1.0485,0.9938,0.9491,0.9,0.8748,0.8366,0.7847,0.751,0.6867,0.0,0.0,0.0,0.0,0.0,0.0,0.3011,0.2707,0.2542,0.2196,0.1343,0.0664,-0.0,-0.0863,-0.154,-0.2182,-0.3347,-0.4357,-0.5292,-0.6662,-0.7811,-0.9025,-1.0427,-1.1718,-1.3105,-1.4622,-1.5756,-1.6714,-1.7809,-1.8258,-1.8556,-1.9011,-1.9152,-1.9457,-2.0033,-2.0251,-2.0604,0.0,0.0,-2.1646,-2.1384,-2.1364,-2.1031,-2.0284,-2.0108,-1.9875,-1.949,-1.9238,-1.8947,-1.8646,-1.8313,-1.7898,-1.7533,-1.7063,-1.6448,-1.585,-1.5488,-1.5054,-1.4617,-1.4201,-1.3912,-1.3745,-1.3197,-1.2924,-1.2684,-1.1983,-1.1613,-1.1397,-1.1223,-1.0929,-1.0817,0.0,0.0,0.0,0.0,0.0,0.0,0.0,0.0,0.0,0.0,0.0,0.0,0.0,0.0,0.0,0.0,0.0,0.0,0.0,0.0,0.0,-0.0112,0.3072,0.4971,0.5261,0.6725,0.7972,0.9033,0.9703,1.0493,1.1411,1.1472,1.1789,1.227,1.1816,1.1547,1.1375,1.0548,1.0166,0.9914,0.9291,0.8661,0.813,0.7482,0.0,0.0,0.0,0.0,0.0,0.0,0.0,0.3861,0.3861,0.3506,0.2951,0.2441,0.2232,0.204,0.1433,0.0653,-0.0296,-0.1509,-0.2344,-0.3167,-0.4142,-0.557,-0.7058,-0.811,-0.958,-1.1044,0.0,0.0,-1.4366,-1.5968,-1.6586,-1.7288,-1.8479,-1.8843,-1.9226,0.0,0.0,0.0,0.0,0.0,-2.068,-2.107,-2.1144,-2.0721,-1.9604,-1.9548,-1.9275,-1.8724,-1.8669,-1.8476,-1.81,-1.7678,-1.7124,-1.6533,-1.6193,-1.585,-1.5426,-1.4982,-1.4553,-1.3985,-1.363,-1.3346,-1.3098,-1.2642,-1.2367,-1.2073,-1.1484,-1.112,-1.0935,-1.0661,-1.0434,-1.034,0.0,0.0,0.0,0.0,0.0,0.0,0.0,0.0,0.0,0.0,0.0,0.0,0.0,0.0,0.0,0.0,0.0,0.0,0.0,0.0,0.0,0.0,0.0,0.0,0.0,0.0,0.0,0.0,0.0,1.0861,1.1455,1.182,1.2084,1.2361,1.197,1.1738,1.1557,1.0927,1.034,0.9821,0.0,0.8871,0.8419,0.0,0.0,0.0,0.0,0.0,0.0,0.0,0.0,0.0,0.433,0.4122,0.3849,0.3722,0.3458,0.3205,0.3389,0.2578,0.1581,0.1172,0.0158,-0.1106,-0.2382,-0.3497,-0.4683,-0.6179,-0.7819,-0.9431,0.0,0.0,0.0,-1.5108,-1.6009,0.0,-1.7853,-1.8273,0.0,-1.9625,0.0,-2.009,-2.0484,-2.0521,0.0,-2.0264,-2.0245,-2.0014,-1.9408,-1.9104,-1.8825,-1.8715,-1.8128,-1.7761,-1.766,-1.7106,-1.6641,-1.6202,-1.57,-1.5133,-1.4561,-1.4057,-1.363,-1.3185,-1.2973,-1.2746,-1.2498,-1.2206,-1.1814,-1.1441,-1.1002,-1.0594,-1.0213,-1.0079,-0.9989,-0.9938,0.0,0.0,0.0,0.0,0.0,0.0,0.0,0.0,0.0,0.0,0.0,0.0,0.0,0.0,0.0,0.0,0.0,0.0,0.0,0.0,0.0,0.0,0.0,0.0,0.0,0.0,0.0,0.0,0.0,0.0,0.0,1.1669,1.1995,1.2057,1.1843,1.1684,1.154,0.0,0.0,0.0,0.0,0.0,0.0,0.0,0.0,0.0,0.0,0.0,0.0,0.0,0.0,0.5107,0.5118,0.5067,0.4938,0.4747,0.0,0.4277,0.4469,0.3826,0.3011,0.2639,0.1668,0.0379,-0.0986,-0.2046,-0.3266,-0.4754,-0.6435,-0.8161,-0.9821,-1.1385,-1.2851,0.0,0.0,0.0,-1.744,-1.8031,-1.8602,0.0,-1.9343,0.0,-1.9705,-1.9567,-1.9448,-1.9402,-1.9732,-1.9742,-1.932,-1.8926,-1.8632,-1.8458,-1.7834,-1.7341,-1.7088,-1.665,-1.6193,-1.5859,-1.5133,-1.4553,-1.4049,-1.3484,-1.3046,-1.2753,-1.2526,-1.2378,-1.2091,-1.1726,-1.1296,-1.0812,-1.0384,-0.9987,-0.9664,-0.9536,-0.9414,-0.935,0.0,0.0,0.0,0.0,0.0,0.0,0.0,0.0,0.0,0.0,0.0,0.0,0.0,0.0,0.0,0.0,0.0,0.0,0.0,0.0,0.0,0.0,0.0,0.0,0.0,0.0,0.0,0.0,0.0,0.0,0.0,0.0,0.0,0.0,0.0,0.0,0.0,0.0,0.0,0.0,0.0,0.0,0.0,0.0,0.0,0.0,0.0,0.0,0.0,0.0,0.5351,0.5864,0.5868,0.5856,0.5803,0.5552,0.5322,0.5119,0.5121,0.4677,0.4014,0.3473,0.2548,0.1455,0.0218,-0.1091,-0.2416,-0.3977,-0.5566,-0.7257,-0.8954,-1.0406,-1.1899,-1.3563,0.0,-1.5756,-1.7114,-1.7925,-1.8523,-1.8922,-1.8806,-1.8715,-1.8715,-1.8357,-1.8265,-1.8614,-1.9292,-1.9558,-1.9246,-1.8843,-1.843,-1.7981,-1.7605,-1.7177,-1.6612,-1.6272,-1.585,-1.5426,-1.4633,-1.4049,-1.3688,-1.3112,-1.2753,-1.2526,-1.2338,-1.2104,-1.185,-1.1348,-1.0857,-1.0309,-0.9734,-0.9361,-0.9145,-0.8888,-0.8765,-0.8635,0.0,0.0,0.0,0.0,0.0,0.0,0.0,0.0,0.0,0.0,-0.8586,0.0,0.0,0.0,0.0,0.0,0.0,0.0,0.0,0.0,0.0,0.0,0.0,0.0,0.0,0.0,0.0,0.0,0.0,0.0,0.0,0.0,0.0,0.0,0.0,0.0,0.0,0.0,0.0,0.0,0.0,0.0,0.0,0.0,0.0,0.0,0.0,0.0,0.0,0.0,0.5306,0.551,0.5608,0.5642,0.5643,0.5782,0.5606,0.5393,0.5607,0.5164,0.4501,0.4188,0.3272,0.211,0.0874,-0.0509,0.0,0.0,-0.5942,-0.7401,-0.903,-1.0636,-1.2145,-1.3279,-1.4631,-1.5839,-1.654,-1.7675,-1.8523,0.0,-1.8728,-1.8715,-1.8715,-1.8357,0.0,-1.8219,-1.8357,-1.855,-1.8806,-1.844,-1.7889,-1.7138,-1.7046,-1.6894,-1.6603,-1.6272,-1.57,-1.4982,-1.4266,-1.3615,-1.3039,-1.2599,-1.2378,-1.2365,-1.2051,-1.1846,-1.1631,-1.114,-1.0511,-0.9783,-0.9415,-0.8865,-0.8366,-0.8052,-0.7927,-0.7862,0.0,0.0,0.0,0.0,0.0,0.0,0.0,0.0,0.0,0.0,-0.8692,-0.858,0.0,0.0,0.0,0.0,0.0,0.0,0.0,0.0,0.0,0.0,0.0,0.0,0.0,0.0,0.3926,0.5124,0.0,0.0,0.0,0.0,0.0,0.0,0.0,0.0,0.0,0.0,0.0,0.0,0.0,0.0,0.0,0.0,0.0,0.0,0.0,0.0,0.0,0.0,0.4797,0.4886,0.546,0.5687,0.5758,0.5891,0.569,0.5572,0.5783,0.5396,0.4801,0.4242,0.3489,0.2445,0.0909,0.0,0.0,0.0,-0.6008,-0.7191,-0.8772,-1.0398,0.0,-1.3082,-1.4418,-1.566,-1.6533,-1.7648,-1.8521,-1.8843,-1.8794,-1.8695,-1.8695,-1.8063,-1.7712,-1.7934,-1.788,-1.7972,-1.8385,-1.8018,-1.7523,-1.6927,-1.6908,-1.676,-1.6473,-1.5991,-1.5346,-1.4553,-1.384,-1.3258,-1.2753,-1.2452,-1.2145,-1.1926,-1.1787,-1.1416,-1.0854,-1.0443,-0.9819,-0.9057,-0.8607,-0.8144,-0.7657,-0.74,-0.7274,-0.7274,0.0,0.0,0.0,0.0,0.0,0.0,0.0,-0.7723,-0.809,-0.858,-0.8896,-0.8949,-0.8784,-0.8533,-0.8168,0.0,0.0,0.0,0.0,0.0,0.0,0.0,0.0,0.0,0.0,0.0,0.0,0.3154,0.4416,0.0,0.0,0.0,0.0,0.0,0.8119,0.0,0.0,0.0,0.0,0.0,0.0,0.0,0.0,0.0,0.0,0.0,0.0,0.0,0.0,0.0,0.4065,0.4082,0.4834,0.5369,0.5657,0.5719,0.5574,0.5567,0.5771,0.5463,0.4954,0.4225,0.3542,0.2533,0.0804,-0.0668,0.0,-0.4789,-0.6058,-0.7198,-0.8873,-1.0272,-1.1695,0.0,-1.439,-1.5659,-1.6684,-1.7952,-1.884,0.0,-1.9077,0.0,-1.8839,-1.7934,0.0,-1.7642,-1.7518,-1.7513,-1.7844,-1.7396,-1.6994,-1.6583,-1.6656,-1.6495,-1.6079,-1.5675,-1.4991,-1.4194,-1.355,-1.2973,-1.2526,-1.2378,-1.2105,-1.1664,-1.1546,-1.0956,-1.0141,-0.9687,-0.9057,-0.8301,-0.7787,-0.74,-0.7073,-0.6881,-0.6815,-0.6749,0.0,0.0,0.0,0.0,0.0,0.0,0.0,-0.7723,-0.809,-0.8699,-0.9008,-0.9211,-0.9309,-0.8956,-0.8646,0.0,0.0,0.0,0.0,0.0,0.0,0.0,0.0,0.0,0.0,0.0,0.0,0.1164,0.2386,0.0,0.0,0.0,0.0,0.0,0.0,0.6563,0.6832,0.0,0.0,0.0,0.0,0.0,0.0,0.0,0.0,0.0,0.0,0.0,0.0,0.0,0.0,0.3033,0.3154,0.394,0.487,0.505,0.0,0.0,0.5414,0.5254,0.4954,0.442,0.3551,0.247,0.0866,0.0,-0.2486,-0.4683,-0.631,-0.7937,-0.976,-1.1011,-1.2215,-1.3447,0.0,-1.6175,-1.6972,-1.8632,-1.9827,-1.9958,0.0,0.0,-1.9277,-1.8446,-1.7745,-1.7292,-1.7093,-1.6972,-1.7018,-1.6506,-1.603,-1.5613,-1.5824,-1.5742,-1.5334,-1.525,-1.4768,-1.3833,-1.3411,-1.29,-1.2305,-1.2305,-1.2211,-1.1937,-1.1282,-1.061,-1.0036,-0.9245,-0.8463,-0.7727,-0.74,-0.7068,-0.6741,-0.6548,-0.642,-0.642,0.0,0.0,0.0,0.0,0.0,0.0,0.0,-0.7771,-0.8143,-0.885,-0.9061,-0.9263,-0.951,-0.9211,-0.8956,0.0,0.0,0.0,0.0,0.0,0.0,0.0,0.0,0.0,0.0,0.0,-0.1447,-0.0611,0.0222,0.0,0.0,0.0,0.0,0.0,0.0,0.498,0.5299,0.0,0.0,0.0,0.0,0.0,0.0,0.0,0.0,0.0,0.0,0.0,0.0,0.0,0.0,0.0,0.1676,0.2101,0.0,0.0,0.4397,0.4631,0.4813,0.4731,0.446,0.3951,0.3095,0.1955,0.0259,0.0,-0.3301,-0.5439,-0.6955,-0.8448,-1.0052,-1.1258,-1.2421,-1.3855,0.0,0.0,-1.7662,-1.9209,-2.0305,-2.0586,-2.0567,0.0,0.0,0.0,-1.8006,-1.6889,-1.6677,-1.634,-1.5845,-1.6005,-1.5864,-1.5319,-1.5191,-1.4939,-1.4597,-1.434,-1.3964,-1.3334,-1.3027,-1.2673,-1.2305,-1.215,-1.1838,-1.1367,-1.0688,-0.9955,-0.9111,-0.8448,-0.7797,-0.7209,-0.7007,-0.6741,-0.6482,-0.6416,-0.642,-0.642,0.0,0.0,0.0,0.0,0.0,0.0,-0.7836,-0.799,-0.8302,-0.8903,-0.9159,-0.9361,-0.9562,-0.9361,-0.9113,-0.8956,0.0,0.0,0.0,0.0,0.0,0.0,0.0,0.0,0.0,0.0,-0.301,-0.2338,-0.1668,-0.0945,0.0,0.0,0.1554,0.194,0.0,0.0,0.0,0.0,0.0,0.0,0.0,0.0,0.0,0.0,0.0,0.0,0.0,0.0,0.0,0.0,0.0,0.0,0.0,0.0,0.0,0.0,0.337,0.3821,0.3999,0.4154,0.4067,0.3263,0.238,0.128,0.0,0.0,-0.4313,-0.6382,-0.7896,-0.9244,-1.0766,-1.1881,-1.3099,0.0,0.0,-1.751,-1.8838,-2.0161,-2.1097,-2.1463,0.0,-2.1274,-2.0884,-1.9456,-1.8055,-1.6855,-1.6392,-1.5891,-1.5139,-1.5441,-1.5373,-1.4789,-1.4491,-1.4154,-1.3819,-1.3537,-1.3212,-1.2868,-1.268,-1.2405,-1.2105,-1.1879,-1.1433,-1.0722,-1.0107,-0.928,-0.8441,-0.788,-0.7335,-0.6811,-0.6741,-0.6544,-0.642,-0.642,-0.635,-0.635,0.0,0.0,0.0,0.0,0.0,0.0,0.0,-0.8421,-0.8685,-0.8956,-0.9211,-0.9465,-0.9562,-0.9361,-0.9211,-0.9211,0.0,0.0,0.0,0.0,0.0,0.0,0.0,0.0,0.0,0.0,0.0,-0.395,-0.3226,-0.2617,-0.2174,-0.1393,-0.0835,-0.0334,0.0,0.0,0.0,0.0,0.0,0.0,0.0,0.0,0.0,0.0,0.0,0.0,0.0,0.0,0.0,0.0,0.0,0.0,0.0,0.0,0.0,0.0,0.1999,0.2759,0.2936,0.3735,0.4136,0.2519,0.1499,0.0354,0.0,-0.3593,-0.5457,-0.7368,-0.9095,-1.0613,-1.2012,-1.3235,-1.4561,-1.6267,-1.7528,0.0,-2.0445,-2.1607,-2.2392,0.0,0.0,-2.2339,-2.1672,-1.9359,-1.767,-1.7156,-1.6383,-1.5651,-1.512,-1.4782,-1.4356,-1.3847,-1.3522,-1.3204,-1.2827,-1.296,-1.2868,-1.2523,-1.2601,-1.2224,-1.1585,-1.1449,-1.0935,-1.0095,-0.944,-0.8794,-0.8097,-0.7678,-0.7195,-0.6675,-0.6675,-0.6544,-0.642,-0.642,-0.635,-0.6214,0.0,0.0,0.0,0.0,0.0,0.0,0.0,-0.8798,-0.9001,-0.9361,-0.9465,-0.9621,-0.9836,-0.974,-0.9577,-0.9465,0.0,0.0,0.0,0.0,0.0,0.0,0.0,0.0,0.0,0.0,0.0,-0.5218,-0.4882,-0.444,-0.3895,-0.3448,-0.2837,-0.2112,-0.1893,-0.1393,0.0,0.0,0.0,0.0,0.0,0.0,0.0,0.0,0.0,0.0,0.0,0.0,0.0,0.0,0.0,0.0,0.0,0.0,0.0,0.0,0.0,0.0,0.0338,0.0568,0.063,-0.0057,-0.1021,-0.2208,-0.3735,-0.5483,-0.7299,-0.9059,-1.0567,-1.2028,-1.3451,-1.4523,-1.578,-1.7466,-1.8787,0.0,0.0,0.0,0.0,-2.3256,-2.2763,-2.2127,-2.1183,-1.9565,-1.813,-1.7135,-1.6201,-1.5411,-1.4879,-1.443,-1.4004,-1.364,-1.2956,-1.2461,-1.2092,-1.1861,-1.1741,-1.1606,-1.1639,-1.1453,-1.1083,-1.0728,-1.0259,-0.9678,-0.8822,-0.818,-0.7686,-0.7149,-0.6741,-0.6482,-0.6482,-0.6482,-0.6416,-0.628,-0.6148,-0.5954,0.0,0.0,0.0,0.0,0.0,0.0,0.0,-0.9159,-0.9309,-0.9562,-0.9777,-0.994,-1.0102,-0.9999,-0.994,-0.9829,0.0,0.0,0.0,0.0,0.0,0.0,0.0,0.0,0.0,-0.6972,-0.6701,-0.6367,-0.6145,-0.5814,-0.5324,-0.4944,-0.4446,-0.3724,-0.3564,-0.3176,0.0,0.0,0.0,0.0,0.0,0.0,-0.4155,0.0,0.0,0.0,0.0,0.0,0.0,0.0,0.0,0.0,0.0,0.0,0.0,0.0,-0.5247,-0.3558,0.0,-0.2762,-0.3264,-0.3427,-0.4303,0.0,-0.5958,-0.7507,-0.9266,-1.0755,-1.2225,-1.3656,-1.4915,-1.5955,-1.7186,-1.8988,-2.007,0.0,0.0,0.0,0.0,-2.4107,-2.3122,0.0,-2.1222,-1.9666,-1.8243,-1.7103,-1.6064,-1.5286,-1.4666,-1.4181,-1.3761,-1.3338,-1.2605,-1.205,-1.1747,-1.136,-1.112,-1.0989,-1.1086,-1.0829,-1.0449,-0.989,-0.936,-0.8869,-0.8115,-0.7588,0.0,-0.678,-0.6444,-0.6181,-0.6177,-0.6129,-0.612,-0.5925,-0.5767,-0.5554,0.0,0.0,0.0,0.0,0.0,0.0,0.0,0.0,0.0,0.0,-1.0051,-1.0368,-1.0368,-1.0308,-1.03,0.0,0.0,0.0,0.0,0.0,0.0,0.0,0.0,0.0,0.0,-0.7777,-0.767,-0.7396,-0.7122,-0.6848,-0.6519,-0.6095,-0.566,-0.5214,-0.5058,-0.4783,0.0,0.0,0.0,0.0,0.0,0.0,0.0,0.0,0.0,0.0,0.0,0.0,0.0,0.0,0.0,0.0,0.0,0.0,0.0,0.0,0.0,0.0,0.0,-0.618,-0.7231,-0.7155,-0.7919,0.0,-0.8377,-0.9608,0.0,-1.235,-1.3969,-1.5466,-1.6306,-1.7357,-1.874,-2.0685,-2.143,0.0,0.0,-2.5196,0.0,0.0,-2.3683,-2.2342,-2.1687,-1.9738,-1.8049,-1.7113,-1.6056,-1.5177,-1.4529,-1.4061,-1.3528,-1.305,-1.2359,-1.1864,-1.156,-1.1145,-1.0896,-1.0699,-1.0763,-1.0399,-0.9597,-0.9059,-0.8403,-0.7618,-0.7293,-0.6963,-0.6624,-0.6455,-0.6132,-0.5864,-0.5701,-0.5674,-0.5624,-0.5385,-0.5223,-0.4942,0.0,0.0,0.0,0.0,0.0,0.0,0.0,0.0,0.0,0.0,-1.0616,-1.0871,-1.1175,-1.1217,-1.1167,0.0,0.0,0.0,0.0,0.0,0.0,0.0,0.0,0.0,0.0,-0.8586,-0.8474,-0.8302,-0.8249,-0.7978,-0.7551,-0.7337,-0.6961,-0.647,-0.6258,0.0,0.0,0.0,0.0,0.0,0.0,0.0,0.0,0.0,0.0,0.0,-0.8389,-0.8547,0.0,0.0,0.0,0.0,0.0,0.0,0.0,0.0,-1.0906,-1.0739,-1.0288,0.0,-0.8364,-0.8554,-0.9231,-0.9959,0.0,-1.1421,-1.281,-1.3975,0.0,0.0,-1.7858,-1.8744,-1.985,-2.1735,0.0,-2.3122,-2.4791,-2.5165,0.0,-2.5494,-2.4191,-2.3015,-2.2201,-2.0301,-1.8669,-1.7621,-1.629,-1.5294,-1.4715,-1.4121,-1.3528,-1.305,-1.2236,-1.1677,-1.1373,-1.0939,-1.0597,-1.0405,-1.0005,-0.9502,-0.8931,-0.818,-0.7558,-0.7045,-0.6555,-0.6252,-0.6068,-0.59,-0.564,-0.5391,-0.535,-0.5179,-0.4979,-0.4839,-0.4516,-0.4167,0.0,0.0,0.0,0.0,0.0,0.0,0.0,0.0,0.0,0.0,0.0,0.0,0.0,0.0,0.0,0.0,0.0,0.0,0.0,0.0,0.0,0.0,0.0,0.0,0.0,-0.9361,-0.9302,-0.9242,-0.9197,-0.8935,-0.856,-0.8461,-0.809,-0.7557,-0.7385,0.0,0.0,0.0,0.0,0.0,-0.9218,0.0,0.0,0.0,0.0,0.0,-0.9791,-0.9894,0.0,-1.0661,-1.1065,-1.1416,0.0,0.0,0.0,0.0,-1.2792,-1.283,-1.2936,-1.1626,-1.0277,-1.0622,-1.113,-1.1733,-1.2241,0.0,0.0,0.0,0.0,0.0,0.0,0.0,0.0,0.0,-2.3239,0.0,0.0,0.0,-2.6048,-2.6048,-2.4542,-2.3189,-2.2446,-2.0496,-1.8771,-1.7652,-1.6467,-1.5468,-1.4647,-1.3992,-1.3338,-1.2674,-1.2058,-1.156,-1.1303,-1.0744,-1.0301,-0.9913,-0.946,-0.888,-0.814,-0.7519,-0.6969,-0.6538,-0.6117,-0.588,-0.5755,-0.5374,-0.5106,-0.4858,-0.4552,-0.4392,-0.4219,-0.3986,-0.3768,-0.3482,0.0,0.0,0.0,0.0,0.0,0.0,0.0,0.0,0.0,0.0,0.0,0.0,0.0,0.0,0.0,0.0,0.0,0.0,0.0,0.0,0.0,0.0,0.0,-1.0174,-1.0123,-1.0123,-1.0123,-1.0123,-1.002,-0.9821,-0.9569,-0.942,-0.9106,-0.8633,-0.85,-0.8672,0.0,0.0,-1.0158,-1.0933,-1.0793,0.0,0.0,0.0,0.0,0.0,0.0,0.0,0.0,-1.1904,-1.2307,-1.2754,-1.3399,0.0,0.0,0.0,0.0,0.0,-1.4607,-1.3695,-1.2725,-1.2898,-1.3195,-1.3564,-1.4089,0.0,0.0,0.0,0.0,0.0,0.0,-2.093,0.0,0.0,0.0,0.0,-2.6663,-2.6945,-2.6806,-2.6413,-2.4598,-2.3068,-2.2365,-2.0441,-1.8738,-1.7545,-1.6606,-1.5642,-1.4529,-1.3872,-1.3147,-1.2305,-1.1809,-1.1435,-1.1178,-1.0555,-0.9977,-0.9454,-0.9041,-0.8323,-0.7417,-0.694,-0.645,-0.5914,-0.568,-0.5501,-0.543,-0.4824,-0.448,-0.4234,-0.3722,-0.3462,-0.3379,-0.3107,-0.2978,-0.2925,0.0,0.0,0.0,0.0,0.0,0.0,0.0,0.0,0.0,0.0,0.0,0.0,0.0,0.0,0.0,0.0,0.0,0.0,0.0,0.0,0.0,0.0,-1.1217,-1.0863,-1.0761,-1.0761,-1.0761,-1.0761,-1.0761,-1.0557,-1.0241,-1.0249,-0.9976,-0.9621,-0.9899,-1.0186,-1.0524,-1.1295,-1.1952,-1.2353,-1.2351,0.0,0.0,0.0,0.0,0.0,0.0,0.0,0.0,-1.3082,-1.3532,-1.3873,-1.449,0.0,0.0,0.0,0.0,0.0,-1.6102,-1.6034,-1.566,-1.479,-1.4812,-1.5141,-1.5454,0.0,0.0,0.0,0.0,0.0,0.0,-2.1746,-2.2387,0.0,0.0,-2.639,0.0,-2.6601,-2.6254,-2.5331,-2.4285,-2.318,-2.1981,-2.0371,-1.8886,-1.7633,-1.6652,-1.5642,-1.4529,-1.3872,-1.3147,-1.2305,-1.1809,-1.1247,-1.0428,-1.0174,-0.9792,-0.9332,-0.8537,-0.7757,-0.694,-0.6234,-0.5653,-0.5258,-0.4983,-0.4706,-0.4422,-0.4061,-0.3713,-0.3322,-0.3079,-0.286,-0.2661,-0.2679,-0.2486,-0.2225,0.0,0.0,0.0,0.0,0.0,0.0,0.0,0.0,0.0,0.0,0.0,0.0,0.0,0.0,0.0,0.0,0.0,0.0,0.0,0.0,0.0,0.0,-1.2295,-1.195,-1.1578,-1.1528,-1.1528,-1.1528,-1.1477,-1.1318,-1.1116,-1.0863,-1.0808,-1.0934,-1.1104,-1.1453,-1.1978,-1.2641,-1.3268,-1.3875,0.0,0.0,0.0,0.0,0.0,0.0,0.0,0.0,0.0,0.0,-1.4514,-1.4846,-1.5412,0.0,0.0,0.0,0.0,0.0,-1.7146,-1.7353,-1.7368,-1.6789,-1.6434,-1.6299,-1.6527,0.0,0.0,0.0,0.0,0.0,0.0,0.0,-2.2955,-2.4646,0.0,-2.71,-2.6893,-2.6736,-2.6227,-2.5127,-2.4107,-2.2997,-2.172,-2.0177,-1.8792,-1.7589,-1.6419,-1.5286,-1.4148,-1.3246,-1.2471,-1.1775,-1.1297,-1.0698,-0.9843,-0.9594,-0.9203,-0.8617,-0.7871,-0.7096,-0.6258,-0.5711,-0.5235,-0.4853,-0.4467,-0.4245,-0.4024,-0.3519,-0.3183,-0.2961,-0.2571,-0.235,-0.2249,-0.2209,-0.2118,-0.2012,0.0,0.0,0.0,0.0,0.0,0.0,0.0,0.0,0.0,0.0,0.0,0.0,0.0,0.0,0.0,0.0,0.0,0.0,0.0,0.0,-1.3351,-1.3256,-1.3208,-1.288,-1.2274,-1.2283,-1.2283,-1.2283,-1.2175,-1.1977,-1.1828,-1.1469,-1.1627,-1.2088,-1.2228,-1.2654,-1.3267,-1.3857,-1.4453,-1.5107,0.0,0.0,0.0,0.0,0.0,0.0,0.0,0.0,0.0,0.0,0.0,0.0,0.0,0.0,0.0,-1.7269,-1.7639,-1.7948,-1.8068,-1.8344,-1.85,-1.8355,0.0,-1.7325,-1.7421,0.0,0.0,0.0,0.0,0.0,0.0,-2.3065,0.0,-2.4852,-2.6217,-2.7011,-2.6724,-2.6352,-2.573,-2.4573,-2.3543,-2.2417,-2.1147,-1.9788,-1.8466,-1.7269,-1.6045,-1.4818,-1.3575,-1.2608,-1.1793,-1.1182,-1.0668,-1.0023,-0.9231,-0.8849,-0.8468,-0.7907,-0.7298,-0.654,-0.5619,-0.5128,-0.4741,-0.4356,-0.391,-0.3744,-0.3633,-0.3019,-0.2738,-0.2627,-0.2127,-0.1959,-0.1909,-0.1843,-0.1803,-0.1753,0.0,0.0,0.0,0.0,0.0,0.0,0.0,0.0,0.0,0.0,0.0,0.0,0.0,0.0,0.0,0.0,0.0,0.0,0.0,0.0,-1.3931,-1.392,-1.38,-1.344,-1.2881,-1.2832,-1.2832,-1.2832,-1.2735,-1.2529,-1.2274,-1.2076,-1.2236,-1.2681,-1.3155,-1.3717,-1.4364,-1.5099,-1.5573,-1.584,-1.5959,0.0,0.0,0.0,0.0,0.0,0.0,0.0,0.0,0.0,0.0,0.0,0.0,0.0,-1.7432,-1.7841,-1.8226,-1.8592,-1.8898,-1.9139,-1.9265,-1.9064,-1.8616,0.0,-1.8226,-1.8226,0.0,-2.0468,0.0,0.0,0.0,-2.3881,-2.4385,-2.4382,-2.5052,-2.5449,-2.5126,-2.4718,-2.4063,-2.2898,-2.2146,-2.1225,-2.0015,-1.8951,-1.7821,-1.6568,-1.5475,-1.4304,-1.3021,-1.2248,-1.1455,-1.0681,-1.0125,-0.9425,-0.8471,-0.7994,-0.7772,-0.7702,-0.6855,-0.6061,-0.531,-0.4495,-0.3866,-0.3469,-0.313,-0.291,-0.2747,-0.2408,-0.2183,-0.2071,-0.1908,-0.174,-0.1628,-0.1633,-0.1521,-0.1357,0.0,0.0,0.0,0.0,0.0,0.0,0.0,0.0,0.0,0.0,0.0,0.0,0.0,0.0,0.0,0.0,0.0,0.0,0.0,0.0,-1.449,-1.4373,-1.4525,-1.4446,-1.4143,-1.3908,-1.3628,-1.3344,-1.3142,-1.2939,-1.2735,-1.2618,-1.2838,-1.3301,-1.3936,-1.4528,-1.5195,-1.5976,-1.6513,-1.6719,-1.6994,-1.6662,0.0,0.0,0.0,0.0,0.0,0.0,0.0,0.0,-1.6565,-1.6778,0.0,-1.7432,-1.7801,-1.8189,-1.863,-1.9035,-1.9213,-1.945,-1.9596,-1.945,-1.9288,0.0,0.0,-1.8884,-1.9319,-2.0548,-2.0818,0.0,0.0,0.0,-2.3985,-2.4371,-2.487,-2.5125,-2.4834,-2.3971,-2.295,-2.1866,-2.0723,-1.9585,-1.8375,-1.7459,-1.6491,-1.5479,-1.4304,-1.3199,-1.2109,-1.1062,-1.0285,-0.9603,-0.8978,-0.8293,-0.7673,-0.721,-0.6701,-0.6208,-0.5819,-0.5288,-0.4576,-0.3901,-0.3469,-0.3188,-0.2798,-0.2633,-0.2521,-0.213,-0.1906,-0.185,-0.1684,-0.1572,-0.1515,-0.1459,-0.1347,-0.1293,0.0,0.0,0.0,0.0,0.0,0.0,0.0,0.0,0.0,0.0,0.0,0.0,0.0,0.0,0.0,0.0,0.0,0.0,0.0,-1.4926,-1.4971,-1.4754,-1.5082,-1.5191,-1.5094,-1.49,-1.4492,-1.3972,-1.3577,-1.3314,-1.317,-1.3142,-1.3381,-1.3861,-1.4368,-1.4955,-1.5614,-1.6277,-1.6732,-1.7003,-1.7326,-1.7128,0.0,0.0,0.0,0.0,0.0,0.0,0.0,0.0,-1.6876,0.0,0.0,0.0,0.0,-1.8464,-1.8898,-1.931,-1.9472,-1.9705,-1.9848,0.0,0.0,0.0,-1.953,-1.9479,-1.9766,-2.064,-2.1031,0.0,-2.232,0.0,0.0,-2.3378,-2.3642,-2.3644,-2.3349,-2.2418,-2.1418,-2.0478,-1.9336,-1.8167,-1.7107,-1.6177,-1.5245,-1.4324,-1.3157,-1.207,-1.1015,-0.9986,-0.9123,-0.8519,-0.7779,-0.7167,-0.6674,-0.6203,-0.5611,-0.4903,-0.466,-0.4321,-0.386,-0.3261,-0.2854,-0.2631,-0.224,-0.213,-0.2186,-0.1852,-0.1685,-0.1628,-0.1347,-0.1178,-0.1122,-0.101,-0.0954,-0.0898,0.0,0.0,0.0,0.0,0.0,0.0,0.0,0.0,0.0,0.0,0.0,0.0,0.0,0.0,0.0,0.0,0.0,0.0,0.0,-1.521,-1.5267,-1.5108,-1.5366,-1.5482,-1.5482,-1.5675,-1.5423,-1.468,-1.4079,-1.3716,-1.3621,-1.361,-1.3859,-1.4304,-1.4591,-1.4985,-1.5526,-1.5935,-1.6249,-1.6539,-1.6787,-1.7034,-1.7182,0.0,0.0,0.0,0.0,0.0,0.0,0.0,-1.7044,-1.724,0.0,0.0,0.0,-1.863,-1.9064,-1.945,-1.9726,-1.9884,-2.0005,0.0,0.0,0.0,-2.0304,-2.0065,-2.0056,-2.092,-2.1606,-2.2017,-2.1847,-2.1744,0.0,-2.1263,-2.1032,-2.074,-2.0258,-1.9795,-1.9248,-1.8681,-1.7917,-1.7181,-1.6355,-1.5225,-1.4116,-1.3086,-1.207,-1.0963,-0.9829,-0.904,-0.8249,-0.7492,-0.6682,-0.6059,-0.5608,-0.5076,-0.4537,-0.4106,-0.3404,-0.3112,-0.3168,-0.2499,-0.1962,-0.1572,-0.1403,-0.1347,-0.1515,-0.1515,-0.1403,-0.1234,-0.0785,-0.0449,-0.028,-0.0224,-0.0112,-0.0,0.0,0.0,0.0,0.0,0.0,0.0,0.0,0.0,0.0,0.0,0.0,0.0,0.0,0.0,0.0,0.0,0.0,0.0,0.0,-1.5614,-1.5614,-1.5537,-1.6078,-1.6259,-1.5866,-1.5822,-1.5541,-1.4996,-1.4471,-1.4186,-1.414,-1.4244,-1.4414,-1.4602,-1.5123,-1.5598,-1.601,-1.6489,-1.6886,-1.7242,-1.7376,-1.7302,-1.7115,0.0,0.0,0.0,0.0,0.0,0.0,0.0,0.0,0.0,0.0,0.0,0.0,-1.8539,-1.8988,-1.9376,-1.9487,-1.9654,0.0,-1.9797,0.0,0.0,0.0,-2.0342,0.0,0.0,-2.0751,-2.0916,-2.1205,-2.103,-2.0907,-2.1082,-2.0824,-2.0486,-2.0041,-1.9078,-1.8137,-1.7485,-1.6301,-1.5182,-1.435,-1.3372,-1.2415,-1.1498,-1.0633,-0.9754,-0.881,-0.7966,-0.7171,-0.6308,-0.5546,-0.4912,-0.4356,-0.4008,-0.367,-0.3298,-0.2843,-0.2786,-0.3015,-0.2419,-0.1962,-0.1741,-0.1403,-0.1122,-0.0842,-0.0673,-0.0505,-0.0393,-0.0224,-0.0056,0.0168,0.0449,0.0617,0.0617,0.0,0.0,0.0,0.0,0.0,0.0,0.0,0.0,0.0,0.0,0.0,0.0,0.0,0.0,0.0,0.0,0.0,0.0,0.0,0.0,-1.6041,-1.6137,-1.6705,-1.6855,-1.6406,-1.6112,-1.5726,-1.5238,-1.4888,-1.4708,-1.4754,-1.4846,-1.4937,-1.5028,-1.5418,-1.5788,-1.6135,-1.649,-1.6821,-1.7205,-1.7285,-1.7314,-1.7325,0.0,0.0,0.0,0.0,0.0,0.0,0.0,0.0,0.0,0.0,0.0,0.0,-1.845,-1.8836,-1.9205,-1.9339,-1.9508,0.0,-1.9797,-2.0045,-2.0357,-2.0695,0.0,0.0,0.0,-2.0527,-2.0497,-2.063,-2.0399,-2.0249,-2.0298,-1.9981,-1.9516,-1.9012,-1.8034,-1.7074,-1.6269,-1.5108,-1.3946,-1.288,-1.1904,-1.1007,-1.0092,-0.9273,-0.8435,-0.7522,-0.6725,-0.6036,-0.5395,-0.4625,-0.4076,-0.3749,-0.3021,-0.2517,-0.2296,-0.1792,-0.1613,-0.1814,-0.1503,-0.1288,-0.1066,-0.0898,-0.0561,-0.0224,0.0112,0.028,0.0336,0.0336,0.0449,0.0561,0.0785,0.0954,0.0955,0.0,0.0,0.0,0.0,0.0,0.0,0.0,0.0,0.0,0.0,0.0,0.0,0.0,0.0,0.0,0.0,0.0,0.0,0.0,0.0,-1.6653,-1.6932,-1.729,-1.7387,-1.7178,-1.6622,-1.6102,-1.5674,-1.5312,-1.5198,-1.5345,-1.5357,-1.5435,-1.5591,0.0,-1.5812,-1.6088,-1.6188,-1.6417,-1.6718,-1.6718,-1.7109,-1.7593,-1.7123,0.0,0.0,0.0,0.0,0.0,0.0,0.0,0.0,0.0,0.0,-1.7963,-1.8361,-1.8711,-1.8993,-1.9191,0.0,0.0,-1.9919,-2.027,0.0,-2.1103,-2.1183,-2.1087,-2.086,0.0,-2.061,-2.022,-1.9975,-1.9654,-1.9213,-1.8745,-1.8226,-1.7544,-1.6837,-1.6008,-1.505,-1.4122,-1.3024,-1.1697,-1.0704,-0.9732,-0.8633,-0.79,-0.7047,-0.6136,-0.532,-0.4783,-0.4463,-0.3735,-0.3347,-0.3297,-0.2006,-0.1222,-0.0996,-0.039,-0.0,0.0106,-0.011,-0.0112,0.0112,0.0112,0.0224,0.0449,0.0785,0.0954,0.0954,0.0954,0.0954,0.0954,0.0954,0.1011,0.1188,0.0,0.0,0.0,0.0,0.0,0.0,0.0,0.0,0.0,0.0,0.0,0.0,0.0,0.0,0.0,0.0,0.0,0.0,0.0,0.0,-1.8234,-1.8211,-1.8091,-1.8223,-1.8549,-1.7654,-1.7095,-1.697,-1.5972,-1.5534,0.0,0.0,0.0,-1.6151,0.0,-1.6392,-1.6547,-1.659,-1.6718,-1.6918,-1.6918,-1.7067,-1.7284,-1.7041,-1.7037,0.0,0.0,0.0,0.0,0.0,0.0,0.0,-1.7391,-1.7556,-1.7801,-1.8163,-1.8439,-1.8673,-1.8979,-1.9242,0.0,0.0,-2.0444,-2.1103,-2.1309,-2.1526,-2.1556,-2.1199,-2.099,-2.0778,-2.0494,-2.015,-1.9812,-1.9258,-1.8731,-1.8014,-1.7092,-1.6089,-1.4993,-1.3716,-1.2551,-1.1364,-0.9995,-0.8978,-0.7988,-0.686,-0.6171,-0.5651,-0.5293,-0.4061,-0.3058,-0.245,-0.174,-0.1234,-0.0858,-0.0322,0.0106,0.0463,0.0636,0.1159,0.1839,0.0872,0.0617,0.101,0.1122,0.1178,0.1234,0.1234,0.1234,0.1234,0.1234,0.1234,0.1234,0.1234,0.1368,0.1573,0.0,0.0,0.0,0.0,0.0,0.0,0.0,0.0,0.0,0.0,0.0,0.0,0.0,0.0,0.0,0.0,0.0,0.0,0.0,0.0,0.0,0.0,-1.8904,-1.8887,-1.9179,-1.8088,-1.7517,-1.7517,-1.6654,0.0,0.0,0.0,0.0,-1.6595,0.0,-1.6748,-1.6846,-1.6846,-1.6918,-1.7115,-1.7115,-1.7157,-1.7199,-1.7115,-1.7115,-1.7073,-1.7086,0.0,0.0,0.0,0.0,0.0,0.0,0.0,-1.7666,-1.8016,-1.8307,-1.8556,-1.8917,0.0,0.0,-2.0154,0.0,-2.134,-2.154,-2.1797,-2.1915,-2.1691,-2.1401,-2.1119,-2.0795,-2.0478,-2.0015,-1.9376,-1.8574,-1.7653,-1.6536,-1.5239,-1.3803,-1.2319,-1.0972,-0.9599,-0.8155,-0.7052,-0.5927,-0.4787,-0.4084,-0.3545,-0.306,-0.2001,-0.1113,-0.0502,-0.0054,0.053,0.1327,0.1461,0.1741,0.2109,0.1997,0.2252,0.272,0.1626,0.1228,0.1389,0.155,0.1617,0.1695,0.1695,0.1712,0.1737,0.1737,0.1737,0.1737,0.1737,0.1888,0.2122,0.0,0.0,0.0,0.0,0.0,0.0,0.0,0.0,0.0,0.0,0.0,0.0,0.0,0.0,0.0,0.0,0.0,0.0,0.0,0.0,0.0,0.0,-1.97,-1.9639,-1.9639,-1.8588,-1.8061,-1.8061,0.0,0.0,0.0,0.0,0.0,-1.696,0.0,-1.696,-1.7044,-1.7044,-1.7128,-1.7253,-1.724,-1.724,-1.724,-1.724,-1.7199,-1.7199,-1.7199,-1.7199,-1.7199,-1.7199,0.0,0.0,0.0,0.0,-1.7557,-1.7882,-1.8175,-1.8517,-1.8841,0.0,-1.9818,-2.0512,-2.1039,0.0,-2.1738,-2.202,-2.2192,-2.2169,-2.1836,-2.1477,-2.1197,-2.0812,-2.0246,-1.9441,-1.8324,-1.7083,-1.5676,-1.3982,-1.2397,-1.1006,-0.927,-0.7536,-0.6012,-0.4768,-0.3629,-0.2481,-0.1812,-0.1152,-0.0441,0.0219,0.0875,0.1426,0.1534,0.2084,0.3056,0.3102,0.329,0.3584,0.336,0.3297,0.3398,0.2516,0.199,0.1766,0.1866,0.1949,0.2055,0.2174,0.227,0.233,0.2345,0.235,0.235,0.235,0.2516,0.2779,0.0,0.0,0.0,0.0,0.0,0.0,0.0,0.0,0.0,0.0,0.0,0.0,0.0,0.0,0.0,0.0,0.0,0.0,-2.1254,0.0,0.0,-2.0828,-2.0631,-2.0544,-2.0544,-1.9856,-1.953,-1.953,0.0,0.0,0.0,0.0,0.0,-1.7157,0.0,0.0,-1.7199,-1.7308,-1.7363,-1.7391,-1.7447,-1.7419,-1.735,-1.735,-1.7308,-1.7199,-1.7199,-1.7199,-1.7199,-1.7199,-1.7199,0.0,0.0,0.0,-1.7516,-1.7706,-1.7963,-1.8282,0.0,0.0,-1.966,0.0,-2.0763,-2.1293,0.0,0.0,-2.231,0.0,-2.213,-2.1882,-2.1721,-2.1118,-2.04,-1.9525,-1.782,-1.5966,-1.4067,-1.1879,-1.0319,-0.9851,-0.7052,-0.4588,-0.3014,-0.1866,-0.077,0.0441,0.07,0.1007,0.1592,0.1907,0.2587,0.3619,0.3426,0.3456,0.3833,0.4038,0.4153,0.4247,0.4369,0.4333,0.424,0.4058,0.3522,0.2713,0.2713,0.2675,0.2596,0.2726,0.2819,0.2841,0.2929,0.2963,0.2963,0.2963,0.3142,0.3426,0.0,0.0,0.0,0.0,0.0,0.0,0.0,0.0,0.0,0.0,0.0,0.0,0.0,0.0,0.0,-2.0373,-2.0387,-2.0745,-2.1534,-2.1375,-2.1144,-2.0974,-2.0875,-2.0775,-2.0699,-2.01,-1.9799,0.0,0.0,0.0,0.0,-1.7444,-1.7157,0.0,0.0,0.0,0.0,-1.735,-1.7432,-1.7461,-1.7475,-1.7461,-1.7404,-1.7404,-1.7308,-1.7199,-1.7199,-1.7199,-1.7199,-1.7199,-1.7199,-1.7199,-1.7199,0.0,0.0,0.0,-1.7868,0.0,-1.8606,-1.9087,-1.9551,0.0,-2.0597,-2.115,-2.1554,-2.1986,-2.236,-2.2632,-2.2669,-2.2512,-2.2068,-2.1368,-2.0162,-1.8024,-1.5853,-1.3398,-1.0333,-0.7823,-0.593,-0.4945,-0.2748,-0.0812,0.0435,0.1524,0.2511,0.3341,0.3681,0.3893,0.3981,0.4284,0.4618,0.4993,0.5003,0.5092,0.5343,0.545,0.5543,0.5686,0.5826,0.5826,0.5677,0.5672,0.4853,0.3472,0.3472,0.3428,0.3371,0.3648,0.3797,0.3881,0.3966,0.4021,0.3965,0.3907,0.3934,0.4057,0.0,0.0,0.0,0.0,0.0,0.0,0.0,0.0,0.0,0.0,0.0,0.0,0.0,0.0,0.0,0.0,-2.0925,-2.1209,-2.1819,-2.1616,-2.1388,-2.1073,-2.0938,-2.0838,-2.0762,-2.0149,0.0,0.0,0.0,0.0,-1.8087,-1.7529,-1.7253,0.0,-1.7253,-1.7308,0.0,0.0,0.0,0.0,-1.7598,-1.757,0.0,-1.7432,-1.7337,-1.7199,-1.7199,-1.7199,-1.7199,-1.7199,-1.7199,-1.7199,-1.7199,-1.7295,0.0,0.0,0.0,0.0,0.0,0.0,-1.9258,-1.9732,-2.0277,-2.0797,0.0,0.0,-2.2354,-2.2833,-2.3112,-2.2491,-1.9986,-1.9177,-1.8003,-1.5298,-1.1741,-0.8179,-0.4797,-0.2522,-0.0776,0.0315,0.1908,0.3422,0.4805,0.5349,0.5894,0.6347,0.6697,0.6685,0.6357,0.6623,0.6618,0.6216,0.6498,0.6706,0.6855,0.6833,0.6958,0.7134,0.7146,0.7146,0.7038,0.6942,0.6117,0.4705,0.4434,0.427,0.4225,0.4442,0.4596,0.4769,0.4835,0.4925,0.4963,0.4849,0.4755,0.4747,0.0,0.0,0.0,0.0,0.0,0.0,0.0,0.0,0.0,0.0,0.0,0.0,-1.9339,-2.0049,-2.07,-2.1204,-2.1863,-2.228,-2.2512,-2.2091,-2.1712,-2.1568,-2.1122,0.0,-2.0901,-2.0162,0.0,0.0,0.0,0.0,-1.8087,-1.7597,-1.7404,-1.7404,-1.7404,-1.7404,-1.7404,0.0,0.0,0.0,0.0,-1.7855,0.0,0.0,-1.7352,-1.7199,-1.7199,-1.7199,-1.7199,-1.7199,-1.7199,-1.7199,-1.7199,-1.7295,-1.7404,0.0,0.0,0.0,0.0,-1.8293,0.0,-1.9095,-1.9636,0.0,0.0,0.0,-2.2192,-2.2848,-2.3207,-2.1168,-1.3872,-1.2853,-1.2643,-1.1148,-0.4546,0.1035,0.2962,0.4109,0.4784,0.4754,0.6228,0.8152,1.0446,0.973,0.9286,0.9642,0.9494,0.9199,0.8643,0.8572,0.8279,0.7598,0.7981,0.8167,0.8117,0.8104,0.8163,0.832,0.8044,0.7957,0.7909,0.7665,0.7361,0.6949,0.5955,0.5361,0.5097,0.4874,0.4944,0.5179,0.5328,0.5509,0.5719,0.5618,0.5517,0.5495,0.0,0.0,0.0,0.0,0.0,0.0,0.0,0.0,0.0,0.0,0.0,0.0,0.0,-2.0288,-2.0985,-2.1565,-2.2443,-2.2893,-2.2799,-2.2402,-2.2044,-2.1746,-2.134,-2.101,-2.0901,-2.0162,0.0,0.0,0.0,-1.81,-1.8087,-1.7639,-1.7432,-1.7461,-1.7556,-1.7666,-1.7814,-1.8003,0.0,0.0,0.0,0.0,0.0,0.0,0.0,-1.7199,-1.7199,-1.7199,-1.7199,-1.7115,-1.7086,-1.7086,-1.7002,-1.7086,-1.7183,-1.7363,-1.7474,0.0,0.0,0.0,0.0,-1.8808,-1.9303,-1.9879,-2.0565,-2.107,-2.1698,-2.2626,-1.9196,-1.5203,-1.2502,-1.1603,-0.89,-0.1579,0.2946,0.636,0.8793,0.9942,1.0551,1.0532,1.1288,1.207,1.2815,1.2624,1.2415,1.2397,1.2206,1.179,1.1077,1.0857,1.049,0.9818,0.959,0.9244,0.8864,0.8714,0.8711,0.885,0.8562,0.8468,0.8421,0.8287,0.8153,0.795,0.7276,0.6606,0.5984,0.6039,0.6013,0.594,0.6217,0.6364,0.6345,0.6426,0.6263,0.595,0.0,0.0,0.0,0.0,0.0,0.0,0.0,0.0,0.0,0.0,0.0,0.0,0.0,0.0,-2.1454,-2.2079,-2.2718,-2.2994,-2.2761,-2.2406,-2.2098,-2.203,-2.1471,-2.1144,-2.0924,0.0,0.0,0.0,0.0,0.0,0.0,-1.7563,-1.7461,-1.757,-1.7828,-1.8029,0.0,0.0,0.0,-1.8461,0.0,0.0,-1.7842,0.0,-1.7447,-1.7253,-1.7199,-1.7157,-1.7115,-1.7044,-1.696,-1.6876,-1.6876,-1.696,-1.7044,-1.7183,0.0,0.0,-1.7543,0.0,0.0,0.0,-1.8679,-1.914,-1.9798,-2.0252,-2.0687,-2.1379,-1.6397,-1.0926,-0.7777,-0.5146,-0.1069,0.6226,1.0203,1.3052,1.5031,1.5537,1.5633,1.5439,1.5513,1.5435,1.5215,1.5223,1.5151,1.49,1.462,1.4115,1.3268,1.2958,1.2385,1.1519,1.0948,1.0369,0.9765,0.9528,0.949,0.9598,0.9306,0.9067,0.8974,0.8896,0.8717,0.8562,0.8299,0.77,0.688,0.6782,0.6736,0.6672,0.6784,0.6884,0.6899,0.7001,0.6897,0.6696,0.0,0.0,0.0,0.0,0.0,0.0,0.0,0.0,0.0,0.0,0.0,0.0,0.0,0.0,0.0,-2.2712,-2.272,-2.2596,-2.2471,-2.196,-2.1899,-2.236,-2.1636,-2.1118,-2.0997,0.0,0.0,0.0,0.0,0.0,0.0,0.0,-1.757,-1.772,-1.8282,-1.8411,-1.8344,0.0,-1.8822,-1.8784,0.0,-1.845,-1.8163,-1.7842,-1.7569,-1.7363,-1.7267,-1.7128,-1.7002,-1.7015,-1.6859,-1.6718,-1.6846,-1.6918,0.0,0.0,0.0,0.0,0.0,0.0,0.0,0.0,0.0,0.0,-1.8717,-1.9046,-1.9209,-1.9122,-1.5108,-0.8742,0.0592,0.6925,1.0975,1.1786,1.7088,2.124,2.1604,2.0829,1.9922,1.9191,1.8724,1.8314,1.7843,1.7637,1.7437,1.7098,1.6696,1.6073,1.5232,1.4817,1.3978,1.2509,1.1981,1.148,1.0909,1.0642,1.0508,1.057,1.0185,0.986,0.9587,0.9382,0.9144,0.8897,0.8897,0.8533,0.7889,0.7093,0.7014,0.7336,0.6896,0.7068,0.7476,0.7386,0.75,0.767,0.0,0.0,0.0,0.0,0.0,0.0,0.0,0.0,0.0,0.0,0.0,0.0,0.0,-2.0729,-2.137,-2.1929,-2.2004,-2.1924,-2.1787,-2.1389,-2.1341,-2.1676,-2.1052,-2.0798,-2.0983,0.0,0.0,0.0,0.0,0.0,0.0,0.0,0.0,0.0,-1.8282,-1.8581,-1.8745,-1.9026,0.0,-1.8988,-1.8822,-1.8528,-1.8163,-1.7842,-1.7569,-1.7457,-1.7751,-1.7492,-1.7024,-1.735,-1.6979,-1.6423,-1.6405,0.0,0.0,0.0,0.0,0.0,-1.6778,0.0,0.0,0.0,0.0,0.0,-1.7732,-1.769,-1.7486,-1.717,-1.0481,-0.317,0.1762,0.9858,1.6535,1.8808,2.1725,2.3567,2.3297,2.2729,2.2078,2.1332,2.0814,2.0311,1.9832,1.9439,1.9067,1.8617,1.8129,1.7558,1.6954,1.6022,1.4908,1.344,1.2829,1.2048,1.1143,1.0655,1.0424,1.0464,1.0049,0.9753,0.9588,0.9357,0.9199,0.9106,0.9023,0.8915,0.878,0.8034,0.7584,0.7375,0.7377,0.7471,0.7662,0.7816,0.7972,0.8002,0.0,0.0,0.0,0.0,0.0,0.0,0.0,0.0,0.0,0.0,0.0,0.0,0.0,0.0,-2.118,-2.1276,-2.1291,-2.1198,-2.1025,-2.0746,-2.0768,-2.1274,-2.0712,-2.059,-2.0947,0.0,0.0,0.0,0.0,0.0,0.0,0.0,0.0,0.0,0.0,0.0,0.0,0.0,0.0,0.0,-1.9026,-1.8683,-1.8282,-1.7922,-1.7638,-1.7472,-1.7646,-1.7414,-1.7012,-1.726,-1.6829,-1.6219,-1.6057,-1.6088,0.0,-1.6219,0.0,0.0,0.0,0.0,0.0,0.0,0.0,0.0,-1.6469,-1.6193,-1.566,-1.481,-0.8061,-0.1302,0.2088,0.9912,1.6785,1.9726,2.1635,2.3006,2.3646,2.3388,2.2923,2.2422,2.1874,2.1383,2.0959,2.0565,2.0143,1.9722,1.9251,1.865,1.7921,1.7066,1.5932,1.445,1.3846,1.2935,1.1664,1.1234,1.0981,1.0829,1.0475,1.0205,1.0021,0.9725,0.9496,0.9386,0.9257,0.9217,0.9174,0.8632,0.8175,0.7788,0.7615,0.7677,0.7888,0.7964,0.8184,0.8434,0.0,0.0,0.0,0.0,0.0,0.0,0.0,0.0,0.0,0.0,0.0,0.0,0.0,0.0,0.0,0.0,-2.0669,-2.0623,-2.0489,-2.0117,-2.0229,-2.1021,-2.052,-2.0441,-2.0888,0.0,0.0,0.0,0.0,0.0,0.0,0.0,0.0,0.0,0.0,0.0,0.0,0.0,0.0,-1.9339,-1.9139,-1.8851,-1.8478,-1.8043,-1.7747,-1.7488,-1.7348,-1.718,-1.7002,-1.6876,-1.6491,-1.6069,-1.576,-1.5836,-1.6013,-1.5792,-1.5881,0.0,0.0,0.0,0.0,-1.5412,-1.5322,0.0,-1.505,-1.4653,-1.3825,-1.2358,-0.7346,-0.2064,0.1597,0.7752,1.3271,1.6344,1.8359,2.0414,2.2863,2.3018,2.2797,2.2624,2.2186,2.1764,2.1479,2.1166,2.0828,2.0512,2.0104,1.9449,1.8486,1.804,1.7048,1.5411,1.4993,1.4038,1.2484,1.2151,1.1872,1.159,1.1244,1.0943,1.0659,1.0312,1.001,0.9753,0.9607,0.9448,0.9226,0.9073,0.8773,0.8369,0.7765,0.7764,0.8064,0.7963,0.8277,0.8758,-1.5659,0.0,0.0,0.0,0.0,0.0,0.0,0.0,0.0,0.0,0.0,0.0,0.0,0.0,0.0,0.0,-2.0593,-2.07,-2.1032,-2.0298,-2.0146,-2.09,-2.008,-1.998,-2.0875,0.0,0.0,0.0,0.0,0.0,0.0,0.0,0.0,0.0,0.0,0.0,0.0,0.0,0.0,-1.9139,-1.8936,-1.8721,-1.8478,-1.8043,-1.7801,-1.7692,-1.7935,-1.7633,-1.7073,-1.6534,-1.6001,-1.5603,-1.5435,-1.5345,-1.5289,-1.5244,-1.5345,-1.5435,-1.5244,-1.5096,-1.4994,-1.4994,-1.4777,0.0,-1.4143,-1.3416,-1.2376,-1.0914,-0.7647,-0.3965,-0.0304,0.4077,0.8334,1.2007,1.4569,1.736,2.0982,2.1843,2.2084,2.2074,2.1953,2.1853,2.1721,2.1573,2.1388,2.1151,2.0532,1.9934,1.9376,1.9029,1.8155,1.655,1.6046,1.5039,1.3429,1.2951,1.2543,1.2222,1.1811,1.1468,1.1169,1.0753,1.0457,1.0235,1.0079,0.9853,0.9594,0.9563,0.9108,0.8452,0.8044,0.7974,0.8087,0.8203,0.838,0.8579,-1.5824,0.0,0.0,0.0,0.0,0.0,0.0,0.0,0.0,0.0,0.0,0.0,0.0,0.0,0.0,0.0,0.0,0.0,0.0,-2.03,-2.013,-2.0593,-1.998,-1.993,-2.0662,-2.0562,0.0,0.0,0.0,0.0,0.0,0.0,0.0,0.0,0.0,0.0,0.0,0.0,-1.8475,-1.8889,-1.8745,-1.8606,-1.8478,-1.8043,-1.7801,-1.7719,-1.7792,-1.7489,-1.696,-1.6423,-1.5944,-1.5513,-1.5255,-1.5108,-1.496,-1.4891,-1.4937,-1.4937,-1.4605,-1.4512,-1.4419,-1.4316,-1.4025,0.0,0.0,-1.2579,-1.1683,-1.0356,-0.8182,-0.5611,-0.2662,0.0786,0.425,0.7629,1.0535,1.339,1.64,1.908,2.0845,2.1224,2.1366,2.1493,2.154,2.1526,2.1433,2.1309,2.0958,2.0532,2.0089,1.9864,1.9001,1.7357,1.6958,1.5974,1.4269,1.3769,1.3327,1.2836,1.2461,1.2102,1.1689,1.1282,1.0943,1.0649,1.039,1.0127,0.9902,0.9753,0.9475,0.9056,0.8553,0.8311,0.8313,0.85,0.8628,0.8741,-1.5913,0.0,0.0,0.0,0.0,0.0,0.0,0.0,0.0,0.0,0.0,0.0,0.0,0.0,0.0,0.0,0.0,0.0,-2.0927,-2.0496,-2.0306,-2.0456,-2.0043,-1.9976,-2.0448,-2.0246,-2.008,0.0,0.0,0.0,0.0,0.0,0.0,0.0,0.0,0.0,0.0,0.0,0.0,-1.8556,-1.8616,-1.8548,-1.8425,-1.8043,-1.7842,-1.772,-1.7515,-1.7183,-1.6833,-1.6454,-1.5976,-1.5501,-1.5187,-1.4915,-1.4731,-1.4523,-1.4477,-1.4419,-1.401,-1.3868,-1.3773,-1.3515,-1.3266,-1.2977,0.0,0.0,0.0,-1.0277,-0.8776,-0.6993,-0.4915,-0.2113,0.07,0.3528,0.6509,0.9237,1.1354,1.5276,1.844,1.9859,2.0389,2.0732,2.1055,2.1293,2.1386,2.1371,2.134,2.1119,2.0698,2.0599,1.9745,1.8083,1.7831,1.6838,1.5016,1.4571,1.4044,1.3475,1.3104,1.2685,1.2222,1.1811,1.1404,1.0992,1.0687,1.0418,1.0166,0.9941,0.9793,0.9674,0.9056,0.8691,0.8609,0.8769,0.8914,0.8989,-1.5944,-1.638,0.0,0.0,0.0,0.0,0.0,0.0,0.0,0.0,0.0,0.0,-2.0489,-2.033,-2.0548,-2.105,-2.0777,-2.1012,-2.2119,-2.1226,-2.0784,-2.1108,-2.0254,-1.9915,-2.022,-2.0093,-1.9836,0.0,0.0,0.0,0.0,0.0,0.0,0.0,-1.6485,0.0,0.0,0.0,-1.7598,-1.8123,-1.8604,-1.8577,-1.8279,-1.7989,-1.7882,-1.7842,-1.757,-1.724,-1.6833,-1.6454,-1.5932,-1.5424,-1.504,-1.464,-1.4269,-1.4104,-1.401,-1.3858,-1.3563,-1.3314,-1.3064,-1.2919,-1.2745,-1.2471,-1.2076,0.0,-1.1116,-1.0352,0.0,-0.7835,-0.6548,0.0,0.0,0.0163,0.2737,0.5362,0.7955,1.0544,1.3606,1.7489,1.8714,1.9516,2.0249,2.0959,2.1448,2.1648,2.1664,2.157,2.1401,2.1308,2.0521,1.8898,1.8616,1.7618,1.5794,1.5196,1.4645,1.4109,1.3622,1.3173,1.2697,1.2318,1.1884,1.1442,1.1217,1.0878,1.0544,1.038,1.0166,0.9902,0.9337,0.9009,0.8857,0.8947,0.907,0.9182,-1.61,-1.6423,0.0,0.0,0.0,0.0,0.0,0.0,0.0,0.0,0.0,0.0,-2.0561,-2.0333,-2.0254,-2.0385,-2.0302,-2.0564,-2.1365,-2.1084,0.0,-2.0858,-2.0265,-1.9901,-1.9862,-1.9565,-1.9251,0.0,-1.8827,0.0,0.0,0.0,0.0,0.0,-1.6799,0.0,-1.7509,0.0,-1.8046,-1.8585,-1.8866,-1.8785,-1.8453,-1.8342,-1.8015,-1.7597,-1.7406,-1.7073,-1.6705,-1.625,-1.5724,-1.5198,-1.4743,-1.4326,-1.3905,-1.361,-1.3515,-1.3372,-1.2997,-1.2803,-1.2657,-1.2452,-1.2314,-1.2175,-1.1877,-1.1569,-1.1226,-1.0514,0.0,0.0,0.0,0.0,0.0,0.0,-0.0109,0.2162,0.4552,0.6789,1.0011,1.4995,1.6645,1.7984,1.9581,2.0503,2.1134,2.1433,2.1678,2.1781,2.1735,2.1794,2.1313,2.024,1.953,1.8522,1.7128,1.6102,1.5271,1.4696,1.3848,1.3376,1.3229,1.245,1.206,1.1993,1.17,1.133,1.0981,1.0677,1.0457,1.0322,0.9971,0.9536,0.918,0.9435,0.9406,0.9314,-1.6156,0.0,0.0,0.0,0.0,0.0,0.0,0.0,0.0,-2.1591,-2.1936,-2.1743,-2.07,-2.04,-2.0128,-1.9729,-1.967,-1.9949,-2.0566,-2.0649,-2.0627,-2.051,-2.008,-1.9772,-1.9512,-1.9093,-1.8774,0.0,0.0,0.0,0.0,0.0,0.0,0.0,0.0,-1.7326,-1.7702,0.0,-1.8248,-1.8773,-1.9047,-1.8956,-1.8665,-1.8387,-1.7916,-1.7363,-1.7253,-1.696,-1.6633,-1.6088,-1.5501,-1.4971,-1.4419,-1.3952,-1.3563,-1.3218,-1.3035,-1.2939,-1.252,-1.2323,-1.2224,-1.1977,-1.1977,-1.1927,-1.1728,-1.1528,-1.1276,-1.0667,-0.9836,0.0,0.0,0.0,-0.5479,0.0,0.0,-0.0549,0.1583,0.3689,0.6949,1.225,1.4693,1.6697,1.8602,1.9743,2.0536,2.1039,2.1554,2.1899,2.1969,2.2124,2.1942,2.1283,2.0321,1.9275,1.8198,1.686,1.5877,1.5286,1.4106,1.3533,1.3454,1.2607,1.2249,1.2259,1.2116,1.1799,1.1431,1.1094,1.0878,1.0764,1.0621,1.0186,0.9704,0.9821,0.974,0.9555,-1.6156,-1.6362,0.0,0.0,0.0,0.0,0.0,0.0,-2.1974,-2.206,-2.2775,-2.2687,-2.1231,-2.0849,-2.0342,-1.9487,-1.9072,-1.9279,-2.0234,-2.0038,-1.9976,-2.0207,-1.9823,-1.95,-1.9239,-1.8827,-1.8452,0.0,0.0,0.0,0.0,0.0,0.0,0.0,-1.7066,-1.6945,-1.724,-1.7412,-1.7738,-1.8204,-1.9047,-1.9206,-1.8799,-1.7898,-1.7474,-1.7363,-1.7253,-1.696,-1.659,-1.5856,-1.5322,-1.4766,-1.4046,-1.3515,-1.317,-1.29,-1.2666,-1.2471,-1.2175,-1.1927,-1.1669,-1.1569,-1.1628,-1.1678,-1.1528,-1.1427,-1.1175,-1.0769,-0.9991,-0.9204,-0.8679,-0.7717,0.0,0.0,0.0,0.0,0.0,0.1269,0.4334,0.9242,1.3083,1.5844,1.7142,1.8579,1.9723,2.0487,2.1244,2.184,2.2164,2.2436,2.2315,2.1715,2.0773,1.9767,1.8699,1.7277,1.6316,1.5751,1.4558,1.3692,1.3208,1.2917,1.2507,1.2013,1.2409,1.2306,1.1872,1.1653,1.1468,1.1271,1.1207,1.0943,1.0611,1.0019,0.993,1.0058,-1.6508,0.0,0.0,0.0,0.0,0.0,-2.0484,-2.1175,-2.1725,-2.2214,-2.2579,-2.2219,-2.084,-2.05,-1.988,-1.8562,-1.88,-1.9078,-1.9219,-1.9564,-1.9775,-1.9668,-1.9316,-1.8934,-1.8602,-1.8236,-1.792,-1.7689,0.0,0.0,0.0,0.0,0.0,0.0,0.0,-1.7686,0.0,0.0,0.0,-1.8576,-1.8571,-1.8567,-1.8485,-1.7742,-1.7337,-1.7253,-1.7086,-1.6778,-1.6324,-1.5623,-1.4994,-1.4305,-1.3505,-1.3035,-1.2657,-1.2314,-1.2175,-1.2026,-1.1678,-1.1528,-1.1377,-1.1175,-1.1267,-1.1427,-1.1276,-1.1226,-1.1023,-1.0454,-0.9784,-0.9106,-0.858,-0.7723,0.0,0.0,0.0,0.0,0.0,0.0497,0.3457,0.6327,1.0467,1.3782,1.537,1.7169,1.8654,1.9758,2.0798,2.1595,2.2124,2.2607,2.283,2.2757,2.1462,2.0486,1.9906,1.8002,1.6795,1.6239,1.4564,1.3712,1.3692,1.2478,1.2197,1.266,1.2534,1.2484,1.2473,1.2102,1.1811,1.1627,1.1479,1.1292,1.1019,1.0505,1.0214,1.0112,-1.6939,-1.7316,0.0,-1.8487,-1.9136,-1.9899,-2.0997,-2.1365,-2.1643,-2.2128,-2.2052,-2.1516,-2.0357,-1.9863,-1.9126,-1.7923,-1.815,-1.8358,-1.8469,-1.8783,-1.9041,-1.9133,-1.8732,-1.8356,-1.8073,-1.7689,-1.7423,-1.7423,0.0,-1.7379,0.0,0.0,0.0,0.0,0.0,-1.8084,-1.8084,-1.8127,-1.8333,-1.8519,-1.8031,-1.7929,-1.8006,-1.7298,-1.7031,-1.7073,-1.682,-1.6509,-1.6107,-1.5344,-1.4617,-1.3931,-1.3074,-1.2608,-1.2274,-1.1877,-1.1669,-1.1528,-1.1175,-1.1015,-1.0863,-1.0667,-1.0812,-1.0964,-1.0863,-1.0761,-1.0549,-1.0043,-0.9368,-0.8791,-0.8427,-0.7676,0.0,0.0,0.0,0.0,0.0,-0.0055,0.2378,0.4072,0.8249,1.1674,1.3481,1.5586,1.737,1.8705,2.0054,2.1148,2.1919,2.2582,2.3049,2.3371,2.1911,2.0972,2.0653,1.8512,1.7158,1.6549,1.4617,1.3706,1.3657,1.2291,1.1939,1.2443,1.2342,1.2423,1.258,1.2188,1.2047,1.2029,1.1884,1.1689,1.1457,1.0943,1.0467,1.0213,-1.746,-1.7884,-1.8468,-1.9558,-2.0761,-2.1595,-2.1595,-2.1725,-2.1746,-2.1746,-2.1268,-2.0616,-1.985,-1.906,-1.8309,-1.7528,-1.7141,-1.7231,-1.7959,-1.7677,-1.7745,-1.8442,-1.8047,-1.7743,-1.7611,-1.7146,-1.7056,-1.7278,0.0,0.0,0.0,0.0,0.0,0.0,-1.8084,0.0,-1.8084,-1.7909,-1.7929,-1.7978,-1.752,-1.7388,-1.7352,-1.6544,-1.6509,-1.6791,-1.6565,-1.625,-1.5812,-1.4983,-1.4283,-1.3589,-1.2754,-1.2274,-1.1977,-1.1578,-1.1267,-1.1023,-1.0718,-1.0411,-1.0146,-1.0146,-1.0249,-1.0344,-1.0344,-1.0131,-0.9806,-0.9406,-0.8784,-0.8321,-0.8162,-0.7515,-0.6923,0.0,0.0,0.0,0.0,-0.0501,0.1112,0.2494,0.6299,0.9504,1.1416,1.3814,1.5905,1.737,1.906,2.0473,2.1559,2.2371,2.2979,2.3459,2.2136,2.1249,2.093,1.8797,1.7372,1.6706,1.4837,1.3668,1.3207,1.2354,1.178,1.1442,1.1891,1.2161,1.2264,1.2029,1.2145,1.2472,1.2425,1.221,1.1836,1.1244,1.0725,1.0449,-1.7766,-1.8988,-2.0215,-2.1155,-2.1653,-2.1974,-2.1974,-2.161,-2.1326,-2.1229,-2.097,-2.0428,-1.9413,-1.8903,-1.8195,-1.7012,-1.703,-1.7024,-1.6833,-1.6991,-1.6988,-1.6888,-1.6488,-1.6339,-1.6493,-1.621,-1.6279,-1.6807,-1.6807,0.0,-1.7123,0.0,0.0,0.0,0.0,-1.7854,-1.7634,-1.7468,-1.7137,-1.6741,-1.6497,-1.6382,-1.6267,-1.584,-1.5768,-1.5869,-1.6076,-1.5856,-1.5355,-1.4686,-1.3931,-1.3112,-1.2412,-1.1819,-1.1326,-1.0972,-1.0667,-1.0352,-1.0079,-0.9873,-0.9725,-0.9517,-0.9472,-0.9524,-0.9524,-0.9197,-0.8876,-0.8501,-0.7877,-0.7402,-0.7235,-0.6701,-0.6273,0.0,0.0,0.0,-0.2679,-0.1451,-0.0112,0.1618,0.3416,0.5908,0.9365,1.1976,1.4158,1.5911,1.7804,1.942,2.0606,2.1797,2.2677,2.3259,2.2098,2.1366,2.1131,1.9052,1.7693,1.7052,1.5128,1.3979,1.3521,1.211,1.1577,1.1756,1.1683,1.1851,1.2152,1.2171,1.216,1.2085,1.2354,1.2318,1.2018,1.1271,1.0829,1.0703,-1.8543,-2.0031,-2.1356,-2.1951,-2.1973,-2.1931,-2.1952,-2.1305,-2.0772,-2.0686,-2.0093,-1.9391,-1.8699,-1.8015,-1.7244,-1.6374,-1.6389,-1.6365,-1.6174,-1.6166,-1.6135,-1.6047,-1.5547,-1.5458,-1.5693,-1.554,-1.571,-1.6275,-1.6343,0.0,-1.6684,0.0,0.0,0.0,0.0,-1.7689,-1.7534,-1.7022,-1.6398,-1.5815,-1.5615,-1.5559,0.0,-1.5107,-1.5017,-1.5051,-1.5175,-1.5085,-1.4858,-1.4176,-1.3409,-1.2638,-1.1968,-1.1368,-1.082,-1.0446,-1.0095,-0.9777,-0.9406,-0.9197,-0.8988,-0.8725,-0.862,-0.862,-0.8455,-0.8196,-0.7824,-0.7433,-0.6907,-0.6534,-0.6421,-0.6046,-0.5614,-0.5454,-0.4622,-0.3735,-0.2905,-0.1955,-0.0838,0.0559,0.1613,0.3351,0.6231,0.9459,1.2168,1.4102,1.6036,1.7813,1.9295,2.0764,2.1938,2.2768,2.1793,2.1171,2.1087,1.9007,1.7693,1.7134,1.5185,1.4062,1.3659,1.2071,1.1423,1.1531,1.1333,1.1441,1.1796,1.1792,1.1939,1.2201,1.248,1.2473,1.2282,1.1726,1.1345,1.1183,-1.9622,-2.087,-2.1866,-2.2135,-2.1845,-2.1475,-2.1316,-2.0746,-2.0295,-2.0029,-1.8992,-1.8147,-1.7842,-1.6851,-1.6086,-1.5756,-1.5546,-1.552,-1.5681,-1.537,-1.5219,-1.5394,-1.4852,-1.4702,-1.4909,-1.4934,-1.5183,-1.5726,-1.5911,0.0,0.0,0.0,0.0,0.0,0.0,0.0,0.0,-1.6581,-1.5761,-1.5024,-1.4856,-1.4768,-1.466,-1.4385,-1.428,-1.4233,-1.4082,-1.4176,-1.4212,-1.3552,-1.2832,-1.2157,-1.1418,-1.0913,-1.0454,-0.9873,-0.951,-0.9152,-0.8626,-0.8368,-0.8209,-0.7877,-0.7711,-0.7658,-0.7385,-0.7128,-0.6756,-0.6362,-0.5932,-0.5664,-0.5664,-0.5391,-0.5062,-0.4688,-0.4132,-0.3519,-0.2905,-0.2124,-0.1286,-0.0449,0.0559,0.0,0.2934,0.6813,1.0023,1.1994,1.39,1.5763,1.7628,1.931,2.0745,2.1898,2.1125,2.0697,2.0776,1.8748,1.7545,1.7044,1.5137,1.4047,1.3655,1.2141,1.133,1.1108,1.0968,1.1078,1.1322,1.1202,1.1664,1.2519,1.2592,1.2602,1.2544,1.2354,1.2054,1.1823,-2.0452,-2.0997,-2.1296,-2.1368,-2.1039,-2.0463,-1.9412,-1.9693,-1.9851,-1.9233,-1.8846,-1.8179,-1.7034,-1.6536,-1.5973,-1.5278,-1.5096,-1.4903,-1.468,-1.4493,-1.4243,-1.3838,-1.3498,-1.3352,-1.3451,-1.3796,-1.4179,-1.4657,-1.5234,0.0,0.0,0.0,0.0,0.0,0.0,0.0,-1.6482,-1.6009,-1.514,-1.4121,-1.4214,-1.3961,-1.3522,-1.3546,-1.3563,-1.3552,-1.3304,-1.3304,-1.3351,-1.2909,-1.2236,-1.1569,-1.0913,-1.0285,-0.9725,-0.9263,-0.8896,-0.8474,-0.799,-0.7783,-0.7574,-0.7198,-0.6869,-0.6593,-0.648,-0.6154,-0.5778,-0.5555,-0.5281,-0.5011,-0.4908,-0.4625,-0.4346,-0.4132,-0.3747,-0.3246,-0.2631,-0.2238,-0.1623,-0.0673,0.056,0.1398,0.1781,0.5139,0.8007,0.9685,1.1592,1.339,1.5073,1.7048,1.8693,1.9936,1.9666,1.9647,1.9974,1.8373,1.7365,1.7002,1.5193,1.4192,1.3795,1.2258,1.1466,1.1262,1.1108,1.1037,1.1006,1.1241,1.1796,1.2481,1.2329,1.2503,1.2826,1.272,1.2627,1.2495,-2.0749,-2.0807,-2.0743,-2.0694,-2.0112,-1.9272,-1.8285,-1.8248,-1.8195,-1.7695,-1.7298,-1.6785,-1.6043,-1.5624,-1.5187,-1.4662,-1.4501,-1.4326,-1.4093,-1.3847,-1.3494,-1.3112,-1.2783,-1.2641,-1.2654,-1.2855,-1.3304,-1.393,-1.442,-1.4801,0.0,0.0,0.0,0.0,0.0,-1.6151,0.0,0.0,-1.4345,-1.3413,-1.3412,-1.3113,-1.2745,-1.29,-1.2852,-1.2696,-1.2598,-1.2286,-1.194,-1.1882,-1.1434,-1.0838,-1.0182,-0.9562,-0.8988,-0.8573,-0.815,-0.7717,-0.7295,-0.7025,-0.6756,-0.6431,-0.6164,-0.5946,-0.5668,-0.5449,-0.5175,-0.5014,-0.4739,-0.4463,-0.4184,-0.3962,-0.3685,-0.3463,-0.3132,-0.2742,-0.2296,-0.1961,-0.1569,-0.101,-0.0,0.084,0.1454,0.3212,0.5267,0.7448,0.8994,1.0639,1.2338,1.4258,1.5944,1.7346,1.7438,1.779,1.8457,1.7321,1.6719,1.6617,1.5015,1.412,1.3845,1.2304,1.1511,1.133,1.1215,1.1085,1.0976,1.1279,1.1556,1.181,1.2228,1.2489,1.2663,1.2914,1.2908,1.2805,-2.018,-2.0121,-1.9833,-1.9508,-1.8776,-1.7958,-1.6994,-1.6459,-1.6181,-1.6187,-1.5706,-1.5293,-1.4989,-1.465,-1.4337,-1.4082,-1.3952,-1.3821,-1.3668,-1.3324,-1.2967,-1.2677,-1.2363,-1.2122,-1.206,-1.2149,-1.2493,-1.3055,-1.3582,-1.4047,-1.44,0.0,0.0,0.0,0.0,0.0,-1.4737,-1.4239,-1.3606,-1.285,-1.267,-1.2373,-1.2126,-1.2274,-1.2175,-1.1927,-1.1877,-1.1309,-1.0643,-1.0685,-1.0474,-1.0064,-0.9406,-0.8883,-0.8349,-0.7805,-0.7365,-0.6999,-0.6577,-0.6255,-0.5936,-0.571,-0.5559,-0.5344,-0.5069,-0.4849,-0.4684,-0.4522,-0.4245,-0.3855,-0.3461,-0.3241,-0.3077,-0.2738,-0.2464,-0.2186,-0.1903,-0.1626,-0.1347,-0.1234,-0.0561,0.0224,0.1122,0.1456,0.2615,0.4848,0.6216,0.7703,0.9459,1.1265,1.2898,1.4339,1.4879,1.5592,1.6502,1.604,1.5902,1.6062,1.4715,1.4014,1.3845,1.2304,1.1534,1.1421,1.1285,1.1132,1.1009,1.1207,1.1256,1.1251,1.2032,1.2303,1.2386,1.2922,1.3023,1.2914,-1.8318,-1.8398,-1.8207,-1.7184,-1.697,-1.6293,-1.4594,-1.4307,-1.4468,-1.505,-1.5105,-1.4763,-1.4021,-1.3889,-1.381,-1.3668,-1.3515,-1.342,-1.3266,-1.289,-1.2559,-1.2372,-1.1977,-1.1595,-1.1226,-1.1548,-1.1752,-1.1668,-1.2789,-1.3376,-1.3353,0.0,0.0,0.0,-1.4834,-1.4638,-1.4246,-1.3758,-1.3138,-1.241,-1.2245,-1.1912,-1.1578,-1.1728,-1.1628,-1.1326,-1.1006,-1.0541,-0.9969,-0.9392,-0.9347,-0.9406,-0.883,-0.8355,-0.7823,-0.712,-0.6597,-0.6189,-0.5727,-0.5518,-0.5343,-0.5194,-0.5069,-0.4901,-0.4629,-0.4411,-0.419,-0.3965,-0.3519,-0.313,-0.2847,-0.2517,-0.2238,-0.2127,-0.185,-0.1628,-0.1402,-0.1234,-0.1066,-0.0954,-0.0729,-0.0336,0.0112,0.0168,0.0559,0.1505,0.3254,0.4923,0.641,0.8178,0.9734,1.1029,1.215,1.3221,1.4312,1.4634,1.5006,1.5375,1.4378,1.3915,1.3845,1.2297,1.1586,1.1571,1.1376,1.1192,1.1005,1.0966,1.1112,1.1375,1.1401,1.1686,1.2104,1.2701,1.2845,1.2801,-1.6717,-1.6628,-1.6303,-1.5761,-1.5361,-1.469,-1.3613,-1.3394,-1.3297,-1.3273,-1.3549,-1.3644,-1.3268,-1.3258,-1.321,-1.3055,-1.2958,-1.2803,-1.2657,-1.2264,-1.1968,-1.1719,-1.1318,-1.0863,-1.0462,-1.053,-1.0696,-1.0971,-1.1524,-1.2172,-1.2847,-1.3334,-1.3637,-1.3696,-1.3521,-1.3156,-1.2636,-1.2209,-1.1792,-1.1418,-1.1331,-1.1097,-1.0922,-1.0913,-1.0761,-1.0454,-1.019,-0.971,-0.919,-0.8659,-0.8613,-0.8685,-0.8103,-0.7565,-0.6998,-0.6499,-0.5969,-0.5471,-0.5124,-0.4821,-0.4633,-0.4547,-0.4458,-0.4323,-0.4201,-0.4063,-0.3923,-0.3724,-0.3186,-0.2631,-0.2348,-0.2015,-0.1794,-0.1625,-0.1402,-0.129,-0.1178,-0.1066,-0.0954,-0.0898,-0.0842,-0.0729,-0.0561,-0.0561,-0.0336,0.0224,0.1725,0.3104,0.4249,0.5739,0.6976,0.7972,0.9214,1.0438,1.1654,1.2519,1.3409,1.4282,1.3586,1.3403,1.3659,1.2258,1.1578,1.1526,1.1376,1.1239,1.1108,1.0991,1.1024,1.1123,1.1426,1.1629,1.1842,1.2385,1.2781,1.3037,-1.4868,-1.4694,-1.4487,-1.4253,-1.3819,-1.3308,-1.2707,-1.254,-1.2286,-1.1913,-1.2175,-1.2431,-1.2627,-1.2676,-1.2627,-1.248,-1.2323,-1.2175,-1.2026,-1.1678,-1.1326,-1.1065,-1.0667,-1.0308,-0.9888,-0.9769,-0.9881,-1.0234,-1.0493,-1.1068,-1.1955,-1.2274,-1.2365,-1.2249,-1.2076,-1.1725,-1.1254,-1.0849,-1.064,-1.0616,-1.0434,-1.0308,-1.0154,-1.0146,-0.994,-0.9688,-0.9406,-0.8981,-0.8455,-0.7919,-0.7765,-0.7729,-0.7354,-0.6871,-0.6309,-0.5835,-0.5277,-0.4739,-0.4447,-0.4154,-0.3968,-0.4016,-0.3973,-0.3846,-0.3791,-0.3687,-0.3481,-0.3217,-0.2685,-0.2186,-0.1793,-0.157,-0.1403,-0.1234,-0.1122,-0.1066,-0.1066,-0.0954,-0.0898,-0.0898,-0.0898,-0.0898,-0.0898,-0.0898,-0.0785,-0.0505,0.056,0.1566,0.2454,0.3608,0.4616,0.5464,0.676,0.8063,0.9289,1.0614,1.1908,1.3187,1.2767,1.2883,1.3429,1.2188,1.1578,1.1489,1.1399,1.1307,1.1215,1.1108,1.1015,1.1023,1.1369,1.1497,1.1542,1.2252,1.2769,1.3117,-1.25,-1.2665,-1.2652,-1.2378,-1.2307,-1.2121,-1.1589,-1.1427,-1.1326,-1.1326,-1.1226,-1.1368,-1.2026,-1.2126,-1.2076,-1.1927,-1.1778,-1.1628,-1.1326,-1.1074,-1.0761,-1.0454,-1.0146,-0.9888,-0.9614,-0.9458,-0.9413,-0.942,-0.995,-1.0282,-1.0453,-1.0834,-1.0865,-1.0523,-1.0523,-1.053,-1.0473,-1.0084,-1.0057,-1.0198,-0.9746,-0.9517,-0.9413,-0.9413,-0.9263,-0.8956,-0.8732,-0.8302,-0.7818,-0.7122,-0.6696,-0.6436,-0.6652,-0.6395,-0.5873,-0.5114,-0.4546,-0.4041,-0.3711,-0.3519,-0.3456,-0.3643,-0.3627,-0.3474,-0.3321,-0.3157,-0.2841,-0.2166,-0.1906,-0.1685,-0.1178,-0.1122,-0.1066,-0.0954,-0.0898,-0.0898,-0.0898,-0.0898,-0.0898,-0.0898,-0.0898,-0.0898,-0.0898,-0.0898,-0.0898,-0.0898,-0.0505,0.0112,0.1066,0.1788,0.2579,0.3606,0.5014,0.628,0.7406,0.9142,1.0751,1.2212,1.2063,1.2442,1.3152,1.2159,1.163,1.1489,1.1489,1.1421,1.1285,1.1239,1.1215,1.1192,1.1123,1.1099,1.1254,1.237,1.2789,1.2969,-1.1232,-1.1239,-1.1234,-1.1206,-1.1036,-1.084,-1.0777,-1.0541,-1.0431,-1.0431,-1.0379,-1.0431,-1.0635,-1.1108,-1.1377,-1.1226,-1.0964,-1.0702,-1.0438,-1.0182,-0.988,-0.9577,-0.9309,-0.9093,-0.8935,-0.8685,-0.8633,-0.8738,-0.8778,-0.9031,-0.9384,-0.9733,-0.9653,-0.9296,-0.9128,-0.8968,-0.8725,-0.8857,-0.8878,-0.8817,-0.8877,-0.8837,-0.8685,-0.8633,-0.8533,-0.8374,-0.7996,-0.7563,-0.7122,-0.6485,-0.5937,-0.5471,-0.5026,-0.4928,-0.4861,-0.4241,-0.3708,-0.3233,-0.3055,-0.2874,-0.2791,-0.2876,-0.2838,-0.2812,-0.2745,-0.2594,-0.2362,-0.1949,-0.1628,-0.1403,-0.1122,-0.101,-0.0954,-0.0898,-0.0898,-0.0898,-0.0898,-0.088,-0.092,-0.092,-0.0955,-0.0992,-0.0992,-0.1068,-0.1138,-0.0975,-0.083,-0.0336,0.0449,0.123,0.198,0.255,0.3619,0.4682,0.5682,0.728,0.8998,1.0856,1.1295,1.184,1.2419,1.1991,1.1718,1.163,1.1593,1.1541,1.1489,1.1421,1.1399,1.1399,1.137,1.1384,1.1477,1.2224,1.2718,1.3134,-1.0073,-1.0082,-1.0128,-1.028,-1.0095,-0.9888,-0.9932,-0.971,-0.9547,-0.9599,-0.9547,-0.9503,-0.9599,-0.9925,-1.019,-1.0403,-1.0138,-0.9829,-0.9547,-0.9295,-0.8995,-0.8732,-0.8514,-0.8302,-0.8203,-0.8002,-0.8002,-0.8049,-0.8002,-0.8027,-0.8233,-0.8459,-0.8335,-0.7897,-0.7848,-0.7767,-0.761,-0.7883,-0.7943,-0.7949,-0.8043,-0.8043,-0.799,-0.7788,-0.7741,-0.7628,-0.7192,-0.6804,-0.6367,-0.5668,-0.5074,-0.4506,-0.3727,-0.3545,-0.3617,-0.3434,-0.2995,-0.2588,-0.2462,-0.2328,-0.2239,-0.2239,-0.2194,-0.2127,-0.2074,-0.1975,-0.1807,-0.1608,-0.1364,-0.1211,-0.1046,-0.0945,-0.0898,-0.0898,-0.0888,-0.0881,-0.0881,-0.0854,-0.0887,-0.0887,-0.0921,-0.1009,-0.1009,-0.1184,-0.1208,-0.1011,-0.0924,-0.0608,-0.0,0.084,0.148,0.1932,0.2647,0.3562,0.4599,0.605,0.7835,0.9887,1.1058,1.1809,1.206,1.1842,1.1747,1.1703,1.1681,1.1674,1.1667,1.1601,1.1623,1.1689,1.1637,1.1637,1.1807,1.2584,1.3056,1.339,-0.9054,-0.9106,-0.9204,-0.9458,-0.9413,-0.9256,-0.9159,-0.889,-0.8771,-0.8876,-0.8672,-0.862,-0.8876,-0.8567,-0.8626,-0.9347,-0.9204,-0.8995,-0.8725,-0.8468,-0.815,-0.7818,-0.7717,-0.7563,-0.7413,-0.7408,-0.7408,-0.7354,-0.7354,-0.7246,-0.6977,-0.6977,-0.681,-0.6534,-0.6712,-0.6874,-0.7031,-0.7182,-0.7295,-0.7413,-0.7289,-0.7235,-0.7182,-0.6928,-0.6825,-0.6766,-0.6263,-0.5937,-0.5555,-0.468,-0.4146,-0.369,-0.275,-0.2307,-0.2231,-0.26,-0.2392,-0.2057,-0.1971,-0.1839,-0.1749,-0.1749,-0.166,-0.1495,-0.1321,-0.1285,-0.1252,-0.1101,-0.1037,-0.1008,-0.0849,-0.0874,-0.0838,-0.0892,-0.0869,-0.0851,-0.0902,-0.0823,-0.0753,-0.0804,-0.0902,-0.1001,-0.1001,-0.1104,-0.1122,-0.1002,-0.0903,-0.0702,-0.0279,0.0447,0.1085,0.1619,0.2015,0.2856,0.4005,0.5358,0.7162,0.9424,1.1283,1.2128,1.204,1.1811,1.1725,1.1725,1.1805,1.1826,1.1826,1.1747,1.1848,1.2012,1.1891,1.1912,1.2164,1.332,1.3699,1.379,-0.8196,-0.8415,-0.8633,-0.8685,-0.858,-0.8421,-0.8249,-0.799,-0.7836,-0.783,-0.7783,-0.7783,-0.783,-0.7568,-0.745,-0.7545,-0.7871,-0.799,-0.7836,-0.7568,-0.73,-0.7139,-0.6972,-0.681,-0.6652,-0.6539,-0.6426,-0.6209,-0.6209,-0.6105,-0.5946,-0.5946,-0.5832,-0.5605,-0.5837,-0.5946,-0.6,-0.6317,-0.6431,-0.6381,-0.6426,-0.6372,-0.6268,-0.6105,-0.5996,-0.5837,-0.5496,-0.4999,-0.445,-0.3788,-0.3441,-0.3066,-0.2348,-0.1966,-0.1846,-0.1879,-0.1714,-0.1567,-0.1569,-0.1391,-0.1259,-0.1259,-0.1259,-0.1226,-0.118,-0.1143,-0.1059,-0.08,-0.066,-0.0511,-0.0307,-0.0421,-0.0534,-0.052,-0.0526,-0.058,-0.0769,-0.0595,-0.0532,-0.0774,-0.0802,-0.0833,-0.0971,-0.114,-0.1163,-0.1027,-0.0775,-0.0481,-0.0108,0.0323,0.0581,0.0757,0.1512,0.2376,0.3426,0.4678,0.7024,1.0364,1.1499,1.2275,1.2673,1.2123,1.1869,1.1927,1.1949,1.2012,1.2112,1.2091,1.2138,1.2241,1.2262,1.2262,1.2375,1.3628,1.3974,1.401,-0.7391,-0.761,-0.7717,-0.7717,-0.7563,-0.7402,-0.7176,-0.6972,-0.6815,-0.6815,-0.6756,-0.6756,-0.6815,-0.6598,-0.6376,-0.6204,-0.6691,-0.6966,-0.6815,-0.6544,-0.6381,-0.6332,-0.6105,-0.5937,-0.5782,-0.5723,-0.5609,-0.5391,-0.5391,-0.534,-0.5183,-0.5183,-0.5124,-0.4952,-0.5124,-0.5183,-0.5238,-0.5559,-0.5668,-0.5618,-0.5668,-0.5668,-0.5563,-0.5285,-0.5117,-0.4897,-0.445,-0.4177,-0.3796,-0.3128,-0.2571,-0.2063,-0.1377,-0.0982,-0.0802,-0.0679,-0.0806,-0.0987,-0.0897,-0.0718,-0.0584,-0.0539,-0.0494,-0.0497,-0.0368,-0.037,-0.0326,-0.0143,-0.0,0.0147,0.0344,0.0152,-0.0052,-0.0051,-0.0101,-0.0151,-0.0296,-0.0095,-0.0046,-0.0232,-0.0273,-0.0359,-0.0538,-0.0686,-0.07,-0.057,-0.0346,-0.0051,0.0311,0.0832,0.103,0.0958,0.1589,0.2429,0.3419,0.5747,0.8111,1.0531,1.1528,1.2194,1.2528,1.2087,1.1949,1.2033,1.2075,1.2159,1.2298,1.2298,1.2359,1.2427,1.2487,1.2487,1.2645,1.3971,1.4374,1.4384,-0.6637,-0.6691,-0.6691,-0.6691,-0.6529,-0.6317,-0.6046,-0.5887,-0.5782,-0.5782,-0.5668,-0.5664,-0.5778,-0.5563,-0.5285,-0.5117,-0.5496,-0.5769,-0.5837,-0.5618,-0.5458,-0.5454,-0.523,-0.5007,-0.4904,-0.4849,-0.4736,-0.4622,-0.4622,-0.4515,-0.4411,-0.4408,-0.4353,-0.4239,-0.4353,-0.4467,-0.4522,-0.4794,-0.4904,-0.4904,-0.4904,-0.4849,-0.4791,-0.4405,-0.4184,-0.3959,-0.3345,-0.3183,-0.3077,-0.2294,-0.1533,-0.0794,-0.0103,0.0346,0.0666,0.0823,0.0452,-0.0,-0.0,0.0135,0.0314,0.0404,0.0494,0.0583,0.076,0.0849,0.0849,0.0804,0.092,0.099,0.1084,0.0828,0.0598,0.0545,0.0581,0.0617,0.0566,0.0594,0.067,0.0715,0.0626,0.0492,0.0313,0.0179,0.0091,0.0141,0.0285,0.0579,0.0998,0.1649,0.195,0.1798,0.2132,0.293,0.4113,0.7455,0.9554,1.042,1.1548,1.2102,1.216,1.2,1.2033,1.2153,1.2241,1.2327,1.2443,1.2463,1.2542,1.2659,1.2665,1.2703,1.2902,1.4207,1.4684,1.4835,-0.555,-0.5769,-0.5878,-0.5605,-0.5496,-0.5445,-0.5285,-0.5062,-0.4893,-0.4893,-0.4787,-0.4732,-0.4893,-0.4618,-0.4346,-0.4242,-0.3956,-0.4174,-0.5011,-0.4904,-0.4798,-0.4684,-0.4353,-0.4073,-0.3849,-0.3572,-0.3408,-0.3405,-0.3294,-0.3183,-0.3183,-0.307,-0.307,-0.3128,-0.3183,-0.3352,-0.3635,-0.3741,-0.3904,-0.4018,-0.3904,-0.379,-0.3624,-0.3292,-0.3188,-0.3081,-0.235,-0.1733,-0.1229,-0.0559,-0.0055,0.0424,0.1055,0.1851,0.258,0.2528,0.2452,0.2152,0.1085,0.1165,0.1526,0.1526,0.1835,0.2148,0.219,0.237,0.2462,0.2326,0.2292,0.2213,0.1941,0.1773,0.1658,0.1647,0.2005,0.216,0.1858,0.1748,0.1787,0.2146,0.2146,0.2012,0.1652,0.1477,0.1258,0.0858,0.112,0.1623,0.2351,0.2394,0.2675,0.3239,0.3331,0.4252,0.6144,0.8487,1.0079,1.09,1.1942,1.2427,1.2424,1.2243,1.2226,1.2359,1.2479,1.2577,1.2662,1.27,1.2776,1.2852,1.2924,1.2942,1.3041,1.3825,1.4463,1.5036,-0.4625,-0.4677,-0.4677,-0.4398,-0.4233,-0.407,-0.3959,-0.3735,-0.3622,-0.3622,-0.3569,-0.3569,-0.3622,-0.3511,-0.3405,-0.3471,-0.3302,-0.3241,-0.3458,-0.3572,-0.3572,-0.3516,-0.3574,-0.3524,-0.3357,-0.3023,-0.291,-0.291,-0.2798,-0.2685,-0.2517,-0.246,-0.246,-0.2517,-0.246,-0.2573,-0.2687,-0.2907,-0.3019,-0.3132,-0.3246,-0.3019,-0.2569,-0.2011,-0.1732,-0.151,-0.0838,-0.0223,0.0279,0.0782,0.1548,0.2284,0.2719,0.3096,0.3383,0.3336,0.3042,0.2568,0.1798,0.1834,0.2103,0.2235,0.2502,0.2768,0.2943,0.3123,0.3258,0.3214,0.3255,0.3249,0.3025,0.2895,0.2778,0.2726,0.2808,0.2826,0.2595,0.2544,0.2544,0.2679,0.2724,0.2632,0.2364,0.219,0.2059,0.1834,0.2094,0.2482,0.303,0.3339,0.3875,0.4589,0.507,0.6085,0.7728,0.9733,1.0873,1.1236,1.2297,1.261,1.2239,1.2318,1.2443,1.2565,1.2713,1.2808,1.2869,1.2887,1.2959,1.3013,1.3086,1.3122,1.3205,1.3939,1.4649,1.5308,-0.3688,-0.3577,-0.3463,-0.3408,-0.3186,-0.2963,-0.2738,-0.2627,-0.2569,-0.2569,-0.2516,-0.2516,-0.2514,-0.2516,-0.2517,-0.2577,-0.2521,-0.2242,-0.1792,-0.1956,-0.2235,-0.2569,-0.2629,-0.2631,-0.2467,-0.2298,-0.2184,-0.2184,-0.2128,-0.1961,-0.1736,-0.168,-0.1679,-0.168,-0.1623,-0.1623,-0.1736,-0.1903,-0.2015,-0.2071,-0.2296,-0.1959,-0.1342,-0.067,-0.0223,0.0168,0.0726,0.134,0.1955,0.2235,0.3016,0.3895,0.422,0.421,0.4075,0.4111,0.3661,0.3078,0.263,0.263,0.2765,0.3025,0.3205,0.3382,0.3646,0.3822,0.3957,0.4005,0.4089,0.4168,0.4077,0.4037,0.3953,0.3862,0.373,0.3598,0.3426,0.3429,0.3388,0.3252,0.3296,0.3296,0.3117,0.2987,0.2946,0.2946,0.3205,0.351,0.3902,0.4509,0.5326,0.6289,0.6941,0.785,0.9151,1.0772,1.1621,1.1677,1.2565,1.2682,1.2096,1.2423,1.2639,1.2794,1.2906,1.3013,1.3085,1.3085,1.3121,1.3173,1.3244,1.3261,1.3345,1.3989,1.4748,1.5543,-0.2631,-0.2577,-0.2633,-0.2747,-0.2747,-0.2633,-0.2294,-0.2238,-0.2238,-0.2238,-0.2018,-0.185,-0.1846,-0.185,-0.1738,-0.1342,-0.1008,-0.0673,-0.0392,-0.028,-0.0784,-0.2183,-0.1288,-0.0729,-0.0617,-0.0561,-0.0561,-0.0561,-0.0449,-0.0392,-0.0336,-0.0112,-0.0056,-0.0168,-0.0,-0.0168,-0.0505,-0.0561,-0.0672,-0.0782,-0.0503,-0.0168,0.0279,0.0782,0.1229,0.1677,0.2178,0.307,0.3968,0.3843,0.4174,0.4725,0.5253,0.5358,0.5293,0.543,0.5139,0.4657,0.3949,0.3865,0.4001,0.4216,0.4391,0.4526,0.4648,0.4783,0.4923,0.4966,0.5014,0.5053,0.5173,0.5173,0.5173,0.5173,0.5048,0.4874,0.4691,0.4661,0.4583,0.432,0.4495,0.4539,0.432,0.4264,0.4256,0.4256,0.4517,0.4904,0.5406,0.6016,0.7092,0.8793,0.8648,0.9208,1.0532,1.1446,1.207,1.2416,1.2632,1.2606,1.2383,1.2659,1.2867,1.2995,1.3123,1.3226,1.3278,1.3329,1.3363,1.3379,1.3463,1.3496,1.3496,1.361,1.4521,1.5692,-0.2076,-0.2076,-0.1964,-0.1625,-0.1401,-0.1176,-0.1008,-0.0896,-0.084,-0.084,-0.0728,-0.0673,-0.0672,-0.0616,-0.0505,-0.028,-0.0,0.0336,0.0729,0.0785,0.0336,-0.0784,-0.0336,0.0168,0.0617,0.0673,0.0673,0.0673,0.0729,0.0729,0.0729,0.1066,0.1234,0.1347,0.1232,0.1119,0.0952,0.0727,0.0615,0.0559,0.0782,0.1062,0.151,0.2348,0.2738,0.2959,0.34,0.4067,0.4772,0.4774,0.5108,0.5562,0.5957,0.6117,0.6155,0.6265,0.6096,0.5867,0.5685,0.5255,0.4913,0.513,0.5346,0.5524,0.5653,0.5787,0.5959,0.6087,0.6173,0.6264,0.6337,0.6289,0.6198,0.6167,0.5996,0.5782,0.5561,0.548,0.5356,0.5226,0.5313,0.5356,0.5275,0.526,0.5331,0.546,0.5834,0.6289,0.6816,0.8003,0.9243,1.051,1.0635,1.0915,1.1446,1.245,1.2826,1.2621,1.2931,1.291,1.2659,1.2885,1.3067,1.3192,1.3278,1.3362,1.3429,1.3463,1.3496,1.3529,1.356,1.3591,1.369,1.4254,1.5072,1.597,-0.1234,-0.1178,-0.101,-0.0617,-0.0224,0.0056,0.0224,0.0336,0.0393,0.0393,0.0393,0.0393,0.0393,0.0561,0.0729,0.0785,0.1009,0.1289,0.1514,0.157,0.1233,0.0505,0.0617,0.0898,0.1403,0.1403,0.1458,0.1514,0.1514,0.1514,0.157,0.1908,0.2132,0.2355,0.2238,0.2181,0.2181,0.2011,0.1955,0.2011,0.2178,0.2458,0.285,0.3688,0.3993,0.4114,0.4494,0.4946,0.5356,0.5691,0.6051,0.6423,0.6801,0.6973,0.6993,0.6962,0.6879,0.6852,0.7021,0.6592,0.6118,0.6161,0.6246,0.638,0.652,0.6689,0.6852,0.6985,0.7118,0.7245,0.7314,0.7259,0.7175,0.7105,0.6816,0.6502,0.6294,0.6133,0.6055,0.596,0.612,0.6252,0.6289,0.6398,0.6554,0.6758,0.7245,0.7881,0.8671,0.9782,1.0777,1.1662,1.1976,1.2122,1.2108,1.2899,1.3139,1.2879,1.3071,1.3051,1.2904,1.3067,1.3226,1.3362,1.3429,1.3495,1.3528,1.3544,1.3593,1.3642,1.3684,1.3868,1.4226,1.4865,1.5693,1.6553,-0.0,0.0112,0.0224,0.028,0.0505,0.0785,0.1234,0.1291,0.1291,0.1291,0.1291,0.1291,0.1291,0.1628,0.1797,0.1797,0.2186,0.2296,0.2015,0.2127,0.2017,0.1515,0.1515,0.1515,0.1628,0.1628,0.1738,0.2015,0.2015,0.2071,0.224,0.241,0.2573,0.2736,0.3019,0.313,0.313,0.3236,0.3456,0.3627,0.3741,0.4073,0.4519,0.4791,0.4958,0.5076,0.5444,0.5678,0.5893,0.6568,0.7002,0.729,0.7936,0.8003,0.7873,0.7567,0.7523,0.7565,0.7829,0.7919,0.7787,0.7308,0.7105,0.707,0.7328,0.7447,0.7523,0.767,0.7836,0.7912,0.7979,0.8013,0.7979,0.7904,0.7514,0.7104,0.6855,0.6751,0.6672,0.654,0.7059,0.7405,0.7328,0.7736,0.8098,0.8286,0.8865,0.9761,1.1058,1.1155,1.1562,1.2298,1.2501,1.2621,1.26,1.2624,1.2833,1.3296,1.2963,1.2904,1.3102,1.3243,1.3379,1.3512,1.3562,1.3609,1.3605,1.3669,1.3702,1.3717,1.3848,1.4397,1.5119,1.5261,1.6243,1.7489,0.0898,0.1122,0.1347,0.1347,0.1625,0.1849,0.1792,0.1849,0.1905,0.1905,0.1905,0.1905,0.1905,0.213,0.2354,0.2406,0.274,0.2963,0.3125,0.3239,0.3241,0.313,0.2519,0.2298,0.2517,0.2629,0.2742,0.2965,0.3072,0.3125,0.3183,0.3352,0.3461,0.3622,0.3959,0.4181,0.4346,0.4512,0.4677,0.4783,0.4944,0.5218,0.5588,0.5615,0.584,0.6125,0.6276,0.6526,0.6829,0.7161,0.7452,0.7774,0.8186,0.8384,0.8435,0.8373,0.839,0.8439,0.861,0.8692,0.8521,0.7938,0.7863,0.7995,0.8077,0.8234,0.8349,0.8447,0.857,0.8609,0.8337,0.8343,0.8268,0.7779,0.7531,0.735,0.7166,0.7364,0.7548,0.7609,0.8159,0.8569,0.8778,0.9107,0.9464,0.9798,1.0327,1.0937,1.1685,1.1763,1.2058,1.2687,1.2687,1.3073,1.3915,1.3472,1.3141,1.2954,1.3043,1.3158,1.3329,1.3445,1.3559,1.3639,1.3653,1.3684,1.3682,1.3731,1.3791,1.3848,1.3934,1.4531,1.5386,1.5986,1.6846,1.7782,0.1682,0.1906,0.2076,0.213,0.2408,0.2573,0.2462,0.2573,0.2687,0.2687,0.274,0.2738,0.2738,0.2907,0.3074,0.3178,0.3569,0.3904,0.4181,0.4346,0.4401,0.4515,0.4067,0.3735,0.3511,0.3624,0.3849,0.407,0.4177,0.4229,0.4288,0.4343,0.4453,0.4618,0.4897,0.5171,0.5441,0.5479,0.5659,0.5912,0.5934,0.6157,0.6447,0.6566,0.6701,0.6886,0.6978,0.7182,0.7438,0.775,0.8111,0.8485,0.8749,0.8918,0.907,0.911,0.9199,0.9297,0.9417,0.9487,0.9408,0.903,0.8797,0.8741,0.8814,0.8816,0.8824,0.8941,0.8896,0.8758,0.8548,0.8549,0.845,0.8017,0.7835,0.7697,0.7629,0.7852,0.8105,0.8202,0.8976,0.9573,0.9856,1.0429,1.102,1.1589,1.2,1.2353,1.2665,1.2566,1.2676,1.2983,1.2788,1.3239,1.4417,1.4129,1.3933,1.3861,1.4137,1.4332,1.4469,1.4552,1.4634,1.4733,1.4732,1.473,1.4763,1.4795,1.4856,1.4947,1.5002,1.5587,1.6435,1.6968,1.7654,1.8381,0.2296,0.2464,0.2631,0.2792,0.2905,0.3072,0.3186,0.3411,0.3524,0.3524,0.3685,0.3735,0.3735,0.3849,0.4015,0.4119,0.4673,0.5066,0.5234,0.534,0.55,0.5727,0.5887,0.5546,0.4714,0.4776,0.4944,0.5218,0.5218,0.5273,0.5441,0.5441,0.5492,0.5701,0.5806,0.6009,0.6245,0.6266,0.6488,0.6873,0.6841,0.6984,0.7253,0.7472,0.7491,0.7442,0.7688,0.776,0.7848,0.8324,0.8886,0.9399,0.9518,0.9628,0.9737,0.9855,1.0,1.0088,1.0196,1.0312,1.04,1.0428,0.9894,0.9394,0.9503,0.9316,0.9124,0.9216,0.8941,0.8702,0.8723,0.8689,0.8611,0.8521,0.828,0.8149,0.8149,0.8313,0.8457,0.854,0.9586,1.0406,1.075,1.171,1.2646,1.3457,1.373,1.383,1.3794,1.355,1.3376,1.3281,1.3079,1.3486,1.4538,1.4812,1.5157,1.555,1.5811,1.601,1.6133,1.615,1.6201,1.6336,1.6336,1.637,1.642,1.6435,1.6449,1.6512,1.6583,1.7146,1.7918,1.7997,1.8474,1.9132,0.3132,0.3355,0.3519,0.3572,0.3738,0.3956,0.4184,0.4298,0.4522,0.4684,0.4739,0.4791,0.4893,0.4948,0.5062,0.523,0.5664,0.5996,0.6109,0.6381,0.6549,0.6608,0.6923,0.7025,0.6858,0.6317,0.605,0.6105,0.6209,0.6312,0.6317,0.6317,0.6333,0.628,0.6328,0.6437,0.6613,0.6668,0.689,0.7267,0.7541,0.7795,0.8037,0.8175,0.8261,0.834,0.8303,0.8413,0.8553,0.9079,0.9567,0.9961,1.0079,1.0264,1.0485,1.0485,1.0639,1.0829,1.0981,1.1132,1.1292,1.1442,1.0992,1.0427,0.994,0.987,0.9843,0.9569,0.9483,0.9365,0.9004,0.8963,0.887,0.8546,0.8487,0.8528,0.8574,0.9003,0.9411,0.9636,1.0398,1.1252,1.2081,1.3175,1.3971,1.4383,1.432,1.437,1.4626,1.4393,1.4372,1.4648,1.4815,1.5414,1.649,1.6747,1.6571,1.5976,1.6183,1.6315,1.6411,1.646,1.6509,1.6525,1.6525,1.6525,1.6558,1.6607,1.6637,1.6664,1.6718,1.73,1.806,1.8071,1.8581,1.9243,0.4187,0.4298,0.446,0.4625,0.4791,0.4952,0.5117,0.5234,0.5399,0.5614,0.5673,0.5778,0.5878,0.5932,0.5991,0.6223,0.6544,0.6761,0.6923,0.7139,0.73,0.7348,0.7729,0.7949,0.7949,0.7676,0.7402,0.7128,0.7182,0.723,0.723,0.723,0.7156,0.6974,0.6974,0.7039,0.7128,0.7142,0.7412,0.7898,0.8157,0.8408,0.8648,0.8853,0.8989,0.9048,0.9084,0.9177,0.9368,0.9795,1.0147,1.0418,1.0764,1.0981,1.1159,1.1319,1.1542,1.1763,1.1861,1.2043,1.2129,1.192,1.172,1.133,1.0666,1.0229,0.9939,0.9857,0.9685,0.9511,0.9317,0.9261,0.9198,0.9085,0.912,0.9227,0.936,0.971,1.0069,1.031,1.0996,1.1953,1.329,1.4331,1.5032,1.5345,1.5379,1.5373,1.5368,1.5336,1.5343,1.5432,1.5665,1.6305,1.7365,1.7591,1.7673,1.7617,1.7639,1.7673,1.7738,1.7772,1.7804,1.7783,1.7783,1.7817,1.7851,1.7884,1.7915,1.7945,1.799,1.8273,1.8669,1.8665,1.8941,1.9289,0.5234,0.5289,0.5399,0.5727,0.5782,0.5837,0.5991,0.6109,0.6218,0.6372,0.649,0.6598,0.675,0.675,0.6864,0.7036,0.7311,0.7526,0.7622,0.7783,0.7931,0.809,0.8362,0.858,0.858,0.885,0.8685,0.809,0.809,0.8084,0.8137,0.8041,0.7875,0.7616,0.7567,0.7588,0.7636,0.7623,0.799,0.8524,0.875,0.8958,0.9177,0.9487,0.9597,0.9607,0.9783,0.998,1.0205,1.0495,1.0715,1.0981,1.1468,1.1689,1.1836,1.2138,1.2437,1.2673,1.2743,1.2906,1.2954,1.2473,1.2277,1.2076,1.1545,1.0646,0.9956,1.0113,0.9846,0.9595,0.9725,0.9649,0.9649,0.9842,0.9919,1.0046,1.0235,1.0434,1.0616,1.0808,1.1651,1.2765,1.421,1.5231,1.5935,1.6251,1.648,1.6486,1.6236,1.6425,1.6442,1.6264,1.6465,1.701,1.7956,1.8102,1.8554,1.932,1.9184,1.9137,1.9153,1.9153,1.9152,1.9148,1.9148,1.9182,1.9216,1.9216,1.9248,1.9298,1.9298,1.9295,1.9305,1.9305,1.9305,1.9305,0.6046,0.6159,0.6273,0.6426,0.648,0.6539,0.6712,0.6771,0.6879,0.7095,0.7149,0.7257,0.7354,0.7461,0.7563,0.7563,0.7895,0.8109,0.8262,0.8415,0.8573,0.8844,0.9001,0.9211,0.9458,0.9614,0.9406,0.8844,0.8844,0.8896,0.8995,0.8728,0.8447,0.8194,0.7965,0.7858,0.7871,0.8097,0.8479,0.8928,0.9257,0.9518,0.9707,0.9913,1.0,1.004,1.0235,1.0534,1.0905,1.1244,1.1505,1.1799,1.2018,1.227,1.2496,1.265,1.2953,1.3216,1.3433,1.3602,1.3776,1.373,1.301,1.2285,1.2301,1.1544,1.0733,1.0418,1.0299,1.0297,1.0371,1.0371,1.0396,1.0545,1.0619,1.0715,1.0873,1.1062,1.1233,1.1378,1.2852,1.4059,1.4507,1.5808,1.6747,1.7027,1.7248,1.7396,1.753,1.7727,1.7945,1.8118,1.8378,1.866,1.8988,1.9143,1.9284,1.9471,1.9508,1.9497,1.9457,1.9457,1.9424,1.936,1.936,1.9341,1.9292,1.9292,1.9289,1.9308,1.9308,1.9289,1.9305,1.9305,1.9305,1.9305,0.6864,0.7025,0.7187,0.7283,0.7337,0.7343,0.7456,0.7456,0.7515,0.7794,0.7794,0.7848,0.7996,0.8096,0.8203,0.8203,0.8474,0.8692,0.8844,0.9047,0.9249,0.9465,0.9621,0.9836,0.9932,1.0087,1.0095,0.9947,0.9673,0.9475,0.9358,0.9254,0.8963,0.8573,0.8497,0.8505,0.8643,0.8869,0.9222,0.9628,1.0021,1.0254,1.0447,1.0649,1.0725,1.0725,1.0954,1.1207,1.1531,1.1836,1.209,1.2342,1.2661,1.2871,1.3045,1.3323,1.3581,1.3835,1.4052,1.4259,1.4351,1.4087,1.3663,1.3193,1.2587,1.213,1.1626,1.0935,1.0774,1.0821,1.093,1.0954,1.1001,1.1132,1.1155,1.1247,1.1415,1.1586,1.1939,1.2593,1.3749,1.4726,1.5379,1.6849,1.7708,1.7606,1.8097,1.8331,1.8205,1.8313,1.8491,1.8771,1.8966,1.915,1.9308,1.9446,1.9518,1.9574,1.9628,1.962,1.9541,1.9526,1.9475,1.9446,1.9468,1.945,1.9413,1.9413,1.9427,1.9479,1.9479,1.9479,1.946,1.9427,1.9413,1.9413]},{"header":{"parameterUnit":"m.s-1","parameterCategory":1,"la1":30.6,"la2":28.766,"lo1":-90.7593,"lo2":-88.6598,"dy":0.0162,"dx":0.0183,"nx":116,"ny":114,"refTime":"2023-07-19T06:00:00:Z","depth":0,"parameterNumber":3,"parameterNumberName":"V-component_of_WINDS"},"data":[0.0,0.0,0.0,0.0,0.0,0.0,0.0,0.0,0.0,0.0,0.0,0.0,0.0,0.0,0.0,0.0,0.0,0.0,0.0,0.0,0.0,0.0,0.0,0.0,0.0,0.0,0.0,0.0,0.0,0.0,0.0,0.0,0.0,0.0,0.0,0.0,0.0,0.0,0.0,0.0,0.0,0.0,0.0,0.0,0.0,0.0,0.0,0.0,0.0,0.0,0.0,0.0,0.0,0.0,0.0,0.0,0.0,0.0,0.0,0.0,0.0,0.0,0.0,0.0,0.0,0.0,0.0,0.0,0.0,0.0,0.0,0.0,0.0,0.0,0.0,0.0,0.0,0.0,0.0,0.0,0.0,0.0,0.0,0.0,0.0,0.0,0.0,0.0,0.0,0.0,0.0,0.0,0.0,0.0,0.0,0.0,0.0,0.0,0.0,0.0,0.0,0.0,0.0,0.0,0.0,0.0,0.0,0.0,0.0,0.0,0.0,0.0,0.0,0.0,0.0,0.0,0.0,0.0,0.0,0.0,0.0,0.0,0.0,0.0,0.0,0.0,0.0,0.0,0.0,0.0,0.0,0.0,0.0,0.0,0.0,0.0,0.0,0.0,0.0,0.0,0.0,0.0,0.0,0.0,0.0,0.0,0.0,0.0,0.0,0.0,0.0,0.0,0.0,0.0,0.0,0.0,0.0,0.0,0.0,0.0,0.0,0.0,0.0,0.0,0.0,0.0,0.0,0.0,0.0,0.0,0.0,0.0,0.0,0.0,0.0,0.0,0.0,0.0,0.0,0.0,0.0,0.0,0.0,0.0,0.0,0.0,0.0,0.0,0.0,0.0,0.0,0.0,0.0,0.0,0.0,0.0,0.0,0.0,0.0,0.0,0.0,0.0,0.0,0.0,0.0,0.0,0.0,0.0,0.0,0.0,0.0,0.0,0.0,0.0,0.0,0.0,0.0,0.0,0.0,0.0,0.0,0.0,0.0,0.0,0.0,0.0,0.0,0.0,0.0,0.0,0.0,0.0,0.0,0.0,0.0,0.0,0.0,0.0,0.0,0.0,0.0,0.0,0.0,0.0,0.0,0.0,0.0,0.0,0.0,0.0,0.0,0.0,0.0,0.0,0.0,0.0,0.0,0.0,0.0,0.0,0.0,0.0,0.0,0.0,0.0,0.0,0.0,0.0,0.0,0.0,0.0,0.0,0.0,0.0,0.0,0.0,0.0,0.0,0.0,0.0,0.0,0.0,0.0,0.0,0.0,0.0,0.0,0.0,0.0,0.0,0.0,0.0,0.0,0.0,0.0,0.0,0.0,0.0,0.0,0.0,0.0,0.0,0.0,0.0,0.0,0.0,0.0,0.0,0.0,0.0,0.0,0.0,0.0,0.0,0.0,0.0,0.0,0.0,0.0,0.0,0.0,0.0,0.0,0.0,0.0,0.0,0.0,0.0,0.0,0.0,0.0,0.0,0.0,0.0,0.0,0.0,0.0,0.0,0.0,0.0,0.0,0.0,0.0,0.0,0.0,0.0,0.0,0.0,0.0,0.0,0.0,0.0,0.0,0.0,0.0,0.0,0.0,0.0,0.0,0.0,0.0,0.0,0.0,0.0,0.0,0.0,0.0,0.0,0.0,0.0,0.0,0.0,0.0,0.0,0.0,0.0,0.0,0.0,0.0,0.0,0.0,0.0,0.0,0.0,0.0,0.0,0.0,0.0,0.0,0.0,0.0,0.0,0.0,0.0,0.0,0.0,0.0,0.0,0.0,0.0,0.0,0.0,0.0,0.0,0.0,0.0,0.0,0.0,0.0,0.0,0.0,0.0,0.0,0.0,0.0,0.0,0.0,0.0,0.0,0.0,0.0,0.0,0.0,0.0,0.0,0.0,0.0,0.0,0.0,0.0,0.0,0.0,0.0,0.0,0.0,0.0,0.0,0.0,0.0,0.0,0.0,0.0,0.0,0.0,0.0,0.0,0.0,0.0,0.0,0.0,0.0,0.0,0.0,0.0,0.0,0.0,0.0,0.0,0.0,0.0,0.0,0.0,0.0,0.0,0.0,0.0,0.0,0.0,0.0,0.0,0.0,0.0,0.0,0.0,0.0,0.0,0.0,0.0,0.0,0.0,0.0,0.0,0.0,0.0,0.0,0.0,0.0,0.0,0.0,0.0,0.0,0.0,0.0,0.0,0.0,0.0,0.0,0.0,0.0,0.0,0.0,0.0,0.0,0.0,0.0,0.0,0.0,0.0,0.0,0.0,0.0,0.0,0.0,0.0,0.0,0.0,0.0,0.0,0.0,0.0,0.0,0.0,0.0,0.0,0.0,0.0,0.0,0.0,0.0,0.0,0.0,0.0,0.0,0.0,0.0,0.0,0.0,0.0,0.0,0.0,0.0,0.0,0.0,0.0,0.0,0.0,0.0,0.0,0.0,0.0,0.0,0.0,0.0,0.0,0.0,0.0,0.0,0.0,0.0,0.0,0.0,0.0,0.0,0.0,0.0,0.0,0.0,0.0,0.0,0.0,0.0,0.0,0.0,0.0,0.0,0.0,0.0,0.0,0.0,0.0,0.0,0.0,0.0,0.0,0.0,0.0,0.0,0.0,0.0,0.0,0.0,0.0,0.0,0.0,0.0,0.0,0.0,0.0,0.0,0.0,0.0,0.0,0.0,0.0,0.0,0.0,0.0,0.0,0.0,0.0,0.0,0.0,0.0,0.0,0.0,0.0,0.0,0.0,0.0,0.0,0.0,0.0,0.0,0.0,0.0,0.0,0.0,0.0,0.0,0.0,0.0,0.0,0.0,0.0,0.0,0.0,0.0,0.0,0.0,0.0,0.0,0.0,0.0,0.0,0.0,0.0,0.0,0.0,0.0,0.0,0.0,0.0,0.0,0.0,0.0,0.0,0.0,0.0,0.0,0.0,0.0,0.0,0.0,0.0,0.0,0.0,0.0,0.0,0.0,0.0,0.0,0.0,0.0,0.0,0.0,0.0,0.0,0.0,0.0,0.0,0.0,0.0,0.0,0.0,0.0,0.0,0.0,0.0,0.0,0.0,0.0,0.0,0.0,0.0,0.0,0.0,0.0,0.0,0.0,0.0,0.0,0.0,0.0,0.0,0.0,0.0,0.0,0.0,0.0,0.0,0.0,0.0,0.0,0.0,0.0,0.0,0.0,0.0,0.0,0.0,0.0,0.0,0.0,0.0,0.0,0.0,0.0,0.0,0.0,0.0,0.0,0.0,0.0,0.0,0.0,0.0,0.0,0.0,0.0,0.0,0.0,0.0,0.0,0.0,0.0,0.0,0.0,0.0,0.0,0.0,0.0,0.0,0.0,0.0,0.0,0.0,0.0,0.0,0.0,0.0,0.0,0.0,0.0,0.0,0.0,0.0,0.0,0.0,0.0,0.0,0.0,0.0,0.0,0.0,0.0,0.0,0.0,0.0,0.0,0.0,0.0,0.0,0.0,0.0,0.0,0.0,0.0,0.0,0.0,0.0,0.0,0.0,0.0,0.0,0.0,0.0,0.0,0.0,0.0,0.0,0.0,0.0,0.0,0.0,0.0,0.0,0.0,0.0,0.0,0.0,0.0,0.0,0.0,0.0,0.0,0.0,0.0,0.0,0.0,0.0,0.0,0.0,0.0,0.0,0.0,0.0,0.0,0.0,0.0,0.0,0.0,0.0,0.0,0.0,0.0,0.0,0.0,0.0,0.0,0.0,0.0,0.0,0.0,0.0,0.0,0.0,0.0,0.0,0.0,0.0,0.0,0.0,0.0,0.0,0.0,0.0,0.0,0.0,0.0,0.0,0.0,0.0,0.0,0.0,0.0,0.0,0.0,0.0,0.0,0.0,0.0,0.0,0.0,0.0,0.0,0.0,0.0,0.0,0.0,0.0,0.0,0.0,0.0,0.0,0.0,0.0,0.0,0.0,0.0,0.0,0.0,0.0,0.0,0.0,0.0,0.0,0.0,0.0,0.0,0.0,0.0,0.0,0.0,0.0,0.0,0.0,0.0,0.0,0.0,0.0,0.0,0.0,0.0,0.0,0.0,0.0,0.0,0.0,0.0,0.0,0.0,0.0,0.0,0.0,0.0,0.0,0.0,0.0,0.0,0.0,0.0,0.0,0.0,0.0,0.0,0.0,0.0,0.0,0.0,0.0,0.0,0.0,0.0,0.0,0.0,0.0,0.0,0.0,0.0,0.0,0.0,0.0,0.0,0.0,0.0,0.0,0.0,0.0,0.0,0.0,0.0,0.0,0.0,0.0,0.0,0.0,0.0,0.0,0.0,0.0,0.0,0.0,0.0,0.0,0.0,0.0,0.0,0.0,0.0,0.0,0.0,0.0,0.0,0.0,0.0,0.0,0.0,0.0,0.0,0.0,0.0,0.0,0.0,0.0,0.0,0.0,0.0,0.0,0.0,0.0,0.0,0.0,0.0,0.0,0.0,0.0,0.0,0.0,0.0,0.0,0.0,0.0,0.0,0.0,0.0,0.0,0.0,0.0,0.0,0.0,0.0,0.0,0.0,0.0,0.0,0.0,0.0,0.0,0.0,0.0,0.0,0.0,0.0,0.0,0.0,0.0,0.0,0.0,0.0,0.0,0.0,0.0,0.0,0.0,0.0,0.0,0.0,0.0,0.0,0.0,0.0,0.0,0.0,0.0,0.0,0.0,0.0,0.0,0.0,0.0,0.0,0.0,0.0,0.0,0.0,0.0,0.0,0.0,0.0,0.0,0.0,0.0,0.0,0.0,0.0,0.0,0.0,0.0,0.0,0.0,0.0,0.0,0.0,0.0,0.0,0.0,0.0,0.0,0.0,0.0,0.0,0.0,0.0,0.0,0.0,0.0,0.0,0.0,0.0,0.0,0.0,0.0,0.0,0.0,0.0,0.0,0.0,0.0,0.0,0.0,0.0,0.0,0.0,0.0,0.0,0.0,0.0,0.0,0.0,0.0,0.0,0.0,0.0,0.0,0.0,0.0,0.0,0.0,0.0,0.0,0.0,0.0,0.0,0.0,0.0,0.0,0.0,0.0,0.0,0.0,0.0,0.0,0.0,0.0,0.0,0.0,0.0,0.0,0.0,0.0,0.0,0.0,0.0,0.0,0.0,0.0,0.0,0.0,0.0,0.0,0.0,0.0,0.0,0.0,0.0,0.0,0.0,0.0,0.0,0.0,0.0,0.0,0.0,0.0,0.0,0.0,0.0,0.0,0.0,0.0,0.0,0.0,0.0,0.0,0.0,0.0,0.0,0.0,0.0,0.0,0.0,0.0,0.0,0.0,0.0,0.0,0.0,0.0,0.0,0.0,0.0,0.0,0.0,0.0,0.0,0.0,0.0,0.0,0.0,0.0,0.0,0.0,0.0,0.0,0.0,0.0,0.0,0.0,0.0,0.0,0.0,0.0,0.0,0.0,0.0,0.0,0.0,0.0,0.0,0.0,0.0,0.0,0.0,0.0,0.0,0.0,0.0,0.0,0.0,0.0,0.0,0.0,0.0,0.0,0.0,0.0,0.0,0.0,0.0,0.0,0.0,0.0,0.0,0.0,0.0,0.0,0.0,0.0,0.0,0.0,0.0,0.0,0.0,0.0,0.0,0.0,0.0,0.0,0.0,0.0,0.0,0.0,0.0,0.0,0.0,0.0,0.0,0.0,0.0,0.0,0.0,0.0,0.0,0.0,0.0,0.0,0.0,0.0,0.0,0.0,0.0,0.0,0.0,0.0,0.0,0.0,0.0,0.0,0.0,0.0,0.0,0.0,0.0,0.0,0.0,0.0,0.0,0.0,0.0,0.0,0.0,0.0,0.0,0.0,0.0,0.0,0.0,0.0,0.0,0.0,0.0,0.0,0.0,0.0,0.0,0.0,0.0,0.0,0.0,0.0,0.0,0.0,0.0,0.0,0.0,0.0,0.0,0.0,0.0,0.0,0.0,0.0,0.0,0.0,0.0,0.0,0.0,0.0,0.0,0.0,0.0,0.0,0.0,0.0,0.0,0.0,0.0,0.0,0.0,0.0,0.0,0.0,0.0,0.0,0.0,0.0,0.0,0.0,0.0,0.0,0.0,0.0,0.0,0.0,0.0,0.0,0.0,0.0,0.0,0.0,-2.8312,-2.8288,0.0,0.0,0.0,0.0,0.0,0.0,0.0,0.0,0.0,0.0,0.0,0.0,0.0,0.0,0.0,0.0,0.0,0.0,0.0,0.0,0.0,0.0,0.0,0.0,0.0,0.0,0.0,0.0,0.0,0.0,0.0,0.0,0.0,0.0,0.0,0.0,0.0,0.0,0.0,0.0,0.0,0.0,0.0,0.0,0.0,0.0,0.0,0.0,0.0,0.0,0.0,0.0,0.0,0.0,0.0,0.0,0.0,0.0,0.0,0.0,0.0,0.0,0.0,0.0,0.0,0.0,0.0,0.0,0.0,0.0,0.0,0.0,0.0,0.0,0.0,0.0,0.0,0.0,0.0,0.0,0.0,0.0,0.0,0.0,0.0,0.0,0.0,0.0,0.0,0.0,0.0,0.0,0.0,0.0,0.0,0.0,0.0,0.0,0.0,0.0,0.0,0.0,0.0,0.0,0.0,0.0,0.0,0.0,0.0,0.0,0.0,0.0,0.0,0.0,-2.9613,-2.9565,0.0,0.0,0.0,0.0,0.0,0.0,0.0,0.0,0.0,0.0,0.0,0.0,0.0,0.0,0.0,0.0,0.0,0.0,0.0,0.0,0.0,0.0,0.0,0.0,0.0,0.0,0.0,0.0,0.0,0.0,0.0,0.0,0.0,0.0,0.0,0.0,0.0,0.0,0.0,0.0,0.0,0.0,0.0,0.0,0.0,0.0,0.0,0.0,0.0,0.0,0.0,0.0,0.0,0.0,0.0,0.0,0.0,0.0,0.0,0.0,0.0,0.0,0.0,0.0,0.0,0.0,0.0,0.0,0.0,0.0,0.0,0.0,0.0,0.0,0.0,0.0,0.0,0.0,0.0,0.0,0.0,0.0,0.0,0.0,0.0,0.0,0.0,0.0,0.0,0.0,0.0,0.0,0.0,0.0,0.0,0.0,0.0,0.0,0.0,0.0,0.0,0.0,0.0,0.0,0.0,0.0,0.0,0.0,-2.9961,-3.0114,-3.0365,-3.0365,-3.0418,-3.054,-3.0593,-3.0516,-3.0409,-3.0529,0.0,0.0,0.0,0.0,0.0,0.0,0.0,0.0,0.0,0.0,0.0,0.0,0.0,0.0,0.0,0.0,0.0,0.0,0.0,0.0,0.0,0.0,0.0,0.0,0.0,0.0,0.0,0.0,0.0,0.0,0.0,0.0,0.0,0.0,0.0,0.0,0.0,0.0,-2.1575,-2.2488,-2.3324,-2.4083,-2.5611,0.0,0.0,0.0,0.0,0.0,0.0,0.0,0.0,0.0,0.0,0.0,0.0,0.0,0.0,0.0,0.0,0.0,0.0,0.0,0.0,0.0,0.0,0.0,0.0,0.0,0.0,0.0,0.0,0.0,0.0,0.0,0.0,0.0,0.0,0.0,0.0,0.0,0.0,0.0,0.0,0.0,0.0,0.0,-2.4852,-2.5163,0.0,0.0,0.0,0.0,0.0,0.0,0.0,0.0,0.0,0.0,0.0,0.0,0.0,-2.8233,-2.8612,-2.9169,-2.9813,-3.0624,-3.0803,-3.1162,-3.1723,-3.1875,-3.1931,-3.1931,-3.2081,0.0,-3.1243,-3.1259,0.0,0.0,0.0,0.0,0.0,0.0,0.0,0.0,0.0,0.0,0.0,0.0,0.0,0.0,0.0,0.0,0.0,0.0,0.0,0.0,0.0,0.0,0.0,0.0,0.0,0.0,0.0,0.0,0.0,0.0,0.0,0.0,0.0,0.0,0.0,0.0,-2.1402,-2.1617,-2.1784,-2.2604,-2.3212,-2.3706,-2.5228,-2.6185,-2.664,-2.6759,0.0,0.0,0.0,0.0,0.0,0.0,0.0,0.0,0.0,0.0,0.0,0.0,0.0,0.0,0.0,0.0,0.0,0.0,0.0,0.0,0.0,0.0,0.0,0.0,0.0,0.0,0.0,0.0,0.0,0.0,0.0,0.0,0.0,0.0,0.0,0.0,0.0,0.0,0.0,-2.4699,-2.4866,-2.5322,-2.4732,-2.4221,0.0,0.0,0.0,0.0,0.0,0.0,0.0,0.0,0.0,-2.7257,-2.8454,-2.9274,-2.9699,-3.0533,-3.1157,-3.1597,-3.1692,-3.1956,-3.2247,-3.2302,-3.2287,-3.2302,-3.2398,-3.2283,-3.2075,-3.2006,-3.2021,-3.2114,0.0,0.0,0.0,0.0,-3.3113,-3.3547,0.0,0.0,0.0,0.0,0.0,0.0,0.0,0.0,0.0,0.0,0.0,0.0,0.0,0.0,0.0,-2.231,0.0,0.0,0.0,0.0,0.0,0.0,0.0,0.0,0.0,0.0,0.0,0.0,-2.1678,-2.1827,-2.1991,-2.2601,-2.3042,-2.3401,-2.4808,-2.5824,-2.6537,-2.6856,-2.704,0.0,0.0,0.0,0.0,0.0,0.0,0.0,0.0,0.0,0.0,0.0,0.0,0.0,0.0,0.0,0.0,0.0,0.0,0.0,0.0,0.0,0.0,0.0,0.0,0.0,0.0,0.0,0.0,0.0,0.0,0.0,0.0,0.0,0.0,0.0,0.0,0.0,0.0,-2.5048,-2.5088,-2.5764,-2.5316,-2.4891,0.0,0.0,0.0,0.0,0.0,0.0,-2.6343,-2.6961,-2.7682,-2.844,-2.9392,-3.0133,-3.0607,-3.1498,-3.2094,-3.2247,-3.2342,-3.2398,-3.2398,-3.2398,-3.2398,-3.2398,-3.2453,-3.2523,-3.2648,-3.2523,-3.2633,-3.285,-3.3043,-3.3346,-3.3797,-3.405,-3.4448,-3.4899,0.0,0.0,0.0,0.0,0.0,0.0,0.0,0.0,0.0,0.0,0.0,0.0,0.0,0.0,-2.231,-2.231,-2.2061,-2.184,0.0,0.0,0.0,0.0,0.0,0.0,0.0,0.0,0.0,-2.1678,-2.1811,-2.1974,-2.2185,-2.2219,-2.2676,-2.3527,-2.4504,-2.5305,-2.5997,-2.6825,-2.7261,-2.7373,0.0,0.0,0.0,0.0,0.0,0.0,0.0,0.0,0.0,0.0,0.0,0.0,0.0,0.0,0.0,0.0,0.0,0.0,0.0,0.0,0.0,0.0,0.0,0.0,0.0,0.0,0.0,0.0,0.0,0.0,0.0,0.0,0.0,0.0,0.0,0.0,0.0,0.0,0.0,-2.6982,-2.6316,0.0,0.0,0.0,0.0,-2.6582,-2.6694,-2.7003,-2.765,-2.8268,-2.8799,-2.914,-3.0086,-3.0807,-3.1435,-3.1781,-3.215,-3.2398,-3.2398,-3.2398,-3.2398,-3.2398,-3.2398,-3.2398,-3.2523,-3.2703,-3.2843,-3.2648,-3.2904,-3.345,-3.3607,-3.4,-3.4497,-3.4739,-3.5041,-3.5291,0.0,0.0,0.0,0.0,0.0,0.0,0.0,0.0,0.0,0.0,0.0,0.0,0.0,-2.231,-2.231,-2.231,-2.2061,-2.184,-2.1724,0.0,0.0,0.0,0.0,0.0,0.0,0.0,-2.1691,-2.1882,-2.202,-2.2152,-2.2271,-2.231,-2.253,-2.2914,-2.3846,-2.4757,-2.5651,-2.6981,-2.7595,-2.7742,-2.7893,-2.8035,0.0,0.0,0.0,0.0,0.0,0.0,0.0,0.0,0.0,0.0,0.0,0.0,0.0,0.0,0.0,0.0,0.0,0.0,0.0,0.0,0.0,0.0,0.0,0.0,0.0,0.0,0.0,0.0,0.0,0.0,0.0,0.0,0.0,0.0,0.0,0.0,0.0,-2.8606,-2.8121,0.0,-2.765,-2.72,-2.7046,-2.7397,-2.779,-2.8127,-2.8352,-2.9321,-3.0058,-3.0553,-3.1453,-3.206,-3.2255,-3.2604,-3.2675,-3.2398,-3.2398,-3.2453,-3.2523,-3.2523,-3.2594,-3.2718,-3.2881,-3.3043,-3.3309,-3.3382,-3.3591,-3.3797,-3.4,-3.4676,-3.5481,-3.5787,-3.6025,-3.6241,0.0,0.0,0.0,0.0,0.0,0.0,0.0,0.0,0.0,0.0,0.0,-2.2487,-2.231,-2.231,-2.231,-2.231,-2.2061,-2.1869,-2.1738,0.0,0.0,0.0,0.0,0.0,0.0,-2.1631,-2.1886,-2.2061,-2.218,-2.2254,-2.2338,-2.2405,-2.2487,-2.264,-2.3632,-2.4638,-2.5658,-2.7086,-2.7851,-2.811,-2.8291,-2.844,-2.8525,0.0,0.0,0.0,0.0,0.0,0.0,0.0,0.0,0.0,0.0,0.0,0.0,0.0,0.0,0.0,0.0,0.0,0.0,0.0,0.0,0.0,0.0,0.0,0.0,0.0,0.0,0.0,0.0,0.0,0.0,0.0,0.0,0.0,0.0,-2.8122,-2.8463,-2.9552,-2.9237,-2.8978,-2.8984,-2.867,-2.8495,-2.8559,-2.888,-2.9045,-2.8998,-2.982,-3.0608,-3.1248,-3.209,-3.264,-3.305,-3.3419,-3.3372,-3.2863,-3.2903,-3.2974,-3.3029,-3.2811,-3.2897,-3.3318,-3.3244,-3.345,-3.3797,-3.4101,-3.4333,-3.448,-3.4578,-3.5164,-3.5978,-3.6165,-3.6349,-3.6486,0.0,0.0,0.0,0.0,0.0,0.0,0.0,0.0,0.0,0.0,-2.2738,-2.2542,-2.2338,-2.231,-2.231,-2.231,-2.2118,-2.194,-2.1811,-2.1419,0.0,0.0,0.0,0.0,-2.1507,-2.1853,-2.2089,-2.2214,-2.2282,-2.2338,-2.2405,-2.2487,-2.2649,-2.2911,-2.3942,-2.4988,-2.6043,-2.7139,-2.7967,-2.8543,-2.8669,-2.8767,-2.8839,0.0,0.0,0.0,0.0,0.0,0.0,0.0,0.0,0.0,0.0,0.0,0.0,0.0,0.0,0.0,0.0,0.0,0.0,0.0,0.0,0.0,0.0,0.0,0.0,0.0,0.0,0.0,0.0,0.0,0.0,0.0,0.0,0.0,-2.8327,-2.8728,-2.928,-2.9803,-2.9624,-2.9644,-3.0098,-2.9697,-2.9619,-3.0068,-2.996,-2.9761,-2.9665,-2.9789,-3.0321,-3.1325,-3.1863,-3.2599,-3.3743,-3.4314,-3.4268,-3.3758,-3.3839,-3.388,-3.3904,-3.3209,-3.3349,-3.4077,-3.3683,-3.3848,-3.4349,-3.4739,-3.5211,-3.5577,-3.5316,-3.5487,-3.5851,-3.5983,-3.6053,-3.6053,0.0,0.0,0.0,0.0,0.0,0.0,0.0,0.0,0.0,0.0,-2.2868,-2.2659,-2.246,-2.2405,-2.2349,-2.231,-2.2118,-2.194,-2.1811,0.0,0.0,0.0,0.0,0.0,-2.1853,-2.2147,-2.2332,-2.2405,-2.2487,-2.2569,-2.2605,-2.279,-2.3274,-2.4045,-2.4534,-2.5654,-2.7167,-2.7677,-2.8421,-2.9228,-2.9101,-2.9123,-2.9249,0.0,0.0,0.0,0.0,0.0,0.0,0.0,0.0,0.0,0.0,0.0,0.0,0.0,0.0,0.0,0.0,0.0,0.0,0.0,0.0,0.0,0.0,0.0,0.0,0.0,0.0,0.0,0.0,0.0,0.0,0.0,-3.0141,-3.0994,-3.0566,-3.0562,-3.0823,-3.1454,-3.1252,-3.1087,-3.1081,-3.0763,-3.0602,-3.0598,-3.0447,-3.0387,-3.0341,-3.0758,-3.154,-3.2679,-3.354,-3.4302,-3.5003,-3.5393,-3.5229,-3.4556,-3.4114,-3.392,-3.4015,-3.3448,-3.3403,-3.381,-3.3979,-3.4349,-3.4739,-3.5118,-3.5515,-3.5888,-3.5711,-3.6095,-3.6768,-3.6795,-3.6857,-3.6791,0.0,0.0,0.0,0.0,0.0,0.0,0.0,0.0,0.0,0.0,-2.302,-2.2816,-2.2623,-2.2525,-2.246,-2.2377,-2.2248,-2.2101,-2.194,0.0,0.0,0.0,0.0,-2.2027,-2.2298,-2.2453,-2.2605,-2.2659,-2.2747,-2.2833,-2.2917,-2.353,-2.4159,-2.481,-2.5448,-2.6521,-2.7867,-2.8146,-2.8801,-2.9661,-2.9605,-2.957,-2.957,-2.9608,-2.9945,-3.0415,-3.0753,-3.1205,-3.158,-3.1389,0.0,0.0,0.0,0.0,0.0,0.0,0.0,0.0,0.0,0.0,0.0,0.0,0.0,0.0,0.0,0.0,0.0,0.0,0.0,0.0,0.0,0.0,0.0,0.0,-3.1953,-3.2631,-3.2524,-3.2106,-3.1912,-3.2241,-3.2079,-3.191,-3.1781,-3.1495,-3.1263,-3.1131,-3.097,-3.0866,-3.0747,-3.1158,-3.1898,-3.3036,-3.3985,-3.4836,-3.5596,-3.6175,-3.6009,-3.5049,-3.4785,-3.4549,-3.4343,-3.3821,-3.387,-3.4368,-3.448,-3.4787,-3.5211,-3.5515,-3.5827,-3.6105,0.0,0.0,0.0,0.0,-3.6612,-3.6319,0.0,0.0,0.0,0.0,0.0,0.0,0.0,0.0,0.0,0.0,0.0,-2.297,-2.2764,-2.2659,-2.2596,-2.2542,-2.246,-2.236,0.0,0.0,0.0,-2.2096,-2.2248,-2.2456,-2.2773,-2.2876,-2.2927,-2.2985,-2.3122,-2.3248,-2.3328,-2.4346,-2.5056,-2.5458,-2.6507,-2.7493,-2.8425,-2.8666,-2.9243,-2.998,-3.0092,-3.0028,-2.9848,-2.9848,-2.9937,-3.0193,-3.101,-3.1358,-3.1535,-3.2257,0.0,0.0,0.0,0.0,0.0,0.0,0.0,0.0,0.0,0.0,0.0,0.0,0.0,0.0,0.0,0.0,0.0,0.0,0.0,0.0,0.0,0.0,0.0,0.0,-3.3909,-3.3916,-3.4171,-3.3404,-3.2726,-3.2453,-3.2287,-3.2247,-3.2247,-3.1966,-3.1724,-3.161,-3.1452,-3.1336,-3.1146,-3.1336,0.0,0.0,0.0,-3.4673,-3.5636,-3.6526,-3.6447,-3.5387,-3.5451,-3.5211,-3.4718,-3.4169,-3.4441,-3.5263,-3.502,-3.5211,-3.5667,-3.5932,-3.6097,-3.618,-3.6216,-3.6251,-3.6284,-3.6197,-3.5749,-3.5203,0.0,0.0,0.0,0.0,0.0,0.0,0.0,0.0,0.0,-2.3562,-2.3407,-2.3241,-2.3028,-2.2868,-2.2738,-2.2659,-2.2605,-2.2544,0.0,0.0,-2.2512,-2.2721,-2.2923,-2.3117,-2.3341,-2.3455,-2.3522,-2.3552,-2.3687,-2.3812,-2.3929,-2.4319,-2.529,-2.6752,-2.7135,-2.8194,-2.9665,-2.9826,-3.0056,-3.0312,-3.0379,-3.034,-3.0203,-3.0196,-3.0643,-3.1379,-3.2231,-3.296,-3.3552,-3.3635,-3.3633,-3.3418,-3.2665,0.0,0.0,0.0,0.0,0.0,0.0,0.0,0.0,0.0,0.0,0.0,0.0,0.0,0.0,0.0,0.0,0.0,0.0,0.0,0.0,-3.4412,-3.5397,-3.5743,-3.4782,-3.4409,-3.3817,-3.2695,-3.2453,-3.2342,-3.2342,-3.2191,-3.2079,-3.2079,-3.2023,-3.2023,-3.1966,-3.212,-3.2594,-3.347,-3.3779,-3.4379,-3.5351,-3.5751,-3.5856,-3.5696,-3.5122,0.0,-3.4824,-3.4424,-3.453,-3.5002,-3.5215,-3.5515,-3.5932,-3.6079,-3.5847,-3.5473,-3.6035,-3.6301,-3.6215,-3.5676,-3.5405,-3.5151,0.0,0.0,0.0,0.0,0.0,0.0,0.0,0.0,0.0,0.0,-2.3544,-2.3401,-2.3217,-2.3045,-2.2902,-2.2868,-2.2884,0.0,0.0,-2.3082,-2.3182,-2.3348,-2.3505,-2.3674,-2.3911,-2.3988,-2.4063,-2.4099,-2.4234,-2.4358,-2.4458,-2.5096,-2.6128,-2.742,-2.8028,-2.9023,-3.0259,-3.0366,-3.0455,-3.0559,-3.0594,-3.0587,-3.0542,-3.0472,-3.0714,-3.1207,-3.2086,-3.2919,-3.3652,-3.4048,-3.4443,-3.4661,-3.4155,-3.3918,-3.368,0.0,0.0,0.0,0.0,0.0,0.0,0.0,0.0,0.0,0.0,0.0,0.0,0.0,0.0,-3.3877,0.0,0.0,-3.5596,-3.6488,-3.6754,-3.6615,-3.5841,-3.5117,-3.4159,-3.2765,-3.2523,-3.2453,-3.2398,-3.2413,-3.2413,-3.2413,-3.2484,-3.2554,-3.2554,-3.2594,-3.2858,-3.338,-3.3858,-3.4368,-3.4881,-3.5521,-3.5684,-3.5439,-3.5227,-3.4959,-3.4821,-3.4807,-3.493,-3.5148,-3.5515,-3.5623,-3.5463,-3.5246,-3.4973,-3.4743,-3.5106,-3.5244,-3.5209,-3.4988,-3.4627,-3.4213,0.0,0.0,0.0,0.0,0.0,0.0,0.0,0.0,0.0,0.0,-2.3656,-2.3517,-2.336,-2.3241,-2.3151,0.0,0.0,0.0,0.0,-2.3705,-2.3814,-2.3971,-2.41,-2.4276,-2.4463,-2.4501,-2.4568,-2.4638,-2.4755,-2.4843,-2.4898,-2.5955,-2.6922,-2.7779,-2.8773,-2.971,-3.0521,-3.0582,-3.0632,-3.0697,-3.07,-3.0723,-3.0761,-3.0657,-3.062,-3.075,-3.1629,-3.2343,-3.3024,-3.3882,-3.47,-3.5369,-3.5306,-3.5249,-3.5008,-3.4068,-3.3606,0.0,0.0,0.0,0.0,0.0,0.0,0.0,0.0,0.0,-3.6247,-3.602,-3.634,-3.681,-3.7194,-3.7204,-3.7408,-3.8321,-3.7836,-3.7168,-3.665,-3.5613,-3.4393,-3.3036,-3.2742,-3.2648,-3.2523,-3.2578,-3.2695,-3.2819,-3.2959,-3.3052,-3.3192,-3.3121,-3.315,-3.3256,-3.3921,-3.4314,-3.4489,-3.5315,-3.5473,-3.5045,-3.5315,-3.5136,-3.4589,-3.4964,-3.5127,-3.5076,-3.5445,-3.5317,-3.4782,-3.4162,-3.393,-3.3973,-3.3894,-3.3862,-3.3917,-3.4204,-3.3929,-3.3423,0.0,0.0,0.0,0.0,0.0,0.0,0.0,0.0,0.0,0.0,0.0,0.0,0.0,0.0,0.0,0.0,0.0,0.0,-2.4118,-2.4227,-2.4398,-2.4576,-2.4742,-2.4865,-2.5004,-2.502,-2.5054,-2.5124,-2.5205,-2.5206,-2.5173,-2.6181,-2.7109,-2.7929,-2.8862,-2.9775,-3.0593,-3.0591,-3.0648,-3.0701,-3.069,-3.0696,-3.0716,-3.0681,-3.0738,-3.0895,-3.1766,-3.2101,-3.224,-3.3057,-3.3903,-3.4609,-3.4536,-3.4484,-3.4391,-3.4202,0.0,-3.2797,-3.3279,-3.374,-3.426,-3.4932,-3.5018,-3.5243,0.0,0.0,-3.752,-3.7888,-3.8238,-3.8442,-3.8287,-3.8611,-3.8696,-3.806,-3.8319,-3.807,-3.647,-3.5927,-3.5249,-3.4081,-3.3293,-3.2843,-3.2843,-3.2843,-3.3092,-3.3724,-3.3426,-3.3508,-3.4092,-3.3926,-3.3813,-3.3797,-3.4014,-3.4264,-3.4513,-3.4595,-3.4742,-3.4919,-3.5063,-3.4822,-3.418,-3.4482,-3.4329,-3.3919,-3.4197,-3.4283,-3.4145,-3.3502,-3.3211,-3.3179,-3.2809,-3.2736,-3.2841,-3.3477,-3.3741,-3.3788,0.0,0.0,0.0,0.0,0.0,0.0,0.0,0.0,0.0,0.0,0.0,0.0,0.0,0.0,0.0,0.0,0.0,0.0,-2.4538,-2.4685,-2.4841,-2.5048,-2.5139,-2.5228,-2.5332,-2.5294,-2.5288,-2.5326,-2.5312,-2.5537,-2.596,-2.6388,-2.7278,-2.8551,-2.895,-2.9613,-3.0423,-3.0428,-3.0455,-3.0535,-3.0521,-3.0556,-3.0582,-3.0582,-3.0302,-3.0044,-3.0997,-3.1656,0.0,0.0,-3.3132,-3.3844,-3.3834,-3.3763,-3.3712,-3.3627,-3.3248,0.0,-3.3557,-3.3809,-3.4327,-3.5932,-3.6186,-3.6463,-3.837,-3.917,-3.9625,-4.0012,-4.04,-4.0525,-4.0099,-4.0006,-3.972,0.0,-3.8461,-3.7891,-3.667,-3.5883,-3.5262,-3.4691,-3.4134,-3.371,-3.3414,-3.3309,-3.3419,-3.3741,-3.3714,-3.3822,-3.4146,-3.4161,-3.4151,-3.425,-3.4399,-3.4529,-3.4658,-3.4883,-3.5024,-3.5195,-3.4975,-3.4711,-3.4418,-3.4236,-3.411,-3.3968,-3.371,-3.3557,-3.3526,-3.2837,-3.2632,-3.2739,-3.2663,-3.2719,-3.2934,-3.3191,-3.338,-3.3486,0.0,0.0,0.0,0.0,0.0,0.0,0.0,0.0,0.0,0.0,0.0,0.0,0.0,0.0,0.0,0.0,0.0,0.0,0.0,-2.5006,-2.5156,-2.5348,-2.5401,-2.5447,-2.5468,-2.5416,-2.534,-2.5293,-2.5226,-2.5573,-2.6303,-2.6544,-2.7419,-2.8774,-2.9052,-2.9532,-3.0138,-3.0177,-3.0232,-3.029,-3.0301,-3.0362,-3.0383,-3.0162,-2.9728,-2.9347,-3.0113,-3.0793,0.0,0.0,-3.2126,-3.3046,-3.304,-3.3007,-3.2954,-3.2903,-3.2811,-3.2822,-3.3423,-3.3662,-3.4298,-3.6647,-3.7036,-3.7474,-3.9714,-4.0456,-4.0796,-4.1216,-4.1399,-4.1333,-4.0858,-4.0457,-3.9846,-3.8862,-3.8172,-3.7495,-3.6639,-3.5852,-3.54,-3.5492,-3.526,-3.5005,-3.4854,-3.4403,-3.4217,-3.4462,-3.4438,-3.4477,-3.4577,-3.4595,-3.4643,-3.4723,-3.4883,-3.5008,-3.5068,-3.5103,-3.5155,-3.5256,-3.4703,-3.4389,-3.4167,-3.3625,-3.346,-3.3616,-3.3134,-3.2963,-3.2983,-3.2529,-3.2438,-3.2588,-3.2535,-3.2665,-3.2865,-3.2661,-3.2773,-3.2984,0.0,0.0,0.0,0.0,0.0,0.0,0.0,0.0,0.0,0.0,0.0,0.0,0.0,0.0,0.0,0.0,0.0,0.0,0.0,-2.5182,-2.5341,-2.5492,-2.5507,-2.5478,-2.5405,-2.5346,-2.5203,-2.5011,-2.495,-2.5221,-2.5831,-2.6682,-2.7464,-2.8166,-2.9137,-2.9639,-2.9731,-2.9864,-2.9958,-3.0022,-3.0075,-3.015,-3.0132,-2.9334,-2.9079,-2.9128,-2.9284,0.0,0.0,0.0,-3.0716,-3.2134,-3.2131,-3.2142,0.0,-3.2137,-3.2036,-3.2081,-3.2832,-3.3547,-3.4663,-3.6999,-3.7433,-3.7853,-4.0084,-4.0347,-4.0277,-4.0877,-4.0564,-4.0085,-3.9811,-3.9346,-3.8703,-3.7638,-3.7377,-3.7031,-3.6156,-3.5861,-3.6044,-3.6741,-3.6658,-3.6868,-3.7672,-3.6439,-3.5807,-3.6443,-3.6007,-3.5762,-3.5844,-3.5471,-3.5321,-3.5379,-3.5515,-3.5622,-3.5773,-3.5077,-3.4789,-3.4899,-3.4254,-3.3556,-3.2835,-3.2216,-3.2089,-3.2249,-3.2301,-3.2405,-3.2525,-3.2621,-3.2716,-3.2723,-3.2218,-3.2151,-3.2265,-3.1571,-3.1808,-3.2429,0.0,0.0,0.0,0.0,0.0,0.0,0.0,0.0,0.0,0.0,0.0,0.0,0.0,0.0,0.0,0.0,0.0,0.0,0.0,-2.5274,-2.5428,-2.5553,-2.5515,-2.5454,-2.534,-2.5135,-2.4943,-2.4728,-2.4523,-2.4774,-2.5412,-2.5651,-2.644,-2.7665,-2.8125,-2.8695,-2.9299,-2.9437,-2.9588,-2.9732,-2.9767,-2.9869,-2.9965,-2.9711,-2.8979,-2.8133,0.0,0.0,0.0,0.0,0.0,-2.945,-2.9496,-2.951,-2.962,-3.0214,-3.1122,-3.2136,-3.2927,-3.3701,-3.4739,-3.6617,-3.6944,-3.7283,-3.9012,-3.9214,-3.9196,-3.977,-3.951,-3.9192,-3.9283,-3.8961,-3.8473,-3.7823,-3.7654,-3.7283,-3.6319,-3.6174,-3.638,-3.709,-3.7013,0.0,0.0,-3.7664,-3.677,-3.6602,-3.6449,-3.6145,-3.5719,-3.5667,-3.5684,-3.5783,-3.5368,-3.5198,-3.5266,-3.4531,-3.4254,-3.4375,-3.368,-3.3035,-3.2383,-3.2336,-3.2404,-3.2555,-3.2687,-3.2834,-3.2862,-3.2432,-3.2307,-3.2342,-3.1701,-3.1546,-3.1616,-3.1444,-3.1187,-3.1016,0.0,0.0,0.0,0.0,0.0,0.0,0.0,0.0,0.0,0.0,0.0,0.0,0.0,0.0,0.0,0.0,0.0,0.0,0.0,0.0,-2.5489,-2.5604,-2.5516,-2.5383,-2.5197,-2.4917,-2.4644,-2.4386,-2.4118,-2.4288,-2.49,-2.487,-2.5505,-2.6723,-2.6928,-2.7528,-2.8421,-2.8658,-2.8994,-2.9436,-2.9532,-2.9663,-2.9805,-2.9569,-2.8882,0.0,0.0,0.0,0.0,0.0,0.0,-2.8061,-2.8112,-2.8343,-2.8705,-2.9286,-3.0442,-3.1777,-3.2938,-3.3597,-3.4443,-3.6428,-3.6813,-3.7065,-3.8272,-3.8393,-3.8327,-3.8577,-3.8327,-3.8061,-3.8091,-3.7805,-3.7541,-3.7337,-3.7229,-3.7015,-3.652,-3.6402,-3.6594,-3.7283,-3.7298,-3.7751,0.0,0.0,-3.7682,-3.7225,-3.7191,-3.6797,-3.5851,-3.5905,-3.5856,-3.5711,-3.5248,-3.4895,-3.4702,-3.3905,-3.3485,-3.3325,-3.2954,-3.2632,-3.2318,-3.2472,-3.2654,-3.283,-3.3055,-3.3178,-3.3184,-3.2459,-3.219,-3.2201,-3.1217,-3.0856,-3.0894,-3.0626,-3.0233,-2.9921,0.0,0.0,0.0,0.0,0.0,0.0,0.0,0.0,0.0,0.0,0.0,0.0,0.0,0.0,0.0,0.0,0.0,0.0,0.0,0.0,0.0,-2.5605,-2.5479,-2.5278,-2.5019,-2.4666,-2.4353,-2.4001,-2.3717,-2.3848,-2.4332,-2.4325,-2.4715,-2.5438,-2.563,-2.6244,-2.7126,-2.7479,-2.8121,-2.8997,-2.9243,-2.9476,-2.9567,-2.8931,0.0,0.0,0.0,0.0,0.0,0.0,0.0,-2.7918,-2.7918,-2.8555,-2.9305,-2.9371,-3.0034,-3.1125,-3.282,-3.3275,-3.3866,-3.6394,-3.6996,-3.7131,-3.7821,-3.7834,-3.7625,-3.7352,-3.7043,-3.6694,0.0,0.0,-3.6009,-3.6291,-3.6185,-3.6244,-3.6661,-3.6585,-3.6738,0.0,0.0,0.0,0.0,0.0,-3.8487,-3.8208,-3.8145,-3.7575,-3.6294,-3.6191,-3.5872,-3.5214,-3.5111,-3.4749,-3.4042,-3.3248,-3.2547,-3.193,-3.2126,-3.2318,-3.2523,-3.2687,-3.288,-3.3147,-3.3316,-3.3452,-3.3465,-3.2721,-3.2429,-3.229,-3.0716,-3.0143,-3.0044,-2.9292,-2.9062,-2.92,0.0,0.0,0.0,0.0,0.0,0.0,0.0,0.0,0.0,0.0,0.0,0.0,0.0,0.0,0.0,0.0,0.0,0.0,0.0,0.0,0.0,0.0,0.0,0.0,0.0,0.0,0.0,0.0,0.0,-2.3425,-2.3358,-2.3197,-2.3589,-2.439,-2.4541,-2.5171,-2.6111,-2.6381,-2.6763,-2.7166,0.0,-2.7922,-2.8652,0.0,0.0,0.0,0.0,0.0,0.0,0.0,0.0,0.0,-2.6959,-2.7999,-2.924,-2.9256,-3.035,-3.1831,-3.2932,-3.3691,-3.4475,-3.5801,-3.6152,-3.6213,-3.6348,-3.6316,-3.6182,-3.5957,-3.5637,-3.5507,0.0,0.0,0.0,-3.6699,-3.704,0.0,-3.7013,-3.6851,0.0,-3.7499,0.0,-3.7784,-3.8525,-3.8594,0.0,-3.7713,-3.7679,-3.7249,-3.631,-3.5742,-3.5404,-3.5197,-3.4093,-3.3404,-3.3214,-3.2513,-3.2138,-3.2144,-3.237,-3.2639,-3.2898,-3.3117,-3.3316,-3.3473,-3.3577,-3.3643,-3.3652,-3.2865,-3.2239,-3.1648,-3.0643,-2.9918,-2.9451,-2.927,-2.9218,-2.9277,0.0,0.0,0.0,0.0,0.0,0.0,0.0,0.0,0.0,0.0,0.0,0.0,0.0,0.0,0.0,0.0,0.0,0.0,0.0,0.0,0.0,0.0,0.0,0.0,0.0,0.0,0.0,0.0,0.0,0.0,0.0,-2.2902,-2.3041,-2.3537,-2.3624,-2.4224,-2.5176,0.0,0.0,0.0,0.0,0.0,0.0,0.0,0.0,0.0,0.0,0.0,0.0,0.0,0.0,-2.6584,-2.696,-2.8022,-2.9115,-2.9147,0.0,-3.1429,-3.231,-3.2943,-3.3576,-3.4489,-3.4726,-3.4763,-3.4752,-3.4686,-3.471,-3.4932,-3.4721,-3.4658,-3.5117,-3.5566,-3.6039,0.0,0.0,0.0,-3.7188,-3.697,-3.6905,0.0,-3.6765,0.0,-3.706,-3.6801,-3.6577,-3.649,-3.7111,-3.7129,-3.6335,-3.5594,-3.5042,-3.4714,-3.3542,-3.2786,-3.2478,-3.2156,-3.2126,-3.2336,-3.2639,-3.288,-3.3099,-3.3375,-3.3549,-3.3661,-3.3726,-3.3551,-3.322,-3.2438,-3.1679,-3.0959,-3.0157,-2.9632,-2.9307,-2.9349,-2.9409,-2.9429,0.0,0.0,0.0,0.0,0.0,0.0,0.0,0.0,0.0,0.0,0.0,0.0,0.0,0.0,0.0,0.0,0.0,0.0,0.0,0.0,0.0,0.0,0.0,0.0,0.0,0.0,0.0,0.0,0.0,0.0,0.0,0.0,0.0,0.0,0.0,0.0,0.0,0.0,0.0,0.0,0.0,0.0,0.0,0.0,0.0,0.0,0.0,0.0,0.0,0.0,-2.6596,-2.6727,-2.7606,-2.8466,-2.9174,-2.9243,-2.9802,-3.059,-3.1441,-3.1767,-3.2113,-3.3041,-3.3301,-3.3328,-3.3378,-3.3341,-3.3507,-3.4242,-3.4179,-3.414,-3.4623,-3.5132,-3.5562,-3.5798,0.0,-3.6894,-3.7124,-3.6956,-3.6748,-3.6544,-3.5745,-3.5197,-3.5197,-3.4525,-3.4352,-3.5007,-3.6284,-3.6784,-3.6197,-3.5439,-3.4663,-3.3818,-3.311,-3.2475,-3.1912,-3.2108,-3.2318,-3.2523,-3.2866,-3.3099,-3.325,-3.3502,-3.3661,-3.3726,-3.367,-3.3256,-3.2559,-3.1826,-3.1088,-3.0368,-2.9736,-2.9467,-2.9453,-2.9531,-2.9589,-2.9626,0.0,0.0,0.0,0.0,0.0,0.0,0.0,0.0,0.0,0.0,-2.4247,0.0,0.0,0.0,0.0,0.0,0.0,0.0,0.0,0.0,0.0,0.0,0.0,0.0,0.0,0.0,0.0,0.0,0.0,0.0,0.0,0.0,0.0,0.0,0.0,0.0,0.0,0.0,0.0,0.0,0.0,0.0,0.0,0.0,0.0,0.0,0.0,0.0,0.0,0.0,-2.6983,-2.7699,-2.8516,-2.9365,-3.0081,-3.0094,-3.0247,-3.0583,-3.1398,-3.1711,-3.2029,-3.2918,-3.3218,-3.3312,-3.3387,-3.3355,0.0,0.0,-3.4135,-3.4088,-3.4603,-3.5063,-3.5272,-3.5049,-3.5987,-3.6645,-3.6506,-3.6644,-3.6748,0.0,-3.5786,-3.5197,-3.5197,-3.4525,0.0,-3.4266,-3.4525,-3.4887,-3.537,-3.468,-3.3645,-3.2231,-3.2059,-3.194,-3.1894,-3.2108,-3.237,-3.2687,-3.3006,-3.328,-3.353,-3.3698,-3.378,-3.3743,-3.3109,-3.2768,-3.2617,-3.19,-3.1187,-3.0562,-3.0555,-3.017,-2.9663,-2.979,-2.9844,-2.9861,0.0,0.0,0.0,0.0,0.0,0.0,0.0,0.0,0.0,0.0,-2.4209,-2.4229,0.0,0.0,0.0,0.0,0.0,0.0,0.0,0.0,0.0,0.0,0.0,0.0,0.0,0.0,-2.5144,-2.4908,0.0,0.0,0.0,0.0,0.0,0.0,0.0,0.0,0.0,0.0,0.0,0.0,0.0,0.0,0.0,0.0,0.0,0.0,0.0,0.0,0.0,0.0,-2.686,-2.736,-2.8088,-2.8919,-2.9621,-2.9615,-2.9972,-3.0432,-3.0829,-3.0999,-3.1195,-3.169,-3.186,-3.1957,-3.2038,0.0,0.0,0.0,-3.2814,-3.2775,-3.3318,-3.3747,0.0,-3.4079,-3.4808,-3.5381,-3.5456,-3.5787,-3.596,-3.5814,-3.4977,-3.4432,-3.4432,-3.3441,-3.2965,-3.3377,-3.3451,-3.38,-3.4576,-3.3886,-3.2955,-3.1834,-3.18,-3.1856,-3.1984,-3.2249,-3.2539,-3.288,-3.3208,-3.3444,-3.3661,-3.3753,-3.3595,-3.3217,-3.2831,-3.2238,-3.1523,-3.1209,-3.0674,-3.0092,-3.0265,-3.013,-2.9874,-2.9959,-3.001,-3.001,0.0,0.0,0.0,0.0,0.0,0.0,0.0,-2.4495,-2.4355,-2.4229,-2.4114,-2.4095,-2.4135,-2.4266,-2.4412,0.0,0.0,0.0,0.0,0.0,0.0,0.0,0.0,0.0,0.0,0.0,0.0,-2.5233,-2.5043,0.0,0.0,0.0,0.0,0.0,-2.4264,0.0,0.0,0.0,0.0,0.0,0.0,0.0,0.0,0.0,0.0,0.0,0.0,0.0,0.0,0.0,-2.6408,-2.6524,-2.7072,-2.7946,-2.8765,-2.8753,-2.9358,-3.0035,-3.0037,-3.0213,-3.0419,-3.0549,-3.0498,-3.0481,-3.0712,-3.0598,0.0,-3.1572,-3.1533,-3.1492,-3.1995,-3.2333,-3.2573,0.0,-3.3293,-3.3773,-3.4019,-3.4671,-3.5063,0.0,-3.4065,0.0,-3.3639,-3.2354,0.0,-3.2492,-3.2603,-3.2938,-3.3559,-3.289,-3.213,-3.1353,-3.1491,-3.1686,-3.19,-3.2317,-3.2705,-3.3037,-3.3327,-3.3577,-3.3726,-3.378,-3.3485,-3.2937,-3.2606,-3.1819,-3.0754,-3.049,-3.0092,-2.9681,-2.9841,-2.9959,-3.0038,-3.0102,-3.0117,-3.0132,0.0,0.0,0.0,0.0,0.0,0.0,0.0,-2.4495,-2.4355,-2.4228,-2.4094,-2.3996,-2.3937,-2.4113,-2.4247,0.0,0.0,0.0,0.0,0.0,0.0,0.0,0.0,0.0,0.0,0.0,0.0,-2.5383,-2.5357,0.0,0.0,0.0,0.0,0.0,0.0,-2.471,-2.4637,0.0,0.0,0.0,0.0,0.0,0.0,0.0,0.0,0.0,0.0,0.0,0.0,0.0,0.0,-2.5622,-2.5686,-2.6762,-2.7978,-2.7926,0.0,0.0,-2.921,-2.9794,-3.0419,-3.0482,-3.0005,-2.9722,-3.0535,0.0,-2.9916,-3.1332,-3.1364,-3.1254,-3.1675,-3.1531,-3.121,-3.0742,0.0,-3.2266,-3.1921,-3.3441,-3.4515,-3.4395,0.0,0.0,-3.3389,-3.211,-3.1363,-3.1682,-3.1812,-3.1921,-3.2007,-3.1372,-3.0629,-2.9833,-3.056,-3.1063,-3.1266,-3.2153,-3.2784,-3.319,-3.3404,-3.3605,-3.3807,-3.3807,-3.3778,-3.371,-3.2305,-3.1709,-3.1589,-3.0239,-2.9757,-2.9876,-2.9959,-3.0019,-3.0094,-3.0157,-3.0204,-3.0204,0.0,0.0,0.0,0.0,0.0,0.0,0.0,-2.4459,-2.4338,-2.4152,-2.4074,-2.3976,-2.3837,-2.3996,-2.4113,0.0,0.0,0.0,0.0,0.0,0.0,0.0,0.0,0.0,0.0,0.0,-2.5486,-2.5461,-2.5468,0.0,0.0,0.0,0.0,0.0,0.0,-2.5037,-2.4931,0.0,0.0,0.0,0.0,0.0,0.0,0.0,0.0,0.0,0.0,0.0,0.0,0.0,0.0,0.0,-2.557,-2.597,0.0,0.0,-2.7759,-2.8434,-2.8384,-2.8655,-2.8975,-2.9029,-2.8838,-2.886,-2.9725,0.0,-2.9543,-3.0456,-3.0426,-3.0208,-3.0043,-2.9716,-2.944,-2.9377,0.0,0.0,-3.0285,-3.15,-3.2337,-3.2159,-3.1823,0.0,0.0,0.0,-3.0875,-3.0945,-3.1038,-3.0731,-2.9799,-3.0421,-3.0474,-2.9744,-3.0138,-3.046,-3.0603,-3.1649,-3.2307,-3.2593,-3.3284,-3.3671,-3.3807,-3.3842,-3.3663,-3.3247,-3.2177,-3.1573,-3.1258,-3.0208,-2.9878,-3.0026,-3.0053,-3.0094,-3.0171,-3.0185,-3.0204,-3.0204,0.0,0.0,0.0,0.0,0.0,0.0,-2.4479,-2.4409,-2.4284,-2.4133,-2.4016,-2.3917,-2.3816,-2.3917,-2.4054,-2.4113,0.0,0.0,0.0,0.0,0.0,0.0,0.0,0.0,0.0,0.0,-2.5428,-2.544,-2.5453,-2.5471,0.0,0.0,-2.5402,-2.5356,0.0,0.0,0.0,0.0,0.0,0.0,0.0,0.0,0.0,0.0,0.0,0.0,0.0,0.0,0.0,0.0,0.0,0.0,0.0,0.0,0.0,0.0,-2.6958,-2.7628,-2.7583,-2.7797,-2.8046,-2.8092,-2.7906,-2.792,0.0,0.0,-2.8859,-2.9393,-2.9468,-2.9319,-2.8795,-2.8332,-2.8092,0.0,0.0,-2.8715,-2.887,-2.9891,-3.0553,-3.0369,0.0,-3.0525,-3.0817,-3.054,-3.0348,-3.0407,-3.0348,-2.973,-2.8472,-2.9504,-2.9848,-2.9181,-2.9548,-2.9841,-2.9976,-3.1321,-3.2094,-3.2254,-3.325,-3.3625,-3.3485,-3.3545,-3.3204,-3.2516,-3.1812,-3.133,-3.096,-3.02,-2.9975,-3.0098,-3.0094,-3.0138,-3.0204,-3.0204,-3.0199,-3.0199,0.0,0.0,0.0,0.0,0.0,0.0,0.0,-2.4284,-2.4191,-2.4113,-2.3996,-2.3876,-2.3816,-2.3917,-2.3996,-2.3996,0.0,0.0,0.0,0.0,0.0,0.0,0.0,0.0,0.0,0.0,0.0,-2.5299,-2.5362,-2.5432,-2.5493,-2.5509,-2.5494,-2.5506,0.0,0.0,0.0,0.0,0.0,0.0,0.0,0.0,0.0,0.0,0.0,0.0,0.0,0.0,0.0,0.0,0.0,0.0,0.0,0.0,0.0,0.0,-2.6135,-2.6811,-2.6812,-2.7442,-2.8096,-2.809,-2.7459,-2.7009,0.0,-2.7757,-2.775,-2.8234,-2.8629,-2.8769,-2.8298,-2.7747,-2.7385,-2.7343,-2.7646,0.0,-2.7756,-2.8936,-2.9715,0.0,0.0,-2.9779,-3.0244,-2.9953,-2.9849,-3.017,-2.9708,-2.9128,-2.8437,-2.8548,-2.8328,-2.7622,-2.867,-2.9312,-2.95,-3.1289,-3.2254,-3.2411,-3.3259,-3.3358,-3.2716,-3.2785,-3.2445,-3.1775,-3.1119,-3.0922,-3.1031,-3.0232,-2.9969,-3.0109,-3.0109,-3.0138,-3.0204,-3.0204,-3.0199,-3.0207,0.0,0.0,0.0,0.0,0.0,0.0,0.0,-2.4171,-2.4075,-2.3917,-2.3876,-2.3813,-2.3747,-2.3807,-2.3852,-2.3876,0.0,0.0,0.0,0.0,0.0,0.0,0.0,0.0,0.0,0.0,0.0,-2.5088,-2.5116,-2.5178,-2.5307,-2.5333,-2.5389,-2.542,-2.5477,-2.5509,0.0,0.0,0.0,0.0,0.0,0.0,0.0,0.0,0.0,0.0,0.0,0.0,0.0,0.0,0.0,0.0,0.0,0.0,0.0,0.0,0.0,0.0,-2.5838,-2.6048,-2.6242,-2.625,-2.5976,-2.5883,-2.6575,-2.6948,-2.7242,-2.7676,-2.8077,-2.8164,-2.7578,-2.7029,-2.6656,-2.664,-2.683,0.0,0.0,0.0,0.0,-2.8086,-2.8362,-2.8836,-2.9561,-2.942,-2.9297,-2.9235,-2.8781,-2.8236,-2.7547,-2.7719,-2.7783,-2.7659,-2.8266,-2.8658,-2.8837,-3.0111,-3.0786,-3.0837,-3.1763,-3.2121,-3.1961,-3.2061,-3.205,-3.1904,-3.128,-3.107,-3.1116,-3.0361,-3.0094,-3.0171,-3.0171,-3.0171,-3.0185,-3.0194,-3.0221,-3.0279,0.0,0.0,0.0,0.0,0.0,0.0,0.0,-2.4016,-2.3937,-2.3816,-2.375,-2.3703,-2.3656,-2.37,-2.3703,-2.3728,0.0,0.0,0.0,0.0,0.0,0.0,0.0,0.0,0.0,-2.4719,-2.4794,-2.4842,-2.4877,-2.4937,-2.5046,-2.5143,-2.5216,-2.5294,-2.5356,-2.5408,0.0,0.0,0.0,0.0,0.0,0.0,-2.5167,0.0,0.0,0.0,0.0,0.0,0.0,0.0,0.0,0.0,0.0,0.0,0.0,0.0,-2.4683,-2.4923,0.0,-2.522,-2.5219,-2.5178,-2.5043,0.0,-2.5304,-2.5968,-2.6534,-2.662,-2.7139,-2.739,-2.677,-2.6164,-2.5842,-2.6135,-2.6156,0.0,0.0,0.0,0.0,-2.7489,-2.7434,0.0,-2.8419,-2.8217,-2.8092,-2.8185,-2.7824,-2.7435,-2.7152,-2.7386,-2.76,-2.7806,-2.8146,-2.8388,-2.8536,-2.9594,-3.0143,-3.0191,-3.109,-3.1449,-3.1228,-3.1368,-3.1347,-3.1185,-3.0825,-3.0717,0.0,-2.9965,-2.968,-2.9715,-2.9377,-2.9467,-2.9748,-2.9787,-3.0017,-3.0336,0.0,0.0,0.0,0.0,0.0,0.0,0.0,0.0,0.0,0.0,-2.3678,-2.3562,-2.3562,-2.3567,-2.3549,0.0,0.0,0.0,0.0,0.0,0.0,0.0,0.0,0.0,0.0,-2.4478,-2.4512,-2.4575,-2.4636,-2.4693,-2.4762,-2.491,-2.5012,-2.5069,-2.5141,-2.5194,0.0,0.0,0.0,0.0,0.0,0.0,0.0,0.0,0.0,0.0,0.0,0.0,0.0,0.0,0.0,0.0,0.0,0.0,0.0,0.0,0.0,0.0,0.0,-2.4788,-2.4807,-2.4748,-2.4555,0.0,-2.3989,-2.4868,0.0,-2.5181,-2.5863,-2.6387,-2.5969,-2.5255,-2.4983,-2.5773,-2.554,0.0,0.0,-2.7377,0.0,0.0,-2.6769,-2.6508,-2.7022,-2.6553,-2.6509,-2.7123,-2.6855,-2.6825,-2.7181,-2.7448,-2.7736,-2.7986,-2.8255,-2.8466,-2.8612,-2.9613,-3.0142,-3.0212,-3.1038,-3.108,-3.0437,-3.0581,-3.0302,-2.9723,-2.9804,-2.9863,-2.988,-2.9117,-2.8848,-2.8823,-2.802,-2.8204,-2.8931,-2.9056,-2.9621,-3.0342,0.0,0.0,0.0,0.0,0.0,0.0,0.0,0.0,0.0,0.0,-2.343,-2.3313,-2.3168,-2.3126,-2.3151,0.0,0.0,0.0,0.0,0.0,0.0,0.0,0.0,0.0,0.0,-2.4247,-2.4266,-2.4284,-2.4302,-2.4372,-2.4508,-2.4572,-2.4682,-2.4795,-2.4869,0.0,0.0,0.0,0.0,0.0,0.0,0.0,0.0,0.0,0.0,0.0,-2.4192,-2.4137,0.0,0.0,0.0,0.0,0.0,0.0,0.0,0.0,-2.2994,-2.3029,-2.3106,0.0,-2.4118,-2.3989,-2.3737,-2.3462,0.0,-2.3678,-2.4091,-2.4205,0.0,0.0,-2.4807,-2.4318,-2.4187,-2.4893,0.0,-2.5013,-2.6125,-2.6173,0.0,-2.71,-2.6285,-2.59,-2.6576,-2.6101,-2.6052,-2.6749,-2.6714,-2.6758,-2.7103,-2.7417,-2.7736,-2.7986,-2.8309,-2.8543,-2.8687,-2.9064,-2.9315,-2.9384,-2.9687,-2.9463,-2.8762,-2.9005,-2.8709,-2.7994,-2.8113,-2.8202,-2.8242,-2.8058,-2.8032,-2.8061,-2.785,-2.7942,-2.8236,-2.8914,-2.9342,-2.965,0.0,0.0,0.0,0.0,0.0,0.0,0.0,0.0,0.0,0.0,0.0,0.0,0.0,0.0,0.0,0.0,0.0,0.0,0.0,0.0,0.0,0.0,0.0,0.0,0.0,-2.3917,-2.3919,-2.3921,-2.3959,-2.4058,-2.4174,-2.4229,-2.4355,-2.4526,-2.4538,0.0,0.0,0.0,0.0,0.0,-2.4014,0.0,0.0,0.0,0.0,0.0,-2.3638,-2.3595,0.0,-2.3259,-2.3069,-2.2898,0.0,0.0,0.0,0.0,-2.2046,-2.2001,-2.1961,-2.2573,-2.3218,-2.3041,-2.2821,-2.2539,-2.2312,0.0,0.0,0.0,0.0,0.0,0.0,0.0,0.0,0.0,-2.396,0.0,0.0,0.0,-2.5935,-2.6623,-2.5525,-2.4977,-2.5595,-2.5197,-2.5252,-2.6047,-2.6352,-2.6657,-2.7117,-2.7461,-2.7806,-2.8136,-2.8406,-2.8612,-2.8694,-2.8929,-2.9089,-2.9203,-2.9332,-2.9044,-2.8387,-2.8558,-2.8214,-2.7495,-2.7592,-2.7663,-2.7669,-2.7328,-2.722,-2.7206,-2.6843,-2.6969,-2.7412,-2.792,-2.862,-2.9423,0.0,0.0,0.0,0.0,0.0,0.0,0.0,0.0,0.0,0.0,0.0,0.0,0.0,0.0,0.0,0.0,0.0,0.0,0.0,0.0,0.0,0.0,0.0,-2.354,-2.3562,-2.3562,-2.3562,-2.3562,-2.3606,-2.371,-2.3834,-2.3915,-2.4036,-2.421,-2.434,-2.432,0.0,0.0,-2.4374,-2.47,-2.3821,0.0,0.0,0.0,0.0,0.0,0.0,0.0,0.0,-2.2626,-2.2432,-2.2203,-2.1866,0.0,0.0,0.0,0.0,0.0,-2.0959,-2.1497,-2.204,-2.2006,-2.1852,-2.1602,-2.1287,0.0,0.0,0.0,0.0,0.0,0.0,-2.2543,0.0,0.0,0.0,0.0,-2.5302,-2.5459,-2.5549,-2.5843,-2.4706,-2.4098,-2.4514,-2.4253,-2.442,-2.5291,-2.5941,-2.6556,-2.7181,-2.7522,-2.7876,-2.83,-2.851,-2.8662,-2.8743,-2.8998,-2.9181,-2.9314,-2.9342,-2.9026,-2.8423,-2.8362,-2.7937,-2.7236,-2.7306,-2.7343,-2.7297,-2.6677,-2.642,-2.6361,-2.5669,-2.5863,-2.6563,-2.6754,-2.7751,-2.9052,0.0,0.0,0.0,0.0,0.0,0.0,0.0,0.0,0.0,0.0,0.0,0.0,0.0,0.0,0.0,0.0,0.0,0.0,0.0,0.0,0.0,0.0,-2.3126,-2.3295,-2.3342,-2.3342,-2.3342,-2.3342,-2.3342,-2.3435,-2.3553,-2.3571,-2.3646,-2.3813,-2.4502,-2.4743,-2.4644,-2.5073,-2.52,-2.5049,-2.411,0.0,0.0,0.0,0.0,0.0,0.0,0.0,0.0,-2.1989,-2.1761,-2.1568,-2.1182,0.0,0.0,0.0,0.0,0.0,-1.9884,-1.9889,-2.0135,-2.083,-2.0862,-2.0649,-2.0416,0.0,0.0,0.0,0.0,0.0,0.0,-2.1841,-2.1999,0.0,0.0,-2.4076,0.0,-2.4482,-2.4483,-2.4462,-2.3969,-2.3691,-2.3779,-2.3852,-2.4282,-2.5182,-2.5888,-2.6556,-2.7181,-2.7522,-2.7876,-2.83,-2.851,-2.8737,-2.9044,-2.9134,-2.9265,-2.9373,-2.8821,-2.8211,-2.7578,-2.7004,-2.6314,-2.5558,-2.5633,-2.5705,-2.5736,-2.5637,-2.5611,-2.5665,-2.5538,-2.5602,-2.5859,-2.6604,-2.7054,-2.7508,0.0,0.0,0.0,0.0,0.0,0.0,0.0,0.0,0.0,0.0,0.0,0.0,0.0,0.0,0.0,0.0,0.0,0.0,0.0,0.0,0.0,0.0,-2.2527,-2.2712,-2.297,-2.2995,-2.2995,-2.2995,-2.302,-2.3077,-2.3175,-2.3295,-2.3579,-2.3993,-2.4366,-2.4701,-2.4971,-2.508,-2.5219,-2.5291,0.0,0.0,0.0,0.0,0.0,0.0,0.0,0.0,0.0,0.0,-2.1118,-2.091,-2.0545,0.0,0.0,0.0,0.0,0.0,-1.9043,-1.8855,-1.8788,-1.9229,-1.9585,-1.9773,-1.9609,0.0,0.0,0.0,0.0,0.0,0.0,0.0,-2.1406,-2.2191,0.0,-2.3662,-2.3897,-2.4073,-2.4138,-2.4054,-2.3898,-2.3814,-2.3807,-2.394,-2.4379,-2.5237,-2.5527,-2.595,-2.6609,-2.6568,-2.6898,-2.7741,-2.796,-2.8424,-2.9206,-2.931,-2.9189,-2.8858,-2.8625,-2.7941,-2.6839,-2.6581,-2.6022,-2.5261,-2.5332,-2.537,-2.5406,-2.5441,-2.5466,-2.5493,-2.5535,-2.5576,-2.5703,-2.6588,-2.6909,-2.7074,0.0,0.0,0.0,0.0,0.0,0.0,0.0,0.0,0.0,0.0,0.0,0.0,0.0,0.0,0.0,0.0,0.0,0.0,0.0,0.0,-2.1895,-2.1953,-2.1982,-2.2198,-2.2605,-2.2623,-2.2623,-2.2623,-2.2659,-2.2764,-2.2842,-2.3003,-2.3447,-2.4112,-2.426,-2.4701,-2.5351,-2.5257,-2.5416,-2.5647,0.0,0.0,0.0,0.0,0.0,0.0,0.0,0.0,0.0,0.0,0.0,0.0,0.0,0.0,0.0,-1.9011,-1.8669,-1.8344,-1.8226,-1.7948,-1.7787,-1.7881,0.0,-1.8907,-1.8846,0.0,0.0,0.0,0.0,0.0,0.0,-2.0677,0.0,-2.1604,-2.2293,-2.2867,-2.3231,-2.3623,-2.3784,-2.373,-2.3854,-2.3934,-2.3902,-2.4111,-2.4505,-2.5126,-2.5186,-2.5409,-2.594,-2.5707,-2.6027,-2.6995,-2.7432,-2.811,-2.9057,-2.94,-2.9289,-2.8757,-2.8474,-2.7775,-2.672,-2.6381,-2.5898,-2.5351,-2.5404,-2.5429,-2.5445,-2.5506,-2.5517,-2.5529,-2.5595,-2.5609,-2.5691,-2.6361,-2.6619,-2.6739,0.0,0.0,0.0,0.0,0.0,0.0,0.0,0.0,0.0,0.0,0.0,0.0,0.0,0.0,0.0,0.0,0.0,0.0,0.0,0.0,-2.1554,-2.1538,-2.1661,-2.1932,-2.231,-2.2338,-2.2338,-2.2338,-2.2394,-2.2487,-2.2605,-2.2712,-2.3135,-2.385,-2.4483,-2.5133,-2.578,-2.6284,-2.6438,-2.6233,-2.5172,0.0,0.0,0.0,0.0,0.0,0.0,0.0,0.0,0.0,0.0,0.0,0.0,0.0,-1.8941,-1.8475,-1.8068,-1.772,-1.7393,-1.7157,-1.7044,-1.724,-1.7666,0.0,-1.8068,-1.8068,0.0,-1.9003,0.0,0.0,0.0,-2.0577,-2.0919,-2.1102,-2.1492,-2.1929,-2.2328,-2.275,-2.2935,-2.2898,-2.3439,-2.3781,-2.3642,-2.4256,-2.4641,-2.4563,-2.5129,-2.5411,-2.5281,-2.5535,-2.5879,-2.6271,-2.7262,-2.7966,-2.8372,-2.932,-2.9784,-2.9782,-2.8283,-2.7624,-2.7639,-2.616,-2.549,-2.5488,-2.5492,-2.5538,-2.5595,-2.559,-2.5591,-2.56,-2.5671,-2.5683,-2.5691,-2.5769,-2.5795,-2.5902,0.0,0.0,0.0,0.0,0.0,0.0,0.0,0.0,0.0,0.0,0.0,0.0,0.0,0.0,0.0,0.0,0.0,0.0,0.0,0.0,-2.1182,-2.1309,-2.1842,-2.2244,-2.2415,-2.2585,-2.2458,-2.1991,-2.2089,-2.2186,-2.2281,-2.2415,-2.2807,-2.351,-2.4137,-2.4787,-2.5413,-2.5944,-2.6046,-2.5868,-2.5313,-2.4358,0.0,0.0,0.0,0.0,0.0,0.0,0.0,0.0,-1.9654,-1.9472,0.0,-1.8941,-1.8595,-1.8189,-1.7679,-1.7214,-1.7073,-1.6833,-1.6663,-1.6833,-1.6989,0.0,0.0,-1.738,-1.7395,-1.7862,-1.7938,0.0,0.0,0.0,-2.0485,-2.0907,-2.1524,-2.2034,-2.2361,-2.2549,-2.2652,-2.2544,-2.2814,-2.2931,-2.2793,-2.338,-2.3883,-2.4181,-2.4284,-2.4437,-2.469,-2.4557,-2.4829,-2.5685,-2.6261,-2.6915,-2.7667,-2.8134,-2.846,-2.8592,-2.7975,-2.7206,-2.6284,-2.5721,-2.5488,-2.5505,-2.555,-2.5587,-2.5599,-2.5634,-2.5652,-2.5656,-2.5687,-2.5694,-2.5697,-2.5701,-2.5707,-2.5749,0.0,0.0,0.0,0.0,0.0,0.0,0.0,0.0,0.0,0.0,0.0,0.0,0.0,0.0,0.0,0.0,0.0,0.0,0.0,-2.0925,-2.0893,-2.1071,-2.1842,-2.2311,-2.2377,-2.2834,-2.2748,-2.2038,-2.194,-2.194,-2.2027,-2.2089,-2.2492,-2.3184,-2.3562,-2.405,-2.4627,-2.4944,-2.4924,-2.474,-2.4515,-2.3792,0.0,0.0,0.0,0.0,0.0,0.0,0.0,0.0,-1.9413,0.0,0.0,0.0,0.0,-1.7909,-1.7393,-1.6934,-1.6778,-1.6534,-1.6362,0.0,0.0,0.0,-1.668,-1.671,-1.6734,-1.709,-1.726,0.0,-1.8399,0.0,0.0,-2.0144,-2.0733,-2.1289,-2.1584,-2.1743,-2.189,-2.2057,-2.2243,-2.2434,-2.2496,-2.3103,-2.3588,-2.384,-2.3859,-2.3946,-2.4171,-2.3959,-2.4238,-2.5097,-2.5643,-2.6287,-2.702,-2.7412,-2.7579,-2.7456,-2.7479,-2.6901,-2.5826,-2.5633,-2.5544,-2.5568,-2.5605,-2.5634,-2.563,-2.5675,-2.5707,-2.5691,-2.5707,-2.5696,-2.5698,-2.5703,-2.5705,-2.5707,0.0,0.0,0.0,0.0,0.0,0.0,0.0,0.0,0.0,0.0,0.0,0.0,0.0,0.0,0.0,0.0,0.0,0.0,0.0,-2.0744,-2.0726,-2.0794,-2.1643,-2.2111,-2.2111,-2.3022,-2.3191,-2.2605,-2.1993,-2.1738,-2.1797,-2.1781,-2.2178,-2.2891,-2.2685,-2.2965,-2.3568,-2.3294,-2.3099,-2.2869,-2.2687,-2.2502,-2.2291,0.0,0.0,0.0,0.0,0.0,0.0,0.0,-1.9265,-1.9064,0.0,0.0,0.0,-1.7679,-1.724,-1.6833,-1.6479,-1.6318,-1.62,0.0,0.0,0.0,-1.5792,-1.6032,-1.6386,-1.6715,-1.7264,-1.775,-1.7929,-1.8084,0.0,-1.8647,-1.8937,-1.9256,-1.9734,-2.0144,-2.0641,-2.1208,-2.1831,-2.239,-2.2929,-2.3671,-2.3964,-2.3608,-2.4077,-2.4195,-2.3728,-2.4019,-2.4302,-2.4505,-2.5607,-2.6243,-2.6383,-2.7385,-2.7479,-2.6678,-2.6757,-2.6792,-2.6766,-2.5954,-2.5648,-2.5694,-2.5704,-2.5707,-2.5697,-2.5697,-2.5704,-2.5693,-2.5691,-2.5699,-2.5702,-2.5702,-2.5703,-2.5703,0.0,0.0,0.0,0.0,0.0,0.0,0.0,0.0,0.0,0.0,0.0,0.0,0.0,0.0,0.0,0.0,0.0,0.0,0.0,-2.0441,-2.0441,-2.0525,-2.1827,-2.2276,-2.1837,-2.2181,-2.2403,-2.2443,-2.176,-2.1433,-2.1464,-2.1419,-2.147,-2.1649,-2.2003,-2.2173,-2.2239,-2.2591,-2.2613,-2.2368,-2.224,-2.185,-2.1325,0.0,0.0,0.0,0.0,0.0,0.0,0.0,0.0,0.0,0.0,0.0,0.0,-1.7747,-1.7323,-1.6918,-1.6791,-1.6565,0.0,-1.6392,0.0,0.0,0.0,-1.568,0.0,0.0,-1.614,-1.6563,-1.7171,-1.7568,-1.8015,-1.8734,-1.9165,-1.9526,-1.9954,-2.0104,-2.041,-2.1023,-2.1244,-2.1582,-2.2097,-2.2702,-2.3106,-2.3315,-2.3743,-2.3991,-2.4042,-2.4335,-2.4601,-2.4836,-2.5278,-2.5568,-2.5688,-2.6041,-2.6111,-2.5924,-2.5958,-2.5964,-2.5958,-2.5707,-2.5648,-2.5703,-2.5704,-2.5698,-2.5709,-2.5694,-2.5698,-2.57,-2.5702,-2.5703,-2.5703,-2.5699,-2.5696,-2.5696,0.0,0.0,0.0,0.0,0.0,0.0,0.0,0.0,0.0,0.0,0.0,0.0,0.0,0.0,0.0,0.0,0.0,0.0,0.0,0.0,-2.0257,-2.0654,-2.1869,-2.2368,-2.207,-2.1874,-2.1745,-2.1661,-2.1263,-2.1103,-2.1071,-2.1006,-2.0941,-2.0876,-2.1221,-2.124,-2.1027,-2.1394,-2.1434,-2.1152,-2.1061,-2.0911,-2.0647,0.0,0.0,0.0,0.0,0.0,0.0,0.0,0.0,0.0,0.0,0.0,0.0,-1.7895,-1.7488,-1.7141,-1.696,-1.6735,0.0,-1.6392,-1.6088,-1.5691,-1.5244,0.0,0.0,0.0,-1.5468,-1.5799,-1.6483,-1.6891,-1.7371,-1.8117,-1.8552,-1.9012,-1.9516,-1.9767,-2.0169,-2.0824,-2.1083,-2.1475,-2.2085,-2.2626,-2.3076,-2.349,-2.3846,-2.4155,-2.4414,-2.4666,-2.4904,-2.5111,-2.5264,-2.5378,-2.5468,-2.5525,-2.556,-2.56,-2.5621,-2.5457,-2.5149,-2.5483,-2.5651,-2.5701,-2.5707,-2.5697,-2.5702,-2.5703,-2.5702,-2.5701,-2.5701,-2.5699,-2.5697,-2.5691,-2.5705,-2.5744,0.0,0.0,0.0,0.0,0.0,0.0,0.0,0.0,0.0,0.0,0.0,0.0,0.0,0.0,0.0,0.0,0.0,0.0,0.0,0.0,-2.0291,-2.1096,-2.1835,-2.2355,-2.259,-2.1859,-2.1175,-2.0519,-2.0693,-2.0728,-2.0644,-2.066,-2.0577,-2.041,0.0,-2.0239,-2.0045,-1.999,-1.9827,-1.9574,-1.9574,-1.9856,-2.0239,-1.9612,0.0,0.0,0.0,0.0,0.0,0.0,0.0,0.0,0.0,0.0,-1.8439,-1.8043,-1.7679,-1.7404,-1.7128,0.0,0.0,-1.6275,-1.5836,0.0,-1.4708,-1.4627,-1.4765,-1.5017,0.0,-1.539,-1.5869,-1.6175,-1.6565,-1.7073,-1.7557,-1.8068,-1.8731,-1.9369,-2.0035,-2.0715,-2.1336,-2.2,-2.2712,-2.3218,-2.3642,-2.4044,-2.4315,-2.4576,-2.4839,-2.5027,-2.5194,-2.5313,-2.5371,-2.5425,-2.5471,-2.5488,-2.5439,-2.5351,-2.5505,-2.5117,-2.4297,-2.5254,-2.5703,-2.5703,-2.5703,-2.5702,-2.5699,-2.5691,-2.5705,-2.5705,-2.5705,-2.5705,-2.5705,-2.5705,-2.5742,-2.591,0.0,0.0,0.0,0.0,0.0,0.0,0.0,0.0,0.0,0.0,0.0,0.0,0.0,0.0,0.0,0.0,0.0,0.0,0.0,0.0,-2.0976,-2.1228,-2.156,-2.2009,-2.2601,-2.1416,-2.0737,-2.0587,-2.0535,-2.0429,0.0,0.0,0.0,-1.9945,0.0,-1.9797,-1.972,-1.9683,-1.9574,-1.9376,-1.9376,-1.9376,-1.9365,-1.9346,-1.9427,0.0,0.0,0.0,0.0,0.0,0.0,0.0,-1.8979,-1.8827,-1.8595,-1.8242,-1.7963,-1.772,-1.7391,-1.7099,0.0,0.0,-1.5546,-1.4708,-1.4373,-1.4046,-1.3999,-1.4569,-1.4834,-1.5096,-1.5513,-1.5957,-1.6405,-1.6964,-1.7544,-1.8252,-1.9066,-1.9869,-2.0636,-2.1529,-2.2184,-2.2793,-2.3404,-2.3855,-2.4225,-2.4527,-2.475,-2.4974,-2.5172,-2.5281,-2.5363,-2.5449,-2.4881,-2.4578,-2.4575,-2.4588,-2.4238,-2.357,-2.4269,-2.4132,-2.3365,-2.4965,-2.5696,-2.5703,-2.5698,-2.5696,-2.5693,-2.5693,-2.5693,-2.5693,-2.5693,-2.5693,-2.5693,-2.5693,-2.6097,-2.6672,0.0,0.0,0.0,0.0,0.0,0.0,0.0,0.0,0.0,0.0,0.0,0.0,0.0,0.0,0.0,0.0,0.0,0.0,0.0,0.0,0.0,0.0,-2.1842,-2.2114,-2.2456,-2.1178,-2.051,-2.051,-2.0113,0.0,0.0,0.0,0.0,-1.9603,0.0,-1.9523,-1.9465,-1.9465,-1.9376,-1.9176,-1.9176,-1.9139,-1.9101,-1.9176,-1.9176,-1.9213,-1.9228,0.0,0.0,0.0,0.0,0.0,0.0,0.0,-1.8697,-1.8333,-1.8069,-1.7842,-1.7487,0.0,0.0,-1.5888,0.0,-1.4326,-1.3988,-1.3621,-1.343,-1.3752,-1.4165,-1.4582,-1.504,-1.5501,-1.6064,-1.6769,-1.7626,-1.8521,-1.9447,-2.0407,-2.1357,-2.2224,-2.2876,-2.3464,-2.4025,-2.4392,-2.4689,-2.4915,-2.508,-2.5221,-2.5383,-2.5429,-2.5483,-2.5542,-2.4707,-2.4272,-2.43,-2.3881,-2.3431,-2.295,-2.3411,-2.3388,-2.2984,-2.4007,-2.4461,-2.4453,-2.4463,-2.4674,-2.5021,-2.5021,-2.5274,-2.5644,-2.5644,-2.5644,-2.5644,-2.5644,-2.6182,-2.6967,0.0,0.0,0.0,0.0,0.0,0.0,0.0,0.0,0.0,0.0,0.0,0.0,0.0,0.0,0.0,0.0,0.0,0.0,0.0,0.0,0.0,0.0,-2.2365,-2.2394,-2.2394,-2.1289,-2.0686,-2.0686,0.0,0.0,0.0,0.0,0.0,-1.9339,0.0,-1.9339,-1.9265,-1.9265,-1.9191,-1.9078,-1.9064,-1.9064,-1.9064,-1.9064,-1.9101,-1.9101,-1.9101,-1.9101,-1.9101,-1.9101,0.0,0.0,0.0,0.0,-1.8745,-1.8436,-1.8175,-1.7882,-1.7569,0.0,-1.6337,-1.5457,-1.4731,0.0,-1.3716,-1.3296,-1.3007,-1.2929,-1.3447,-1.4014,-1.4433,-1.4983,-1.5676,-1.6604,-1.7773,-1.889,-1.9974,-2.1124,-2.2136,-2.2946,-2.3533,-2.4083,-2.4568,-2.4819,-2.5031,-2.5191,-2.513,-2.513,-2.525,-2.5116,-2.5063,-2.5116,-2.4209,-2.3815,-2.4025,-2.3172,-2.2692,-2.2628,-2.2485,-2.2395,-2.24,-2.2516,-2.2745,-2.3077,-2.3069,-2.3454,-2.4092,-2.4239,-2.4701,-2.5362,-2.5517,-2.5576,-2.5576,-2.5576,-2.6129,-2.7006,0.0,0.0,0.0,0.0,0.0,0.0,0.0,0.0,0.0,0.0,0.0,0.0,0.0,0.0,0.0,0.0,0.0,0.0,-2.1722,0.0,0.0,-2.2532,-2.2712,-2.2817,-2.2817,-2.2149,-2.1785,-2.1785,0.0,0.0,0.0,0.0,0.0,-1.9139,0.0,0.0,-1.9101,-1.9055,-1.9031,-1.8979,-1.8874,-1.8927,-1.9017,-1.9017,-1.9055,-1.9101,-1.9101,-1.9101,-1.9101,-1.9101,-1.9101,0.0,0.0,0.0,-1.8784,-1.8659,-1.8439,-1.8123,0.0,0.0,-1.6497,0.0,-1.5085,-1.4362,0.0,0.0,-1.2881,0.0,-1.3035,-1.3409,-1.3705,-1.4514,-1.5443,-1.6384,-1.7977,-1.9541,-2.0855,-2.2108,-2.3178,-2.393,-2.4392,-2.4754,-2.4995,-2.5106,-2.5203,-2.5289,-2.4658,-2.4276,-2.4284,-2.3575,-2.3157,-2.3176,-2.2257,-2.2134,-2.2904,-2.2055,-2.1616,-2.1598,-2.0776,-2.0384,-2.0384,-2.0401,-2.1332,-2.2926,-2.2926,-2.3029,-2.3234,-2.3927,-2.427,-2.4464,-2.5221,-2.5512,-2.5512,-2.5512,-2.6061,-2.6931,0.0,0.0,0.0,0.0,0.0,0.0,0.0,0.0,0.0,0.0,0.0,0.0,0.0,0.0,0.0,-1.9418,-1.9601,-2.0298,-2.1913,-2.2231,-2.2477,-2.2689,-2.2781,-2.2872,-2.2888,-2.2323,-2.1989,0.0,0.0,0.0,0.0,-1.9459,-1.9139,0.0,0.0,0.0,0.0,-1.9017,-1.8941,-1.8889,-1.8822,-1.8889,-1.8993,-1.8993,-1.9055,-1.9101,-1.9101,-1.9101,-1.9101,-1.9101,-1.9101,-1.9101,-1.9101,0.0,0.0,0.0,-1.8503,0.0,-1.7733,-1.7186,-1.6625,0.0,-1.5311,-1.4536,-1.3931,-1.3276,-1.2715,-1.2224,-1.199,-1.2159,-1.3064,-1.4143,-1.5401,-1.6956,-1.8644,-2.0339,-2.2033,-2.3044,-2.3784,-2.4307,-2.4593,-2.4791,-2.4918,-2.4914,-2.4932,-2.4953,-2.4629,-2.424,-2.379,-2.34,-2.3217,-2.3239,-2.2337,-2.2277,-2.3141,-2.2273,-2.1827,-2.179,-2.1368,-2.1186,-2.1186,-2.1167,-2.123,-2.1321,-2.1321,-2.1644,-2.2226,-2.3033,-2.3642,-2.4163,-2.5039,-2.5387,-2.5395,-2.5385,-2.5934,-2.6745,0.0,0.0,0.0,0.0,0.0,0.0,0.0,0.0,0.0,0.0,0.0,0.0,0.0,0.0,0.0,0.0,-1.9343,-2.0126,-2.1629,-2.1996,-2.2245,-2.2598,-2.2749,-2.2841,-2.2857,-2.2279,0.0,0.0,0.0,0.0,-2.0088,-1.9382,-1.9078,0.0,-1.9078,-1.9055,0.0,0.0,0.0,0.0,-1.8707,-1.876,0.0,-1.8941,-1.9003,-1.9101,-1.9101,-1.9101,-1.9101,-1.9101,-1.9101,-1.9101,-1.9101,-1.904,0.0,0.0,0.0,0.0,0.0,0.0,-1.6964,-1.6411,-1.57,-1.4971,0.0,0.0,-1.2647,-1.176,-1.0839,-1.0368,-1.0795,-1.1466,-1.2901,-1.5772,-1.7004,-1.8699,-2.1863,-2.3026,-2.3698,-2.4099,-2.4241,-2.435,-2.4434,-2.4381,-2.4315,-2.4322,-2.4147,-2.3704,-2.2924,-2.2909,-2.2891,-2.2801,-2.2295,-2.2458,-2.333,-2.2705,-2.2238,-2.1956,-2.1993,-2.1993,-2.1987,-2.2017,-2.151,-2.0582,-2.0423,-2.0757,-2.1483,-2.2077,-2.2843,-2.3705,-2.4588,-2.5048,-2.5239,-2.5241,-2.5657,-2.6254,0.0,0.0,0.0,0.0,0.0,0.0,0.0,0.0,0.0,0.0,0.0,0.0,-1.696,-1.7275,-1.7836,-1.8596,-1.9089,-1.9885,-2.0993,-2.152,-2.1902,-2.2044,-2.2552,0.0,-2.2809,-2.2294,0.0,0.0,0.0,0.0,-2.0088,-1.9373,-1.8993,-1.8993,-1.8993,-1.8993,-1.8993,0.0,0.0,0.0,0.0,-1.8489,0.0,0.0,-1.8936,-1.9101,-1.9101,-1.9101,-1.9101,-1.9101,-1.9101,-1.9101,-1.9101,-1.904,-1.8993,0.0,0.0,0.0,0.0,-1.8055,0.0,-1.7118,-1.6403,0.0,0.0,0.0,-1.2812,-1.1516,-0.991,-0.7967,-0.5499,-0.4774,-0.6201,-1.1197,-1.1181,-1.279,-1.9246,-2.1386,-2.2505,-2.311,-2.3243,-2.3344,-2.3463,-2.3346,-2.3275,-2.3277,-2.2641,-2.1938,-2.1259,-2.1351,-2.1152,-2.0596,-2.1204,-2.1989,-2.2922,-2.2885,-2.2428,-2.1534,-2.166,-2.1713,-2.173,-2.1797,-2.184,-2.1872,-2.1292,-2.1107,-2.1233,-2.1325,-2.185,-2.2658,-2.3545,-2.4345,-2.5019,-2.5082,-2.5144,-2.5309,0.0,0.0,0.0,0.0,0.0,0.0,0.0,0.0,0.0,0.0,0.0,0.0,0.0,-1.7024,-1.753,-1.8176,-1.9253,-2.0165,-2.0709,-2.1166,-2.1568,-2.1841,-2.2292,-2.2629,-2.2809,-2.2294,0.0,0.0,0.0,-2.0103,-2.0088,-1.9334,-1.8941,-1.8889,-1.8827,-1.8697,-1.8528,-1.84,0.0,0.0,0.0,0.0,0.0,0.0,0.0,-1.9101,-1.9101,-1.9101,-1.9101,-1.9176,-1.9228,-1.9228,-1.9302,-1.9228,-1.9168,-1.9031,-1.8903,0.0,0.0,0.0,0.0,-1.7462,-1.6854,-1.617,-1.5287,-1.4549,-1.3558,-1.1904,-0.8697,-0.5684,-0.4183,-0.4806,-0.629,-0.8626,-1.0533,-1.326,-1.7636,-1.92,-2.016,-2.0894,-2.1118,-2.1334,-2.1647,-2.1646,-2.1722,-2.1912,-2.1795,-2.149,-2.0942,-2.1079,-2.1155,-2.1175,-2.1043,-2.1261,-2.1802,-2.1841,-2.1696,-2.1365,-2.1461,-2.1498,-2.1516,-2.1589,-2.1661,-2.1695,-2.0981,-2.0792,-2.1041,-2.1593,-2.1682,-2.1601,-2.3003,-2.3752,-2.4101,-2.4625,-2.4888,-2.5025,0.0,0.0,0.0,0.0,0.0,0.0,0.0,0.0,0.0,0.0,0.0,0.0,0.0,0.0,-1.7607,-1.82,-1.9232,-1.9901,-2.0137,-2.0532,-2.1062,-2.1554,-2.2137,-2.2477,-2.2735,0.0,0.0,0.0,0.0,0.0,0.0,-1.9166,-1.8889,-1.876,-1.8542,-1.8347,0.0,0.0,0.0,-1.7828,0.0,0.0,-1.8556,0.0,-1.8874,-1.9078,-1.9101,-1.9139,-1.9176,-1.9265,-1.9339,-1.9413,-1.9413,-1.9339,-1.9265,-1.9168,0.0,0.0,-1.8812,0.0,0.0,0.0,-1.7571,-1.7008,-1.6176,-1.554,-1.4756,-1.3294,-0.995,-0.6729,-0.4766,-0.5375,-0.6138,-0.6065,-0.6947,-0.9483,-1.4771,-1.6516,-1.7593,-1.8482,-1.8902,-1.9318,-1.9739,-1.9929,-2.0106,-2.0414,-2.0687,-2.0634,-2.0237,-2.0737,-2.113,-2.1326,-2.1032,-2.091,-2.0941,-2.1028,-2.1067,-2.1061,-2.1149,-2.1231,-2.127,-2.1345,-2.144,-2.1461,-2.0934,-2.0871,-2.1176,-2.1187,-2.1202,-2.1324,-2.2189,-2.2873,-2.348,-2.402,-2.4456,-2.4775,0.0,0.0,0.0,0.0,0.0,0.0,0.0,0.0,0.0,0.0,0.0,0.0,0.0,0.0,0.0,-1.8722,-1.8896,-1.9044,-1.9192,-1.9686,-2.0332,-2.1126,-2.1921,-2.2449,-2.2615,0.0,0.0,0.0,0.0,0.0,0.0,0.0,-1.876,-1.8673,-1.8123,-1.7935,-1.7948,0.0,-1.7475,-1.7516,0.0,-1.7895,-1.8242,-1.8556,-1.8841,-1.9031,-1.9093,-1.9191,-1.9302,-1.9317,-1.9479,-1.9574,-1.9465,-1.9376,0.0,0.0,0.0,0.0,0.0,0.0,0.0,0.0,0.0,0.0,-1.7301,-1.685,-1.6334,-1.5553,-1.3723,-1.109,-0.7124,-0.5967,-0.5118,-0.3603,-0.0261,-0.1113,-1.0595,-1.3398,-1.4876,-1.5961,-1.6712,-1.7303,-1.7843,-1.8184,-1.8456,-1.8823,-1.9207,-1.9326,-1.8979,-2.0208,-2.0821,-2.0715,-2.107,-2.0925,-2.0302,-2.0443,-2.0512,-2.0524,-2.0653,-2.0788,-2.0915,-2.1072,-2.1155,-2.1218,-2.1218,-2.1388,-2.153,-2.0031,-2.0369,-2.1766,-2.1068,-2.1752,-2.318,-2.3249,-2.3787,-2.4512,0.0,0.0,0.0,0.0,0.0,0.0,0.0,0.0,0.0,0.0,0.0,0.0,0.0,-1.7012,-1.7616,-1.8319,-1.8382,-1.8478,-1.8608,-1.9006,-1.9641,-2.057,-2.1236,-2.1917,-2.2601,0.0,0.0,0.0,0.0,0.0,0.0,0.0,0.0,0.0,-1.8123,-1.7788,-1.7557,-1.7282,0.0,-1.7323,-1.7475,-1.7814,-1.8242,-1.8556,-1.8841,-1.9051,-1.9628,-1.9599,-1.9413,-1.9958,-1.9968,-1.9747,-1.9812,0.0,0.0,0.0,0.0,0.0,-1.9472,0.0,0.0,0.0,0.0,0.0,-1.8282,-1.8159,-1.7949,-1.7246,-1.4426,-1.1829,-1.0973,-0.7032,-0.4547,-0.6568,-0.4966,-0.4956,-0.9177,-1.0963,-1.2301,-1.359,-1.4439,-1.5236,-1.5917,-1.6456,-1.6944,-1.7437,-1.7972,-1.8422,-1.8664,-1.9697,-1.9874,-1.9106,-1.9474,-1.9187,-1.8094,-1.8363,-1.8518,-1.8495,-1.8702,-1.8836,-1.892,-1.9079,-1.9177,-1.92,-1.9239,-1.9676,-2.0313,-2.0136,-2.0018,-1.9991,-2.0407,-2.1244,-2.2253,-2.2861,-2.3654,-2.4446,0.0,0.0,0.0,0.0,0.0,0.0,0.0,0.0,0.0,0.0,0.0,0.0,0.0,0.0,-1.7693,-1.7852,-1.7865,-1.7945,-1.8117,-1.8436,-1.9197,-2.0454,-2.1077,-2.1792,-2.2661,0.0,0.0,0.0,0.0,0.0,0.0,0.0,0.0,0.0,0.0,0.0,0.0,0.0,0.0,0.0,-1.7282,-1.7652,-1.8123,-1.8478,-1.875,-1.8984,-1.9513,-1.9511,-1.9398,-1.9855,-1.9967,-1.994,-2.0096,-2.0045,0.0,-1.994,0.0,0.0,0.0,0.0,0.0,0.0,0.0,0.0,-1.9453,-1.9557,-1.9687,-1.9654,-1.779,-1.61,-1.5859,-1.2405,-0.9986,-1.1104,-1.0031,-0.9062,-0.9195,-1.023,-1.1366,-1.2365,-1.3273,-1.4086,-1.4744,-1.5287,-1.5808,-1.633,-1.6883,-1.7544,-1.8316,-1.9037,-1.8986,-1.8004,-1.8375,-1.8051,-1.6892,-1.7134,-1.732,-1.7415,-1.7608,-1.7766,-1.7893,-1.81,-1.8243,-1.8322,-1.8365,-1.8691,-1.9233,-1.9503,-1.9615,-1.9645,-1.9839,-2.0671,-2.1821,-2.2334,-2.3271,-2.4321,0.0,0.0,0.0,0.0,0.0,0.0,0.0,0.0,0.0,0.0,0.0,0.0,0.0,0.0,0.0,0.0,-1.742,-1.7536,-1.7811,-1.8114,-1.903,-2.0658,-2.1156,-2.1825,-2.2795,0.0,0.0,0.0,0.0,0.0,0.0,0.0,0.0,0.0,0.0,0.0,0.0,0.0,0.0,-1.696,-1.7157,-1.7502,-1.7922,-1.8361,-1.862,-1.8836,-1.9098,-1.9249,-1.9302,-1.9413,-1.9741,-2.0111,-2.0354,-2.027,-2.0131,-2.0304,-2.0235,0.0,0.0,0.0,0.0,-2.0545,-2.0613,0.0,-2.0715,-2.0927,-2.139,-2.218,-2.2277,-2.1934,-2.0876,-1.9806,-1.8435,-1.6415,-1.5067,-1.332,-1.054,-1.0856,-1.1616,-1.2157,-1.2939,-1.36,-1.4082,-1.4547,-1.4994,-1.5457,-1.592,-1.6685,-1.7774,-1.8198,-1.8044,-1.7267,-1.7555,-1.7258,-1.627,-1.6496,-1.6722,-1.6942,-1.715,-1.7344,-1.7566,-1.7772,-1.7966,-1.8151,-1.8163,-1.8246,-1.8403,-1.85,-1.914,-1.9957,-1.9339,-2.0095,-2.1569,-2.1731,-2.274,-2.4061,-2.0407,0.0,0.0,0.0,0.0,0.0,0.0,0.0,0.0,0.0,0.0,0.0,0.0,0.0,0.0,0.0,-1.751,-1.7836,-1.8526,-1.8438,-1.9118,-2.0809,-2.0793,-2.1426,-2.2781,0.0,0.0,0.0,0.0,0.0,0.0,0.0,0.0,0.0,0.0,0.0,0.0,0.0,0.0,-1.7157,-1.7352,-1.7611,-1.7922,-1.8361,-1.8595,-1.8807,-1.9487,-1.9498,-1.9213,-1.9705,-2.0115,-2.0426,-2.0577,-2.0644,-2.0662,-2.0695,-2.0644,-2.0577,-2.0695,-2.0778,-2.0828,-2.0828,-2.1007,0.0,-2.1368,-2.1786,-2.2327,-2.3012,-2.3535,-2.3694,-2.3201,-2.2544,-2.1571,-2.0083,-1.8732,-1.6691,-1.3303,-1.2675,-1.2686,-1.2938,-1.3256,-1.3457,-1.3705,-1.401,-1.4291,-1.4605,-1.5332,-1.6071,-1.6769,-1.7133,-1.693,-1.6123,-1.6544,-1.634,-1.5448,-1.5851,-1.62,-1.6517,-1.6789,-1.7002,-1.7199,-1.7462,-1.7664,-1.7816,-1.7905,-1.8053,-1.8236,-1.8274,-1.857,-1.8985,-1.8949,-1.9613,-2.0661,-2.137,-2.2264,-2.3253,-2.0254,0.0,0.0,0.0,0.0,0.0,0.0,0.0,0.0,0.0,0.0,0.0,0.0,0.0,0.0,0.0,0.0,0.0,0.0,-1.9097,-1.9781,-2.1139,-2.1239,-2.1845,-2.2947,-2.3037,0.0,0.0,0.0,0.0,0.0,0.0,0.0,0.0,0.0,0.0,0.0,0.0,-1.7841,-1.7461,-1.7557,-1.7733,-1.7922,-1.8361,-1.8595,-1.8754,-1.9247,-1.9339,-1.9339,-1.9747,-2.0135,-2.0494,-2.0711,-2.0794,-2.0877,-2.0974,-2.0941,-2.0941,-2.1151,-2.1214,-2.1277,-2.1324,-2.1493,0.0,0.0,-2.2347,-2.2807,-2.3397,-2.3933,-2.4302,-2.4308,-2.4011,-2.3505,-2.2636,-2.1481,-1.9946,-1.7741,-1.5728,-1.4394,-1.4114,-1.4075,-1.4025,-1.3988,-1.4046,-1.4186,-1.4373,-1.4812,-1.5332,-1.5908,-1.6157,-1.5944,-1.5222,-1.5607,-1.5426,-1.4648,-1.5092,-1.5535,-1.5994,-1.6313,-1.6581,-1.685,-1.7126,-1.7344,-1.7549,-1.7726,-1.79,-1.8048,-1.8151,-1.8298,-1.8465,-1.866,-1.9345,-2.0318,-2.117,-2.2044,-2.2921,-2.0185,0.0,0.0,0.0,0.0,0.0,0.0,0.0,0.0,0.0,0.0,0.0,0.0,0.0,0.0,0.0,0.0,0.0,-1.96,-1.9966,-2.0573,-2.165,-2.1873,-2.2382,-2.3112,-2.329,-2.3407,0.0,0.0,0.0,0.0,0.0,0.0,0.0,0.0,0.0,0.0,0.0,0.0,-1.7842,-1.7977,-1.799,-1.7949,-1.8361,-1.8556,-1.8673,-1.8865,-1.9168,-1.945,-1.9696,-2.0085,-2.0478,-2.0712,-2.0909,-2.1039,-2.123,-2.1262,-2.1277,-2.1573,-2.1664,-2.1724,-2.184,-2.1969,-2.2141,0.0,0.0,0.0,-2.3495,-2.395,-2.4388,-2.4711,-2.4773,-2.4678,-2.4335,-2.347,-2.2578,-2.1811,-1.9119,-1.6823,-1.5726,-1.5295,-1.4994,-1.4674,-1.4362,-1.4222,-1.428,-1.4326,-1.4582,-1.5107,-1.5242,-1.5014,-1.432,-1.4633,-1.4509,-1.3881,-1.4319,-1.4864,-1.5433,-1.5826,-1.6163,-1.6517,-1.6789,-1.7068,-1.7337,-1.7526,-1.7687,-1.7878,-1.8027,-1.813,-1.8194,-1.8465,-1.907,-1.9918,-2.0784,-2.1655,-2.2531,-2.0135,-1.9782,0.0,0.0,0.0,0.0,0.0,0.0,0.0,0.0,0.0,0.0,-1.7422,-1.7517,-1.7862,-1.8623,-1.8956,-1.968,-2.0898,-2.095,-2.1335,-2.2243,-2.2104,-2.2411,-2.326,-2.3422,-2.364,0.0,0.0,0.0,0.0,0.0,0.0,0.0,-2.0177,0.0,0.0,0.0,-1.8707,-1.8282,-1.8932,-1.8739,-1.8042,-1.8386,-1.8517,-1.8556,-1.876,-1.9064,-1.945,-1.9696,-2.012,-2.0561,-2.0795,-2.1103,-2.1355,-2.1511,-2.1573,-2.1648,-2.1811,-2.194,-2.2068,-2.2153,-2.2298,-2.2497,-2.2712,0.0,-2.3175,-2.3526,0.0,-2.4295,-2.4653,0.0,0.0,-2.4902,-2.4496,-2.3938,-2.3268,-2.2106,-2.0459,-1.811,-1.7073,-1.6303,-1.5608,-1.4744,-1.4129,-1.3858,-1.3868,-1.3941,-1.4165,-1.4305,-1.4038,-1.3294,-1.3587,-1.3519,-1.302,-1.3742,-1.4328,-1.4803,-1.533,-1.5769,-1.6179,-1.6421,-1.6738,-1.7043,-1.7191,-1.7408,-1.7635,-1.771,-1.7878,-1.8048,-1.8325,-1.8575,-1.8886,-1.9747,-2.0612,-2.15,-2.0061,-1.9747,0.0,0.0,0.0,0.0,0.0,0.0,0.0,0.0,0.0,0.0,-1.7638,-1.7753,-1.8078,-1.8516,-1.9266,-2.012,-2.1088,-2.1643,0.0,-2.2663,-2.2805,-2.3097,-2.3566,-2.3839,-2.4094,0.0,-2.4426,0.0,0.0,0.0,0.0,0.0,-2.1599,0.0,-2.0774,0.0,-2.0308,-1.9843,-2.0142,-1.9708,-1.8943,-1.9077,-1.8984,-1.8788,-1.8912,-1.9213,-1.956,-1.9889,-2.0308,-2.0728,-2.1055,-2.134,-2.1617,-2.1781,-2.184,-2.1928,-2.2175,-2.2287,-2.2371,-2.2463,-2.2561,-2.2659,-2.2816,-2.2952,-2.3144,-2.3476,0.0,0.0,0.0,0.0,0.0,0.0,-2.4961,-2.471,-2.4264,-2.3675,-2.2353,-1.9808,-1.8731,-1.7673,-1.6286,-1.5241,-1.4525,-1.4186,-1.381,-1.361,-1.3647,-1.3552,-1.3253,-1.2648,-1.2744,-1.2671,-1.2444,-1.2981,-1.357,-1.4192,-1.4403,-1.4921,-1.5696,-1.5652,-1.6004,-1.6659,-1.6866,-1.7117,-1.732,-1.7509,-1.7664,-1.7789,-1.7988,-1.8222,-1.8513,-1.9345,-1.9944,-2.0439,-2.0041,0.0,0.0,0.0,0.0,0.0,0.0,0.0,0.0,-1.8686,-1.8735,-1.857,-1.8074,-1.8208,-1.8363,-1.8478,-1.933,-2.0212,-2.1111,-2.1951,-2.261,-2.2979,-2.3407,-2.3668,-2.3882,-2.4219,-2.4467,0.0,0.0,0.0,0.0,0.0,0.0,0.0,0.0,-2.2377,-2.2056,0.0,-2.1555,-2.1126,-2.1247,-2.0777,-1.9929,-1.9546,-1.9212,-1.9031,-1.9078,-1.9339,-1.9647,-2.0045,-2.0478,-2.0893,-2.1277,-2.1587,-2.1811,-2.1998,-2.213,-2.2186,-2.247,-2.2579,-2.2632,-2.2764,-2.2764,-2.279,-2.2893,-2.2995,-2.3119,-2.3407,-2.3747,0.0,0.0,0.0,-2.4972,0.0,0.0,-2.517,-2.4989,-2.4687,-2.3649,-2.1434,-2.013,-1.879,-1.7195,-1.6059,-1.5196,-1.4663,-1.3931,-1.342,-1.3266,-1.2967,-1.2541,-1.2041,-1.1911,-1.187,-1.1818,-1.2249,-1.2857,-1.3583,-1.3622,-1.4137,-1.5008,-1.4892,-1.5263,-1.6049,-1.6449,-1.6773,-1.7027,-1.7248,-1.7408,-1.7479,-1.7589,-1.7822,-1.8155,-1.8866,-1.9325,-1.97,-2.0041,-1.9848,0.0,0.0,0.0,0.0,0.0,0.0,-1.9699,-1.9603,-1.9885,-1.9808,-1.8949,-1.9021,-1.9052,-1.8818,-1.9156,-1.9964,-2.1322,-2.1772,-2.2382,-2.3246,-2.3625,-2.3867,-2.4078,-2.4426,-2.471,0.0,0.0,0.0,0.0,0.0,0.0,0.0,-2.3064,-2.2692,-2.2468,-2.2286,-2.2002,-2.1695,-2.2105,-2.1708,-2.0787,-1.9362,-1.8903,-1.9031,-1.9078,-1.9339,-1.9683,-2.0204,-2.0613,-2.0991,-2.1526,-2.184,-2.2027,-2.2231,-2.2388,-2.2497,-2.2659,-2.279,-2.2902,-2.2952,-2.2944,-2.2919,-2.2995,-2.3045,-2.3168,-2.336,-2.3682,-2.3978,-2.4173,-2.4476,0.0,0.0,0.0,0.0,0.0,-2.5261,-2.4582,-2.3019,-2.1142,-1.9565,-1.8544,-1.7249,-1.6114,-1.5229,-1.4329,-1.3515,-1.2861,-1.2501,-1.199,-1.1244,-1.1104,-1.107,-1.1125,-1.1653,-1.2295,-1.3042,-1.3166,-1.3514,-1.4041,-1.4283,-1.4644,-1.5102,-1.5883,-1.6405,-1.6722,-1.6876,-1.7002,-1.7109,-1.7175,-1.7344,-1.7572,-1.7983,-1.8676,-1.9425,-2.066,0.0,0.0,0.0,0.0,0.0,-2.0395,-2.0359,-2.0348,-2.0625,-2.069,-2.036,-1.9349,-1.9454,-1.9282,-1.8562,-1.9639,-2.0638,-2.1251,-2.2407,-2.3256,-2.3754,-2.4067,-2.4343,-2.4574,-2.4871,-2.5123,-2.5262,0.0,0.0,0.0,0.0,0.0,0.0,0.0,-2.4232,0.0,0.0,0.0,-2.3458,-2.2329,-2.1643,-2.1171,-1.9532,-1.9003,-1.9078,-1.9228,-1.9472,-1.9803,-2.0361,-2.0828,-2.1308,-2.1823,-2.213,-2.2371,-2.2561,-2.2659,-2.2738,-2.2919,-2.2995,-2.307,-2.3168,-2.3102,-2.3045,-2.3119,-2.3144,-2.3241,-2.3481,-2.3768,-2.4036,-2.4229,-2.4495,0.0,0.0,0.0,0.0,0.0,-2.5327,-2.4996,-2.4247,-2.2574,-2.1021,-1.994,-1.8493,-1.7168,-1.6071,-1.4835,-1.3758,-1.2967,-1.2147,-1.1507,-1.1038,-1.0352,-1.0214,-1.0696,-1.1032,-1.1597,-1.2461,-1.2329,-1.2731,-1.3514,-1.3092,-1.3486,-1.4564,-1.5004,-1.5625,-1.6328,-1.6581,-1.6789,-1.6917,-1.7018,-1.7142,-1.7296,-1.7658,-1.8053,-1.8623,-2.1391,-2.1288,0.0,-2.0805,-2.0611,-2.0696,-2.1181,-2.1088,-2.1084,-2.1369,-2.111,-2.0597,-1.9744,-1.969,-1.9378,-1.8559,-1.9634,-2.0659,-2.134,-2.2484,-2.3409,-2.4162,-2.4523,-2.4806,-2.4989,-2.5262,-2.547,-2.547,0.0,-2.5524,0.0,0.0,0.0,0.0,0.0,-2.5005,-2.5005,-2.495,-2.4775,-2.4465,-2.2668,-2.1847,-2.1554,-1.99,-1.925,-1.9213,-1.9435,-1.9675,-1.998,-2.0548,-2.1071,-2.1554,-2.2084,-2.2398,-2.2605,-2.2816,-2.2902,-2.2995,-2.3168,-2.3223,-2.3295,-2.3407,-2.3319,-2.3247,-2.3295,-2.3342,-2.3417,-2.366,-2.3935,-2.4153,-2.4303,-2.453,0.0,0.0,0.0,0.0,0.0,-2.5391,-2.5279,-2.5003,-2.3621,-2.2306,-2.1262,-1.9771,-1.8385,-1.714,-1.5668,-1.4332,-1.3236,-1.207,-1.1242,-1.0651,-0.9755,-0.9557,-1.0185,-1.0474,-1.1089,-1.2079,-1.1837,-1.2126,-1.2904,-1.2237,-1.2526,-1.3579,-1.4011,-1.474,-1.5674,-1.5956,-1.6281,-1.6633,-1.6738,-1.685,-1.6986,-1.7344,-1.7681,-1.8143,-2.2148,-2.2085,-2.2009,-2.2204,-2.2167,-2.2072,-2.2072,-2.1916,-2.1841,-2.1841,-2.1268,-2.0706,-2.0199,-1.9823,-1.9379,-1.8879,-1.9205,-2.0086,-2.1594,-2.2026,-2.2918,-2.4474,-2.4839,-2.5105,-2.5269,-2.554,-2.5647,-2.5616,0.0,0.0,0.0,0.0,0.0,0.0,-2.5005,0.0,-2.5005,-2.5107,-2.502,-2.4744,-2.304,-2.2255,-2.201,-2.043,-1.9675,-1.9487,-1.9654,-1.9889,-2.0239,-2.0812,-2.1275,-2.1748,-2.2315,-2.2605,-2.2764,-2.297,-2.3102,-2.3241,-2.3383,-2.3522,-2.3616,-2.3616,-2.3571,-2.3508,-2.3508,-2.358,-2.3674,-2.3878,-2.4135,-2.4339,-2.4393,-2.458,-2.4753,0.0,0.0,0.0,0.0,-2.5503,-2.5464,-2.5327,-2.4355,-2.3376,-2.2526,-2.107,-1.9641,-1.8385,-1.6715,-1.5149,-1.3669,-1.2337,-1.1208,-1.0261,-0.9283,-0.9074,-0.9649,-0.9995,-1.075,-1.1861,-1.1592,-1.1725,-1.2155,-1.1724,-1.178,-1.2217,-1.292,-1.3806,-1.4746,-1.4988,-1.5545,-1.6254,-1.634,-1.6501,-1.6747,-1.715,-1.7502,-1.8008,-2.3049,-2.3553,-2.3985,-2.4336,-2.363,-2.2955,-2.2955,-2.2574,-2.2278,-2.237,-2.2292,-2.181,-2.0727,-2.072,-2.0385,-1.9398,-2.0028,-2.0744,-2.1449,-2.2143,-2.2854,-2.346,-2.3767,-2.4223,-2.4919,-2.5081,-2.5431,-2.5881,-2.5881,0.0,-2.5626,0.0,0.0,0.0,0.0,-2.5146,-2.5301,-2.5416,-2.5169,-2.4588,-2.3451,-2.2548,-2.1784,-2.0736,-2.0273,-2.022,-2.003,-2.0204,-2.0563,-2.1071,-2.1554,-2.2039,-2.2508,-2.2825,-2.3095,-2.3265,-2.3407,-2.3526,-2.3602,-2.3689,-2.3771,-2.3855,-2.3894,-2.3873,-2.3873,-2.3959,-2.4059,-2.4174,-2.4425,-2.4594,-2.4623,-2.4794,-2.4926,0.0,0.0,0.0,-2.5485,-2.5545,-2.5566,-2.5535,-2.5101,-2.4372,-2.3327,-2.2056,-2.0794,-1.9561,-1.7882,-1.6296,-1.4902,-1.3097,-1.1679,-1.0661,-0.9323,-0.8795,-0.9298,-0.9499,-1.0215,-1.1394,-1.1143,-1.132,-1.1805,-1.1097,-1.118,-1.186,-1.2258,-1.2877,-1.3736,-1.4569,-1.5084,-1.5468,-1.6099,-1.6421,-1.6617,-1.7109,-1.7415,-1.7813,-2.4275,-2.507,-2.5678,-2.5816,-2.4945,-2.4038,-2.354,-2.3048,-2.2768,-2.2873,-2.2513,-2.2014,-2.1322,-2.0907,-2.046,-1.9863,-2.033,-2.0947,-2.1561,-2.2149,-2.2725,-2.324,-2.3601,-2.4148,-2.4993,-2.5112,-2.5512,-2.6173,-2.6154,0.0,-2.5937,0.0,0.0,0.0,0.0,-2.5262,-2.5394,-2.5717,-2.5494,-2.4824,-2.393,-2.2959,0.0,-2.118,-2.086,-2.0811,-2.0697,-2.0763,-2.0926,-2.1417,-2.1882,-2.2337,-2.2747,-2.3052,-2.3336,-2.3463,-2.3638,-2.375,-2.3878,-2.3959,-2.4039,-2.4135,-2.4173,-2.4173,-2.4211,-2.432,-2.4442,-2.4503,-2.4697,-2.4818,-2.4828,-2.4942,-2.5063,-2.5118,-2.5244,-2.5371,-2.5499,-2.555,-2.5611,-2.5638,-2.5457,-2.5031,-2.4312,-2.312,-2.1951,-2.0809,-1.9281,-1.7735,-1.6262,-1.4271,-1.2666,-1.1414,-0.9874,-0.9205,-0.9444,-0.9632,-1.0215,-1.1234,-1.1032,-1.1186,-1.1615,-1.0821,-1.0746,-1.1282,-1.1482,-1.2056,-1.2874,-1.3506,-1.4229,-1.5,-1.5902,-1.6328,-1.6448,-1.6825,-1.706,-1.7469,-2.5687,-2.6474,-2.7003,-2.6733,-2.6033,-2.5144,-2.3987,-2.3449,-2.3143,-2.3245,-2.2435,-2.1819,-2.1741,-2.081,-2.0222,-2.0258,-2.0444,-2.0879,-2.1682,-2.1951,-2.2458,-2.3258,-2.3653,-2.4228,-2.506,-2.5227,-2.5647,-2.6302,-2.635,0.0,0.0,0.0,0.0,0.0,0.0,0.0,0.0,-2.6026,-2.5847,-2.5128,-2.4363,-2.3406,-2.2361,-2.163,-2.1371,-2.1402,-2.1479,-2.1417,-2.137,-2.1794,-2.2226,-2.2624,-2.3028,-2.3271,-2.3481,-2.3689,-2.3837,-2.3998,-2.4192,-2.4303,-2.4357,-2.4425,-2.4458,-2.4474,-2.4538,-2.4654,-2.4779,-2.4823,-2.4949,-2.5031,-2.5031,-2.5091,-2.516,-2.5292,-2.5369,-2.5441,-2.5499,-2.5556,-2.5612,-2.5699,-2.5599,0.0,-2.526,-2.4155,-2.3052,-2.2091,-2.0803,-1.9379,-1.7782,-1.5847,-1.4125,-1.2579,-1.0938,-1.0094,-1.0021,-1.0127,-1.0542,-1.1335,-1.1099,-1.1174,-1.156,-1.0742,-1.0474,-1.0681,-1.0825,-1.1322,-1.2035,-1.2332,-1.3359,-1.4788,-1.5689,-1.613,-1.6274,-1.6394,-1.6591,-1.7043,-2.7264,-2.7364,-2.7381,-2.7349,-2.6688,-2.5725,-2.4514,-2.3784,-2.3243,-2.2921,-2.2761,-2.2349,-2.1415,-2.126,-2.1101,-2.0742,-2.0778,-2.099,-2.136,-2.1487,-2.1724,-2.2145,-2.2354,-2.2895,-2.3896,-2.4509,-2.519,-2.5907,-2.6387,0.0,0.0,0.0,0.0,0.0,0.0,0.0,-2.5997,-2.6382,-2.5831,-2.4706,-2.4495,-2.3466,-2.2065,-2.189,-2.1811,-2.1794,-2.1924,-2.1924,-2.1895,-2.2136,-2.2537,-2.2952,-2.3271,-2.3513,-2.3771,-2.3976,-2.4114,-2.4266,-2.4409,-2.4497,-2.4582,-2.4695,-2.4768,-2.4823,-2.4832,-2.4915,-2.5025,-2.5056,-2.5115,-2.519,-2.525,-2.5264,-2.5293,-2.5369,-2.5448,-2.5517,-2.5568,-2.5586,-2.5613,-2.5694,-2.5677,-2.5606,-2.5465,-2.4706,-2.393,-2.3238,-2.215,-2.1019,-1.9822,-1.8044,-1.6393,-1.4955,-1.2893,-1.1631,-1.1301,-1.0715,-1.0799,-1.1468,-1.0988,-1.0989,-1.1422,-1.0609,-1.0324,-1.0548,-1.0681,-1.0894,-1.12,-1.195,-1.3216,-1.4743,-1.5022,-1.5509,-1.6052,-1.6136,-1.6234,-1.6507,-2.8428,-2.8119,-2.7778,-2.7839,-2.6933,-2.5926,-2.5052,-2.4326,-2.3606,-2.2956,-2.2645,-2.2274,-2.178,-2.1505,-2.1291,-2.1135,-2.1198,-2.134,-2.1495,-2.1631,-2.1807,-2.2039,-2.2254,-2.2805,-2.3798,-2.4178,-2.489,-2.6061,-2.6285,-2.6565,0.0,0.0,0.0,0.0,0.0,-2.6227,0.0,0.0,-2.5746,-2.4832,-2.432,-2.3414,-2.2298,-2.2231,-2.226,-2.2326,-2.2381,-2.251,-2.2695,-2.2704,-2.2933,-2.3242,-2.3558,-2.3816,-2.4039,-2.421,-2.4356,-2.4476,-2.4626,-2.4704,-2.4779,-2.4865,-2.4953,-2.5006,-2.505,-2.5099,-2.5157,-2.5209,-2.5262,-2.5313,-2.534,-2.5376,-2.5418,-2.5449,-2.5511,-2.5556,-2.56,-2.5628,-2.5655,-2.5703,-2.5703,-2.567,-2.5603,-2.5246,-2.4778,-2.4172,-2.3431,-2.2558,-2.1586,-2.0082,-1.8669,-1.7346,-1.5159,-1.3712,-1.3105,-1.2072,-1.1707,-1.2018,-1.1263,-1.1081,-1.1362,-1.0555,-1.0274,-1.0474,-1.0597,-1.0705,-1.0928,-1.1834,-1.2722,-1.3646,-1.4445,-1.5016,-1.543,-1.5805,-1.6011,-1.6243,-2.8954,-2.8471,-2.7933,-2.7732,-2.6814,-2.5766,-2.4959,-2.4401,-2.3764,-2.2904,-2.2431,-2.2147,-2.2118,-2.1617,-2.1356,-2.1479,-2.1587,-2.1694,-2.1768,-2.1957,-2.2124,-2.2292,-2.2535,-2.3041,-2.3798,-2.3972,-2.4652,-2.59,-2.6091,-2.6419,-2.694,0.0,0.0,0.0,0.0,0.0,-2.7002,-2.6361,-2.5725,-2.5084,-2.4209,-2.3394,-2.2685,-2.2605,-2.2659,-2.279,-2.2816,-2.306,-2.3353,-2.3312,-2.3387,-2.3566,-2.3878,-2.4078,-2.4247,-2.4202,-2.4279,-2.4407,-2.4544,-2.4628,-2.4727,-2.4981,-2.5075,-2.5141,-2.5198,-2.5241,-2.5273,-2.5322,-2.537,-2.5412,-2.543,-2.5478,-2.5518,-2.5517,-2.5585,-2.563,-2.5613,-2.5671,-2.5707,-2.5693,-2.5697,-2.5702,-2.5698,-2.5642,-2.5413,-2.4943,-2.4477,-2.3886,-2.312,-2.199,-2.0844,-1.9736,-1.7421,-1.5867,-1.5122,-1.3579,-1.2763,-1.2719,-1.1652,-1.1247,-1.1362,-1.0555,-1.0249,-1.0374,-1.0523,-1.0656,-1.0866,-1.1605,-1.2123,-1.2551,-1.366,-1.4278,-1.4567,-1.5265,-1.5589,-1.5805,-2.8207,-2.8061,-2.7508,-2.6335,-2.6008,-2.533,-2.3584,-2.3233,-2.3041,-2.2524,-2.2394,-2.2199,-2.1798,-2.1697,-2.1678,-2.1768,-2.184,-2.1899,-2.1969,-2.2215,-2.2426,-2.2552,-2.2764,-2.3005,-2.3274,-2.3942,-2.4365,-2.46,-2.5792,-2.6394,-2.6493,0.0,0.0,0.0,-2.7038,-2.71,-2.722,-2.6571,-2.5924,-2.5304,-2.4427,-2.3632,-2.297,-2.2893,-2.2944,-2.3095,-2.3206,-2.3399,-2.3628,-2.3842,-2.3881,-2.3878,-2.4097,-2.4266,-2.4258,-2.3659,-2.3587,-2.3717,-2.3853,-2.3902,-2.4102,-2.4973,-2.5198,-2.5212,-2.5283,-2.5341,-2.5379,-2.5395,-2.5441,-2.5492,-2.5486,-2.556,-2.5586,-2.5595,-2.5656,-2.5691,-2.5684,-2.5693,-2.5701,-2.5705,-2.5693,-2.5701,-2.5703,-2.5683,-2.5638,-2.5522,-2.5142,-2.4749,-2.4346,-2.3583,-2.2794,-2.2,-1.9538,-1.7867,-1.7133,-1.4892,-1.369,-1.3483,-1.2065,-1.1369,-1.1362,-1.0503,-1.0161,-1.0237,-1.0424,-1.0621,-1.0815,-1.0966,-1.1507,-1.2252,-1.2442,-1.2921,-1.3622,-1.4293,-1.4583,-1.4726,-2.8098,-2.7537,-2.6866,-2.5847,-2.5313,-2.4691,-2.3579,-2.3435,-2.3265,-2.2647,-2.2438,-2.2265,-2.2082,-2.2065,-2.2094,-2.2163,-2.222,-2.2287,-2.2371,-2.2588,-2.2747,-2.2876,-2.3077,-2.3295,-2.3499,-2.3789,-2.4164,-2.4641,-2.5141,-2.5809,-2.6634,-2.6743,-2.6765,-2.6735,-2.6824,-2.6678,-2.6345,-2.5597,-2.5146,-2.491,-2.4025,-2.353,-2.3289,-2.3271,-2.3342,-2.3481,-2.3576,-2.3735,-2.3941,-2.4118,-2.4155,-2.4191,-2.4393,-2.4176,-2.3817,-2.3634,-2.329,-2.3011,-2.3111,-2.3176,-2.3294,-2.3669,-2.3765,-2.3909,-2.4446,-2.4608,-2.4769,-2.5294,-2.5485,-2.5568,-2.5556,-2.5604,-2.566,-2.5652,-2.5684,-2.569,-2.5696,-2.5701,-2.5705,-2.5707,-2.5709,-2.5693,-2.5697,-2.5697,-2.5681,-2.5663,-2.5469,-2.5279,-2.5052,-2.4613,-2.4129,-2.3654,-2.1317,-1.9734,-1.9018,-1.6538,-1.5023,-1.4471,-1.2837,-1.191,-1.1615,-1.0609,-1.0199,-1.0287,-1.0424,-1.0572,-1.0681,-1.0801,-1.1073,-1.1468,-1.1936,-1.2309,-1.2699,-1.334,-1.3826,-1.4227,-2.7242,-2.6646,-2.6002,-2.5193,-2.4675,-2.4132,-2.3526,-2.346,-2.3352,-2.2886,-2.2659,-2.2542,-2.2432,-2.2405,-2.2432,-2.2515,-2.2579,-2.2659,-2.2738,-2.2919,-2.3095,-2.3199,-2.3407,-2.3567,-2.3725,-2.3732,-2.4003,-2.4554,-2.4721,-2.5302,-2.6232,-2.6322,-2.6366,-2.6419,-2.6499,-2.6336,-2.5882,-2.51,-2.4764,-2.471,-2.3853,-2.3567,-2.3634,-2.3616,-2.3703,-2.3828,-2.3878,-2.402,-2.4211,-2.4371,-2.4441,-2.4513,-2.4629,-2.4159,-2.3544,-2.3405,-2.2856,-2.2295,-2.2355,-2.2411,-2.2504,-2.2774,-2.2821,-2.2981,-2.3604,-2.3956,-2.4382,-2.5284,-2.5543,-2.563,-2.564,-2.5675,-2.5704,-2.5693,-2.5698,-2.5701,-2.5701,-2.5705,-2.5707,-2.5707,-2.5707,-2.5707,-2.5707,-2.5707,-2.5691,-2.5698,-2.5658,-2.5597,-2.5488,-2.5271,-2.4908,-2.4395,-2.2462,-2.1006,-2.0149,-1.7752,-1.6166,-1.5372,-1.3572,-1.2441,-1.1881,-1.0689,-1.0199,-1.0299,-1.0399,-1.0498,-1.0597,-1.0681,-1.0777,-1.088,-1.1419,-1.1649,-1.1797,-1.2577,-1.3165,-1.3643,-2.5347,-2.5265,-2.4965,-2.4162,-2.4023,-2.3789,-2.3117,-2.3045,-2.3095,-2.3095,-2.3144,-2.3052,-2.2738,-2.2685,-2.2712,-2.279,-2.2868,-2.2944,-2.3095,-2.3217,-2.3342,-2.3481,-2.3616,-2.3725,-2.3795,-2.3858,-2.3896,-2.3915,-2.4628,-2.4978,-2.4928,-2.5679,-2.6069,-2.6209,-2.6209,-2.6227,-2.625,-2.5437,-2.5049,-2.4928,-2.4121,-2.3855,-2.3896,-2.3896,-2.3976,-2.4113,-2.4154,-2.4284,-2.4424,-2.4636,-2.4775,-2.4884,-2.4827,-2.4289,-2.3556,-2.2833,-2.2096,-2.1538,-2.1597,-2.161,-2.1818,-2.2678,-2.2898,-2.2902,-2.2905,-2.3579,-2.4464,-2.5396,-2.5652,-2.5707,-2.5696,-2.5698,-2.5701,-2.5705,-2.5707,-2.5707,-2.5707,-2.5707,-2.5707,-2.5707,-2.5707,-2.5707,-2.5707,-2.5707,-2.5707,-2.5707,-2.5698,-2.5703,-2.5701,-2.5563,-2.5063,-2.4127,-2.2855,-2.1545,-2.0209,-1.8336,-1.6957,-1.606,-1.4124,-1.2828,-1.2157,-1.0663,-1.011,-1.0299,-1.0299,-1.0374,-1.0523,-1.0572,-1.0597,-1.0621,-1.0694,-1.0718,-1.0868,-1.2156,-1.2622,-1.2801,-2.508,-2.4949,-2.4651,-2.376,-2.3667,-2.365,-2.3378,-2.3399,-2.3427,-2.3427,-2.345,-2.3427,-2.3335,-2.3157,-2.307,-2.3144,-2.3247,-2.3348,-2.3445,-2.3558,-2.3707,-2.3852,-2.3937,-2.3999,-2.4058,-2.4191,-2.421,-2.4172,-2.4448,-2.4814,-2.5267,-2.6033,-2.6167,-2.5715,-2.5775,-2.55,-2.4985,-2.4669,-2.4558,-2.4559,-2.4225,-2.4115,-2.4191,-2.421,-2.4266,-2.4321,-2.4428,-2.4545,-2.4636,-2.4851,-2.4968,-2.4934,-2.443,-2.3692,-2.2868,-2.2077,-2.1301,-2.0706,-2.0753,-2.0779,-2.0849,-2.1133,-2.1198,-2.1359,-2.1958,-2.3215,-2.4535,-2.5472,-2.5691,-2.5704,-2.5698,-2.5703,-2.5705,-2.5707,-2.5707,-2.5707,-2.5707,-2.5199,-2.4807,-2.4807,-2.4298,-2.3925,-2.3925,-2.4469,-2.4818,-2.4805,-2.5357,-2.5701,-2.5699,-2.5615,-2.5157,-2.4261,-2.3176,-2.2027,-2.0841,-1.9214,-1.7949,-1.6959,-1.5404,-1.362,-1.1683,-1.0469,-1.0008,-1.011,-1.0122,-1.0211,-1.0299,-1.0374,-1.0399,-1.0399,-1.0373,-1.0386,-1.0516,-1.1349,-1.1964,-1.2519,-2.4621,-2.449,-2.4302,-2.3643,-2.3638,-2.3725,-2.3685,-2.3735,-2.378,-2.3759,-2.378,-2.3819,-2.3759,-2.3667,-2.3576,-2.3504,-2.3598,-2.3728,-2.378,-2.3901,-2.4057,-2.4154,-2.4211,-2.4284,-2.4338,-2.4446,-2.4446,-2.441,-2.4446,-2.4705,-2.5152,-2.5653,-2.5652,-2.5239,-2.5274,-2.5013,-2.451,-2.4444,-2.4445,-2.4464,-2.4392,-2.4392,-2.4409,-2.4515,-2.4551,-2.4566,-2.4676,-2.4746,-2.4842,-2.505,-2.4938,-2.461,-2.3871,-2.303,-2.2207,-2.1683,-2.0979,-2.0344,-2.0418,-2.0434,-2.0444,-2.0444,-2.0449,-2.0672,-2.1541,-2.257,-2.3622,-2.4537,-2.4982,-2.5205,-2.5213,-2.5471,-2.5707,-2.5707,-2.5434,-2.5219,-2.5219,-2.4458,-2.3909,-2.3909,-2.3439,-2.3103,-2.3103,-2.3584,-2.4052,-2.4374,-2.4905,-2.5344,-2.5684,-2.565,-2.5093,-2.3887,-2.3229,-2.2177,-2.0746,-1.9636,-1.8571,-1.7565,-1.5503,-1.3466,-1.1494,-1.0431,-0.9944,-0.9995,-1.0021,-1.0059,-1.0097,-1.0173,-1.0148,-1.0072,-1.0072,-1.0072,-1.0174,-1.1036,-1.1653,-1.2216,-2.4056,-2.4036,-2.3978,-2.3858,-2.3896,-2.3958,-2.4016,-2.4096,-2.4098,-2.4059,-2.4154,-2.4173,-2.4059,-2.4192,-2.4192,-2.3881,-2.3978,-2.4057,-2.4135,-2.4248,-2.4356,-2.4424,-2.4476,-2.4545,-2.4631,-2.4613,-2.4613,-2.4629,-2.4629,-2.466,-2.4738,-2.4738,-2.4764,-2.4818,-2.4832,-2.4787,-2.4723,-2.4639,-2.4626,-2.4631,-2.4607,-2.4623,-2.4639,-2.4772,-2.4821,-2.4817,-2.4888,-2.4968,-2.5056,-2.5253,-2.4773,-2.3975,-2.3236,-2.2421,-2.1682,-2.1563,-2.0997,-2.0424,-2.0472,-2.0504,-2.0511,-2.0511,-2.0519,-2.0727,-2.16,-2.1798,-2.2054,-2.2923,-2.3747,-2.4315,-2.4302,-2.5024,-2.5592,-2.5531,-2.4887,-2.438,-2.4319,-2.356,-2.3015,-2.3013,-2.2951,-2.2927,-2.2927,-2.2981,-2.3352,-2.4159,-2.4339,-2.4756,-2.5565,-2.5602,-2.484,-2.3147,-2.3037,-2.2062,-2.0133,-1.9654,-1.8904,-1.7817,-1.4705,-1.267,-1.1627,-1.0496,-0.997,-0.997,-0.9905,-0.988,-0.988,-0.9944,-0.9854,-0.9684,-0.9802,-0.9776,-0.9807,-1.1078,-1.1597,-1.1882,-2.432,-2.4266,-2.421,-2.4191,-2.4229,-2.4284,-2.4302,-2.4409,-2.4479,-2.4461,-2.4497,-2.4497,-2.4461,-2.4564,-2.4559,-2.4489,-2.4407,-2.4409,-2.4479,-2.4564,-2.4645,-2.4692,-2.4719,-2.4764,-2.4827,-2.4837,-2.4847,-2.4902,-2.4902,-2.4947,-2.5006,-2.5006,-2.5013,-2.5024,-2.5032,-2.5006,-2.4993,-2.4874,-2.4865,-2.4898,-2.4847,-2.4861,-2.4907,-2.4947,-2.4974,-2.5032,-2.5049,-2.5133,-2.5236,-2.5343,-2.488,-2.4103,-2.332,-2.2473,-2.164,-2.0951,-2.0632,-2.0487,-2.0506,-2.0539,-2.0586,-2.0586,-2.0586,-2.0784,-2.1608,-2.1806,-2.2045,-2.2916,-2.3252,-2.3412,-2.3416,-2.4117,-2.4486,-2.3822,-2.4096,-2.4173,-2.3503,-2.2707,-2.2181,-2.2174,-2.1606,-2.1195,-2.1189,-2.1747,-2.2196,-2.2398,-2.3659,-2.4487,-2.4707,-2.4705,-2.4212,-2.3132,-2.3075,-2.2138,-2.02,-1.9867,-1.8913,-1.7333,-1.4587,-1.2935,-1.2238,-1.0585,-0.9828,-0.9788,-0.9762,-0.9684,-0.9591,-0.9617,-0.9526,-0.9393,-0.9366,-0.9366,-0.9539,-1.0696,-1.1265,-1.1652,-2.4556,-2.451,-2.4476,-2.4476,-2.4545,-2.4594,-2.462,-2.4719,-2.4783,-2.4783,-2.4779,-2.4779,-2.4783,-2.4842,-2.4879,-2.4883,-2.4756,-2.47,-2.4783,-2.4856,-2.4898,-2.4931,-2.4947,-2.4968,-2.5044,-2.5038,-2.5043,-2.5091,-2.5091,-2.5122,-2.5195,-2.5195,-2.5187,-2.5182,-2.5187,-2.5195,-2.5184,-2.5075,-2.505,-2.5082,-2.505,-2.505,-2.5094,-2.5134,-2.5149,-2.5192,-2.5236,-2.5302,-2.5401,-2.5473,-2.4985,-2.4189,-2.3358,-2.2498,-2.1626,-2.0751,-2.0511,-2.0543,-2.0547,-2.0573,-2.0597,-2.0598,-2.0599,-2.0717,-2.111,-2.1208,-2.1345,-2.1816,-2.2227,-2.2519,-2.2517,-2.3222,-2.3652,-2.3183,-2.3164,-2.3046,-2.2576,-2.1797,-2.1269,-2.1268,-2.0838,-2.0544,-2.0559,-2.0946,-2.1375,-2.177,-2.2673,-2.3398,-2.3787,-2.3814,-2.3591,-2.3105,-2.2718,-2.174,-2.0161,-1.9401,-1.8217,-1.6611,-1.4364,-1.285,-1.1993,-1.0507,-0.9762,-0.9658,-0.9605,-0.9499,-0.9351,-0.9351,-0.9271,-0.9112,-0.9031,-0.9031,-0.9145,-1.0244,-1.0783,-1.1188,-2.4771,-2.4756,-2.4756,-2.4756,-2.4799,-2.4874,-2.4942,-2.5,-2.5044,-2.5044,-2.505,-2.5031,-2.5025,-2.5094,-2.5134,-2.5149,-2.5049,-2.4987,-2.5032,-2.5082,-2.5137,-2.5118,-2.5145,-2.5171,-2.5231,-2.5241,-2.5243,-2.5244,-2.5244,-2.5284,-2.5341,-2.5322,-2.5332,-2.5331,-2.5332,-2.5332,-2.5322,-2.5252,-2.5231,-2.5231,-2.5231,-2.5241,-2.5233,-2.5303,-2.534,-2.5357,-2.5406,-2.5466,-2.5518,-2.5581,-2.507,-2.4264,-2.3515,-2.2673,-2.1806,-2.0941,-2.0718,-2.0742,-2.0625,-2.0585,-2.0583,-2.0582,-2.058,-2.0558,-2.0494,-2.0471,-2.0471,-2.0472,-2.1074,-2.1598,-2.1594,-2.2309,-2.2844,-2.2708,-2.218,-2.1749,-2.1614,-2.0949,-2.0477,-2.0476,-2.0479,-2.0482,-2.0486,-2.0487,-2.0801,-2.1542,-2.1736,-2.2121,-2.2849,-2.287,-2.2866,-2.2839,-2.2144,-2.1185,-1.9991,-1.8685,-1.7325,-1.5893,-1.4071,-1.2587,-1.1389,-1.0249,-0.9658,-0.9538,-0.9393,-0.9247,-0.9124,-0.9097,-0.8987,-0.8822,-0.8745,-0.869,-0.8744,-0.9673,-1.0186,-1.0582,-2.5037,-2.4987,-2.4962,-2.5024,-2.5049,-2.508,-2.5134,-2.516,-2.5173,-2.5173,-2.5214,-2.5224,-2.5173,-2.5225,-2.5293,-2.5351,-2.5337,-2.5283,-2.519,-2.5231,-2.5271,-2.5273,-2.5332,-2.5359,-2.5374,-2.5414,-2.5456,-2.5437,-2.5452,-2.5466,-2.5466,-2.546,-2.546,-2.5473,-2.5466,-2.5464,-2.5464,-2.541,-2.5365,-2.5367,-2.5365,-2.5363,-2.5387,-2.5432,-2.5505,-2.5557,-2.5576,-2.5586,-2.5595,-2.5599,-2.5039,-2.4293,-2.4157,-2.3521,-2.2646,-2.1768,-2.1521,-2.1376,-2.0694,-2.0514,-2.0529,-2.0529,-2.0465,-2.0434,-2.041,-2.041,-2.0418,-2.0415,-2.0517,-2.0624,-2.0631,-2.1333,-2.1675,-2.0931,-2.1312,-2.1454,-2.0718,-2.0492,-2.043,-2.0415,-2.0415,-2.0428,-2.0422,-2.0474,-2.0567,-2.0685,-2.1377,-2.1834,-2.1905,-2.1861,-2.1789,-2.1673,-2.164,-2.09,-1.934,-1.8304,-1.7025,-1.5567,-1.3738,-1.2266,-1.1041,-0.9958,-0.9381,-0.9271,-0.9108,-0.8971,-0.8784,-0.8728,-0.8617,-0.8467,-0.8393,-0.8365,-0.8428,-0.8978,-0.9573,-1.019,-2.5264,-2.5234,-2.5234,-2.5265,-2.5293,-2.5339,-2.5357,-2.5371,-2.5368,-2.5368,-2.5395,-2.5395,-2.5368,-2.5383,-2.5437,-2.5507,-2.551,-2.5478,-2.541,-2.5414,-2.5414,-2.5422,-2.5434,-2.548,-2.5503,-2.5544,-2.5538,-2.5538,-2.555,-2.5543,-2.556,-2.5546,-2.5546,-2.556,-2.5546,-2.5554,-2.5562,-2.5518,-2.5506,-2.5511,-2.5517,-2.5506,-2.5515,-2.5546,-2.5566,-2.56,-2.5592,-2.5604,-2.5604,-2.5593,-2.5304,-2.4856,-2.4341,-2.3921,-2.333,-2.1994,-2.1307,-2.0917,-2.0546,-2.0445,-2.0439,-2.0405,-2.0374,-2.034,-2.0296,-2.0288,-2.0287,-2.0294,-2.0268,-2.0229,-2.0244,-2.0598,-2.0752,-2.0365,-2.063,-2.0766,-2.0402,-2.0349,-2.0349,-2.0352,-2.0346,-2.0338,-2.0351,-2.041,-2.0443,-2.0445,-2.0793,-2.0967,-2.0895,-2.0788,-2.0655,-2.0488,-2.0334,-1.9748,-1.8658,-1.765,-1.6272,-1.4446,-1.3129,-1.1708,-1.027,-0.9581,-0.9124,-0.8921,-0.8778,-0.8639,-0.8477,-0.8449,-0.8375,-0.829,-0.8138,-0.808,-0.8132,-0.8542,-0.9065,-0.9705,-2.5437,-2.5453,-2.5449,-2.5456,-2.5485,-2.5512,-2.5517,-2.5529,-2.5515,-2.5515,-2.554,-2.554,-2.5521,-2.554,-2.556,-2.5593,-2.5599,-2.5625,-2.5621,-2.557,-2.5547,-2.5515,-2.5549,-2.5568,-2.5624,-2.562,-2.561,-2.561,-2.5615,-2.5628,-2.5625,-2.5629,-2.5609,-2.5629,-2.5613,-2.5613,-2.5625,-2.5613,-2.5604,-2.56,-2.56,-2.5609,-2.5609,-2.5597,-2.5604,-2.5605,-2.5576,-2.557,-2.555,-2.5547,-2.5486,-2.5307,-2.4562,-2.4187,-2.3715,-2.2181,-2.1031,-2.0295,-2.0319,-2.0319,-2.032,-2.0244,-2.0236,-2.0207,-2.0161,-2.0129,-2.0122,-2.0133,-2.0096,-2.004,-2.0039,-2.0067,-2.0103,-2.0101,-2.0126,-2.015,-2.02,-2.0219,-2.0246,-2.0248,-2.0241,-2.0241,-2.025,-2.0289,-2.0315,-2.0315,-2.0236,-2.0165,-2.0073,-1.9926,-1.9703,-1.9355,-1.9069,-1.8607,-1.7959,-1.6828,-1.5283,-1.3374,-1.2348,-1.1073,-0.9579,-0.9151,-0.885,-0.8589,-0.8421,-0.829,-0.8176,-0.8176,-0.8119,-0.8072,-0.7879,-0.7811,-0.7822,-0.8036,-0.8558,-0.9247,-2.5568,-2.5593,-2.5587,-2.5595,-2.5595,-2.5587,-2.5581,-2.5586,-2.5586,-2.5586,-2.5643,-2.5656,-2.5598,-2.5656,-2.5664,-2.5609,-2.5664,-2.5694,-2.5681,-2.5682,-2.5652,-2.5591,-2.5651,-2.5693,-2.5696,-2.5697,-2.5697,-2.5697,-2.5699,-2.5681,-2.5681,-2.5683,-2.5683,-2.5683,-2.5684,-2.5683,-2.5698,-2.5697,-2.5655,-2.5593,-2.56,-2.5605,-2.5604,-2.5593,-2.5595,-2.559,-2.5532,-2.546,-2.5415,-2.5335,-2.5283,-2.5186,-2.4981,-2.4419,-2.3633,-2.2619,-2.1202,-1.9972,-2.0084,-2.012,-2.0114,-2.005,-2.0012,-2.0002,-1.9934,-1.9922,-1.9928,-1.9918,-1.9926,-1.9896,-1.9824,-1.9824,-1.9824,-1.9824,-1.9877,-1.992,-1.9924,-1.9991,-2.0049,-2.0108,-2.0069,-2.0059,-2.0108,-2.006,-2.0021,-2.0021,-1.9964,-1.9852,-1.9661,-1.9524,-1.9097,-1.8332,-1.8336,-1.7974,-1.7186,-1.5681,-1.4195,-1.2745,-1.1424,-1.0254,-0.9205,-0.8822,-0.8516,-0.8319,-0.8042,-0.7908,-0.7821,-0.7773,-0.7754,-0.7725,-0.7578,-0.7519,-0.7519,-0.7351,-0.7925,-0.8833,-2.5658,-2.5658,-2.5667,-2.5652,-2.5665,-2.5657,-2.5664,-2.5668,-2.565,-2.565,-2.5673,-2.5694,-2.5655,-2.5676,-2.5698,-2.5662,-2.5684,-2.5701,-2.5693,-2.5691,-2.5681,-2.5652,-2.5681,-2.5703,-2.5696,-2.5694,-2.5694,-2.5694,-2.5693,-2.5693,-2.5693,-2.5701,-2.5693,-2.5707,-2.5654,-2.564,-2.5646,-2.5634,-2.5618,-2.5599,-2.5593,-2.5603,-2.56,-2.5556,-2.5517,-2.5473,-2.5398,-2.532,-2.5137,-2.456,-2.4293,-2.4093,-2.3455,-2.303,-2.2574,-2.1671,-2.0581,-1.965,-1.9663,-1.9783,-1.989,-1.9836,-1.9778,-1.975,-1.9713,-1.9695,-1.9643,-1.9604,-1.9577,-1.9569,-1.9504,-1.9499,-1.9508,-1.9559,-1.9612,-1.9676,-1.9719,-1.9762,-1.9816,-1.9851,-1.9828,-1.9816,-1.9858,-1.9802,-1.9722,-1.9687,-1.9538,-1.9355,-1.9114,-1.8627,-1.8044,-1.7405,-1.6614,-1.6031,-1.5681,-1.4513,-1.3109,-1.1464,-1.0659,-0.9772,-0.8822,-0.8488,-0.8205,-0.7966,-0.7782,-0.7676,-0.7598,-0.7578,-0.7558,-0.7499,-0.7362,-0.7264,-0.7202,-0.7302,-0.7804,-0.8447,-2.5693,-2.5696,-2.5703,-2.5696,-2.5702,-2.5703,-2.5702,-2.5701,-2.57,-2.57,-2.57,-2.57,-2.57,-2.5697,-2.5693,-2.5691,-2.5683,-2.5671,-2.5678,-2.5675,-2.5673,-2.5698,-2.5696,-2.5707,-2.5704,-2.5704,-2.5681,-2.5678,-2.5678,-2.5678,-2.5675,-2.5671,-2.5654,-2.5634,-2.5586,-2.5571,-2.5571,-2.5546,-2.555,-2.5546,-2.5532,-2.5526,-2.5505,-2.5437,-2.5213,-2.4917,-2.4851,-2.4585,-2.4159,-2.348,-2.3188,-2.2966,-2.2245,-2.1782,-2.1365,-2.0511,-1.9837,-1.935,-1.9289,-1.9419,-1.9553,-1.954,-1.9513,-1.949,-1.9485,-1.9427,-1.935,-1.9323,-1.9295,-1.9248,-1.918,-1.9159,-1.9191,-1.9259,-1.9114,-1.9017,-1.9087,-1.9159,-1.9205,-1.9194,-1.941,-1.9532,-1.9499,-1.9402,-1.9308,-1.9217,-1.8997,-1.8679,-1.8282,-1.7467,-1.6755,-1.62,-1.4856,-1.3944,-1.3566,-1.2899,-1.1882,-1.0476,-0.985,-0.9181,-0.846,-0.8205,-0.7947,-0.7715,-0.7598,-0.748,-0.7421,-0.7392,-0.7342,-0.7292,-0.7086,-0.7028,-0.7054,-0.717,-0.7612,-0.8208,-2.5703,-2.5703,-2.5702,-2.5702,-2.5698,-2.5691,-2.5693,-2.571,-2.571,-2.571,-2.571,-2.571,-2.571,-2.5691,-2.5699,-2.5699,-2.563,-2.56,-2.5604,-2.5595,-2.5624,-2.5697,-2.5697,-2.5697,-2.5691,-2.5691,-2.5664,-2.5604,-2.5604,-2.56,-2.5605,-2.5609,-2.5554,-2.5498,-2.5506,-2.5492,-2.5492,-2.5439,-2.5391,-2.5406,-2.541,-2.5359,-2.5303,-2.5233,-2.4643,-2.3881,-2.3819,-2.3202,-2.2382,-2.2173,-2.2039,-2.1946,-2.1658,-2.0987,-2.0116,-1.9334,-1.9099,-1.9082,-1.9018,-1.9002,-1.9035,-1.9162,-1.9259,-1.9292,-1.9216,-1.915,-1.9099,-1.9104,-1.9036,-1.8984,-1.8913,-1.8877,-1.8913,-1.8966,-1.8366,-1.792,-1.7975,-1.8057,-1.8086,-1.8092,-1.8755,-1.9166,-1.9091,-1.8908,-1.8735,-1.861,-1.8276,-1.7791,-1.7109,-1.608,-1.5205,-1.4591,-1.3231,-1.1925,-1.0809,-1.0782,-1.0532,-0.9974,-0.9035,-0.846,-0.8187,-0.7918,-0.7686,-0.749,-0.744,-0.7312,-0.7196,-0.7116,-0.7095,-0.7065,-0.6717,-0.679,-0.709,-0.6875,-0.7359,-0.8109,-2.5707,-2.5698,-2.5707,-2.5707,-2.5652,-2.5636,-2.5621,-2.5636,-2.5632,-2.5632,-2.5632,-2.5632,-2.5632,-2.5634,-2.5615,-2.5571,-2.5537,-2.5512,-2.5453,-2.5459,-2.5478,-2.5492,-2.5579,-2.562,-2.556,-2.5549,-2.5556,-2.5531,-2.5479,-2.5453,-2.5466,-2.5464,-2.543,-2.5368,-2.5357,-2.5321,-2.5293,-2.5264,-2.5234,-2.5194,-2.5143,-2.5088,-2.4948,-2.4321,-2.3866,-2.3472,-2.2825,-2.2389,-2.1992,-2.1248,-2.0899,-2.0656,-1.9885,-1.9398,-1.9057,-1.8806,-1.8734,-1.8734,-1.8677,-1.8639,-1.8697,-1.893,-1.8983,-1.8949,-1.8914,-1.8825,-1.8753,-1.8752,-1.8696,-1.8462,-1.7878,-1.7789,-1.763,-1.7168,-1.6915,-1.6803,-1.6882,-1.7349,-1.7674,-1.7606,-1.8217,-1.8589,-1.8404,-1.8266,-1.8083,-1.786,-1.6853,-1.6064,-1.5577,-1.4526,-1.3689,-1.3081,-1.1883,-1.1067,-1.0677,-1.0291,-0.9724,-0.8945,-0.8389,-0.7984,-0.7773,-0.7491,-0.7324,-0.7214,-0.7145,-0.7086,-0.7047,-0.6996,-0.6876,-0.6717,-0.6535,-0.6546,-0.669,-0.6827,-0.7151,-0.7594,-2.5668,-2.5652,-2.5658,-2.5634,-2.559,-2.5554,-2.5565,-2.5554,-2.5562,-2.5562,-2.5537,-2.5517,-2.5517,-2.5518,-2.5499,-2.5427,-2.5395,-2.5365,-2.5321,-2.5293,-2.5284,-2.5284,-2.532,-2.5371,-2.5383,-2.5387,-2.5374,-2.5339,-2.5302,-2.5274,-2.5283,-2.5274,-2.5255,-2.5225,-2.5192,-2.5138,-2.5061,-2.4712,-2.4511,-2.4391,-2.4024,-2.3807,-2.3649,-2.3088,-2.2622,-2.2178,-2.1637,-2.1158,-2.0717,-2.0059,-1.9704,-1.9397,-1.8763,-1.8489,-1.8393,-1.8373,-1.8351,-1.8345,-1.8284,-1.8225,-1.8266,-1.8413,-1.8547,-1.8638,-1.8582,-1.8278,-1.7992,-1.7934,-1.765,-1.7282,-1.6776,-1.6688,-1.6585,-1.6168,-1.5801,-1.5608,-1.5641,-1.601,-1.6256,-1.6185,-1.6971,-1.7449,-1.7245,-1.7271,-1.7133,-1.6706,-1.5853,-1.5053,-1.4378,-1.3358,-1.2403,-1.1588,-1.0495,-0.9886,-0.9816,-0.9263,-0.8919,-0.8704,-0.8286,-0.7985,-0.7734,-0.7576,-0.7416,-0.7306,-0.7265,-0.7224,-0.7201,-0.7136,-0.7007,-0.6812,-0.664,-0.6616,-0.6766,-0.6856,-0.7088,-0.7426,-2.56,-2.5585,-2.5568,-2.5492,-2.5499,-2.5479,-2.5485,-2.5476,-2.548,-2.548,-2.5418,-2.5371,-2.5371,-2.5374,-2.5348,-2.5292,-2.5215,-2.5179,-2.5164,-2.5122,-2.5068,-2.5057,-2.5,-2.5018,-2.5128,-2.5156,-2.5143,-2.5088,-2.5088,-2.5077,-2.5061,-2.5061,-2.503,-2.4943,-2.4898,-2.479,-2.459,-2.3798,-2.3394,-2.3203,-2.2376,-2.1984,-2.1835,-2.1699,-2.1154,-2.0446,-2.0292,-1.9699,-1.8947,-1.8807,-1.8526,-1.8249,-1.8187,-1.8107,-1.8027,-1.7963,-1.7949,-1.7922,-1.7839,-1.7772,-1.7743,-1.7704,-1.7941,-1.8142,-1.8063,-1.7521,-1.6981,-1.6798,-1.6214,-1.5699,-1.5575,-1.5594,-1.5615,-1.5531,-1.4861,-1.4329,-1.4329,-1.4325,-1.4286,-1.4214,-1.5267,-1.5948,-1.5789,-1.6044,-1.597,-1.5345,-1.5049,-1.4447,-1.3438,-1.2417,-1.1374,-1.0283,-0.9243,-0.8675,-0.8606,-0.8084,-0.8187,-0.8887,-0.8496,-0.8158,-0.7912,-0.7833,-0.7727,-0.7531,-0.7531,-0.7503,-0.744,-0.736,-0.7281,-0.7137,-0.6869,-0.6884,-0.7058,-0.6908,-0.7138,-0.744,-2.5511,-2.5483,-2.5441,-2.5414,-2.539,-2.5337,-2.534,-2.5341,-2.5322,-2.5273,-2.5262,-2.5233,-2.5173,-2.5163,-2.516,-2.5145,-2.5031,-2.4974,-2.4966,-2.4898,-2.4875,-2.4879,-2.4753,-2.4704,-2.4731,-2.4874,-2.4961,-2.4947,-2.4902,-2.4855,-2.4874,-2.4874,-2.4487,-2.3855,-2.3822,-2.3408,-2.2689,-2.251,-2.2361,-2.22,-2.1902,-2.1709,-2.1496,-2.0753,-2.0318,-2.0011,-1.9327,-1.8895,-1.866,-1.841,-1.8184,-1.7971,-1.7905,-1.7777,-1.7625,-1.7625,-1.7532,-1.7415,-1.732,-1.7224,-1.7142,-1.7043,-1.6685,-1.6446,-1.679,-1.6673,-1.6302,-1.5691,-1.54,-1.506,-1.448,-1.4344,-1.4126,-1.3545,-1.3258,-1.3069,-1.3016,-1.3411,-1.3629,-1.3447,-1.4052,-1.4532,-1.472,-1.4891,-1.4852,-1.4509,-1.3709,-1.2996,-1.2437,-1.1398,-1.049,-0.9788,-0.9168,-0.881,-0.8676,-0.8213,-0.7993,-0.8053,-0.7719,-0.7435,-0.7221,-0.7157,-0.7093,-0.7057,-0.7057,-0.7057,-0.7029,-0.6964,-0.6891,-0.6775,-0.6586,-0.6598,-0.6797,-0.6712,-0.6855,-0.7147,-2.536,-2.5341,-2.5293,-2.5264,-2.5233,-2.5182,-2.5149,-2.5164,-2.513,-2.5063,-2.5069,-2.5025,-2.4962,-2.4949,-2.4955,-2.4959,-2.4856,-2.4798,-2.4753,-2.4692,-2.4645,-2.461,-2.4513,-2.4464,-2.4464,-2.453,-2.4594,-2.4654,-2.4639,-2.4604,-2.4604,-2.4604,-2.4158,-2.3356,-2.3356,-2.2846,-2.1937,-2.1501,-2.1224,-2.0985,-2.0445,-2.0173,-2.0008,-1.9425,-1.9169,-1.9076,-1.8625,-1.8406,-1.8287,-1.804,-1.7844,-1.7687,-1.7479,-1.732,-1.7183,-1.7101,-1.6952,-1.6799,-1.6706,-1.6575,-1.6391,-1.6035,-1.5624,-1.5452,-1.5964,-1.5527,-1.4875,-1.4342,-1.3962,-1.3583,-1.3122,-1.3043,-1.2895,-1.2447,-1.2325,-1.2245,-1.2143,-1.2317,-1.2379,-1.2179,-1.2594,-1.3101,-1.3584,-1.3839,-1.3835,-1.3457,-1.2847,-1.2174,-1.1476,-1.0788,-1.0011,-0.909,-0.8683,-0.8353,-0.8144,-0.774,-0.7502,-0.7433,-0.7533,-0.7502,-0.7347,-0.7316,-0.7238,-0.7185,-0.7185,-0.7153,-0.7122,-0.709,-0.7012,-0.6934,-0.6816,-0.6786,-0.6841,-0.6794,-0.6894,-0.7021,-2.5164,-2.5153,-2.513,-2.5057,-2.5044,-2.5032,-2.4955,-2.4966,-2.494,-2.4861,-2.487,-2.4842,-2.476,-2.476,-2.4749,-2.4742,-2.4682,-2.4617,-2.4547,-2.4497,-2.4408,-2.4355,-2.4284,-2.4229,-2.4229,-2.4152,-2.4191,-2.4355,-2.4355,-2.4337,-2.4319,-2.4207,-2.3707,-2.2928,-2.278,-2.2196,-2.1268,-2.0525,-2.0027,-1.9721,-1.8871,-1.8469,-1.8406,-1.8225,-1.8146,-1.8163,-1.8113,-1.8005,-1.7856,-1.7641,-1.7486,-1.732,-1.7002,-1.685,-1.6747,-1.6554,-1.6355,-1.6148,-1.6093,-1.5938,-1.5645,-1.5131,-1.4761,-1.4649,-1.5046,-1.4257,-1.3333,-1.2944,-1.2433,-1.2009,-1.1903,-1.1915,-1.1915,-1.1781,-1.1717,-1.1608,-1.1468,-1.1287,-1.1089,-1.0902,-1.13,-1.1799,-1.2352,-1.278,-1.2847,-1.2413,-1.2139,-1.1597,-1.0645,-1.0313,-0.9685,-0.8602,-0.8209,-0.7842,-0.7484,-0.7176,-0.6983,-0.6937,-0.7412,-0.7587,-0.7545,-0.7545,-0.7496,-0.7398,-0.7398,-0.7363,-0.7328,-0.7328,-0.7245,-0.7167,-0.7167,-0.7118,-0.6979,-0.6979,-0.6979,-0.6979,-2.4942,-2.4934,-2.4926,-2.4847,-2.4832,-2.4837,-2.4832,-2.4836,-2.4806,-2.4745,-2.4729,-2.4698,-2.4629,-2.4596,-2.4545,-2.4545,-2.4481,-2.4411,-2.4339,-2.4266,-2.421,-2.4134,-2.4075,-2.3996,-2.3858,-2.3795,-2.3878,-2.4134,-2.4134,-2.4114,-2.4057,-2.3344,-2.2594,-2.1771,-2.1022,-2.0206,-1.936,-1.9075,-1.8823,-1.8614,-1.8365,-1.8187,-1.8065,-1.7975,-1.7949,-1.7927,-1.7816,-1.7618,-1.7368,-1.715,-1.6977,-1.6773,-1.6617,-1.6432,-1.6285,-1.6191,-1.5924,-1.5681,-1.5521,-1.5374,-1.5166,-1.5049,-1.4198,-1.3406,-1.3365,-1.3048,-1.2511,-1.1724,-1.1489,-1.1386,-1.1318,-1.1318,-1.1296,-1.121,-1.1141,-1.1048,-1.092,-1.0729,-1.0521,-1.0335,-1.0784,-1.1033,-1.0833,-1.1538,-1.1836,-1.1431,-1.1094,-1.0712,-1.0223,-0.9877,-0.9391,-0.8788,-0.8279,-0.7825,-0.7432,-0.6967,-0.6687,-0.6562,-0.6575,-0.6666,-0.6842,-0.6842,-0.6878,-0.6999,-0.6999,-0.6992,-0.707,-0.707,-0.7021,-0.7027,-0.7027,-0.7021,-0.6979,-0.6979,-0.6979,-0.6979,-2.4749,-2.4704,-2.4657,-2.4588,-2.4572,-2.4591,-2.4578,-2.4578,-2.458,-2.4534,-2.4534,-2.4517,-2.4428,-2.4374,-2.4338,-2.4338,-2.4266,-2.4209,-2.4134,-2.4037,-2.3939,-2.3876,-2.3813,-2.3747,-2.3685,-2.362,-2.3638,-2.3721,-2.3792,-2.3599,-2.3161,-2.2761,-2.1909,-2.0697,-2.0263,-1.9559,-1.8641,-1.8491,-1.8296,-1.8107,-1.7893,-1.776,-1.7647,-1.7549,-1.7502,-1.7502,-1.7361,-1.7175,-1.6935,-1.6747,-1.6565,-1.6378,-1.6133,-1.5966,-1.5824,-1.5668,-1.5418,-1.5165,-1.4937,-1.4766,-1.454,-1.4087,-1.3544,-1.2908,-1.2102,-1.1816,-1.1576,-1.1079,-1.0963,-1.0916,-1.0835,-1.0811,-1.0763,-1.0656,-1.0632,-1.0534,-1.0323,-1.0161,-1.0018,-0.9927,-1.0314,-1.0601,-1.052,-1.1205,-1.139,-1.0631,-1.0607,-1.0318,-0.9527,-0.9231,-0.8869,-0.8308,-0.7904,-0.7447,-0.7027,-0.6696,-0.6483,-0.6313,-0.6142,-0.6233,-0.6538,-0.6581,-0.6611,-0.6696,-0.6751,-0.6745,-0.6732,-0.6732,-0.6689,-0.666,-0.666,-0.666,-0.6653,-0.6689,-0.6732,-0.6732]}]]